Donnes mto: Actuelle mardi, 23/04/2019 12:24
Date Horaire Temp. Ext. Temp. +10cm Temp. -10cm Temp. -30cm Temp. -50cm Hum. Ext. Hum.feuil. Hum.feuil. 2 Hum. -10cm Hum. -30cm Hum. -50cm Baro. Pluie Vent Direction Direction Ensoleilleme Ev.Tr. UV Solaire P. de rose Temp au vent Rafales
23/04/2019 12:24 19,4 C 19,4 C 12,8 C 11,7 C 11,1 C 50 % 0 lf 0 lf 18 cb 12 cb 10 cb 996,2 hPa 0,0 mm 9,2 km/h (2 Bft) E 88 2 min 0,000 mm 1,9 UV-I 552 W/m 8,7 C 18,3 C 14,5 km/h (3 Bft)
23/04/2019 12:22 19,4 C 19,4 C 12,8 C 11,7 C 11,1 C 51 % 0 lf 0 lf 18 cb 12 cb 10 cb 996,3 hPa 0,0 mm 5,1 km/h (1 Bft) SE 138 2 min 0,000 mm 2,0 UV-I 594 W/m 9,0 C 19,4 C 11,3 km/h (2 Bft)
23/04/2019 12:20 19,3 C 19,4 C 12,8 C 11,7 C 11,1 C 50 % 0 lf 0 lf 18 cb 12 cb 10 cb 996,3 hPa 0,0 mm 6,0 km/h (2 Bft) E-SE 106 2 min 0,000 mm 2,0 UV-I 598 W/m 8,6 C 19,3 C 11,3 km/h (2 Bft)
23/04/2019 12:18 19,2 C 19,4 C 12,8 C 11,7 C 11,1 C 52 % 0 lf 0 lf 18 cb 12 cb 10 cb 996,3 hPa 0,0 mm 5,8 km/h (2 Bft) E-SE 115 2 min 0,000 mm 2,0 UV-I 610 W/m 9,1 C 19,2 C 11,3 km/h (2 Bft)
23/04/2019 12:16 19,1 C 18,9 C 12,8 C 11,7 C 11,1 C 51 % 0 lf 0 lf 18 cb 12 cb 10 cb 996,4 hPa 0,0 mm 5,4 km/h (1 Bft) E 86 2 min 0,000 mm 2,0 UV-I 617 W/m 8,7 C 19,1 C 9,7 km/h (2 Bft)
23/04/2019 12:14 19,1 C 18,9 C 12,8 C 11,7 C 11,1 C 51 % 0 lf 0 lf 18 cb 12 cb 10 cb 996,5 hPa 0,0 mm 5,4 km/h (1 Bft) E-SE 115 2 min 0,000 mm 1,8 UV-I 538 W/m 8,7 C 19,1 C 8,0 km/h (2 Bft)
23/04/2019 12:12 19,1 C 18,9 C 12,8 C 11,7 C 11,1 C 50 % 0 lf 0 lf 18 cb 12 cb 10 cb 996,4 hPa 0,0 mm 4,4 km/h (1 Bft) E-SE 119 2 min 0,000 mm 1,7 UV-I 508 W/m 8,4 C 19,1 C 8,0 km/h (2 Bft)
23/04/2019 12:10 19,1 C 18,9 C 12,8 C 11,7 C 11,1 C 51 % 0 lf 0 lf 18 cb 12 cb 10 cb 996,4 hPa 0,0 mm 6,2 km/h (2 Bft) E 96 2 min 0,000 mm 1,6 UV-I 446 W/m 8,7 C 19,1 C 11,3 km/h (2 Bft)
23/04/2019 12:08 19,1 C 18,9 C 12,8 C 11,7 C 11,1 C 52 % 0 lf 0 lf 18 cb 12 cb 10 cb 996,4 hPa 0,0 mm 6,9 km/h (2 Bft) E-SE 110 2 min 0,000 mm 1,7 UV-I 482 W/m 9,0 C 18,9 C 11,3 km/h (2 Bft)
23/04/2019 12:06 19,1 C 18,9 C 12,8 C 11,7 C 11,1 C 50 % 0 lf 0 lf 18 cb 12 cb 10 cb 996,4 hPa 0,0 mm 7,2 km/h (2 Bft) E 86 2 min 0,000 mm 1,7 UV-I 540 W/m 8,4 C 18,7 C 11,3 km/h (2 Bft)
23/04/2019 12:04 19,1 C 18,9 C 12,8 C 11,7 C 11,1 C 51 % 0 lf 0 lf 18 cb 12 cb 10 cb 996,4 hPa 0,0 mm 8,1 km/h (2 Bft) E 89 2 min 0,000 mm 1,8 UV-I 540 W/m 8,7 C 18,4 C 12,9 km/h (3 Bft)
23/04/2019 12:02 18,9 C 18,9 C 12,8 C 11,7 C 11,1 C 53 % 0 lf 0 lf 18 cb 12 cb 10 cb 996,4 hPa 0,0 mm 5,5 km/h (1 Bft) E 98 2 min 0,000 mm 1,7 UV-I 517 W/m 9,1 C 18,9 C 9,7 km/h (2 Bft)
23/04/2019 12:00 18,9 C 18,9 C 12,8 C 11,7 C 11,1 C 49 % 0 lf 0 lf 18 cb 12 cb 10 cb 996,4 hPa 0,0 mm 5,9 km/h (2 Bft) E-SE 118 2 min 0,381 mm 1,6 UV-I 432 W/m 7,9 C 18,9 C 14,5 km/h (3 Bft)
23/04/2019 11:58 19,1 C 18,9 C 12,8 C 11,7 C 11,1 C 49 % 0 lf 0 lf 18 cb 12 cb 10 cb 996,4 hPa 0,0 mm 7,3 km/h (2 Bft) E 92 2 min 0,000 mm 1,7 UV-I 497 W/m 8,1 C 18,7 C 12,9 km/h (3 Bft)
23/04/2019 11:56 19,0 C 18,9 C 12,8 C 11,7 C 11,1 C 50 % 0 lf 0 lf 18 cb 12 cb 10 cb 996,4 hPa 0,0 mm 5,6 km/h (1 Bft) E 92 2 min 0,000 mm 1,7 UV-I 504 W/m 8,3 C 19,0 C 9,7 km/h (2 Bft)
23/04/2019 11:54 19,0 C 18,9 C 12,8 C 11,7 C 11,1 C 52 % 0 lf 0 lf 18 cb 12 cb 10 cb 996,4 hPa 0,0 mm 6,7 km/h (2 Bft) E 90 2 min 0,000 mm 1,7 UV-I 512 W/m 8,9 C 18,9 C 11,3 km/h (2 Bft)
23/04/2019 11:52 19,1 C 18,9 C 12,8 C 11,7 C 11,1 C 50 % 0 lf 0 lf 18 cb 12 cb 10 cb 996,3 hPa 0,0 mm 4,2 km/h (1 Bft) SE 138 2 min 0,000 mm 1,8 UV-I 536 W/m 8,4 C 19,1 C 11,3 km/h (2 Bft)
23/04/2019 11:50 19,1 C 18,9 C 12,8 C 11,7 C 11,1 C 50 % 0 lf 0 lf 18 cb 12 cb 10 cb 996,4 hPa 0,0 mm 5,3 km/h (1 Bft) E-SE 112 2 min 0,000 mm 1,9 UV-I 659 W/m 8,4 C 19,1 C 11,3 km/h (2 Bft)
23/04/2019 11:48 19,1 C 18,9 C 12,8 C 11,7 C 11,1 C 48 % 0 lf 0 lf 18 cb 12 cb 10 cb 996,4 hPa 0,0 mm 7,4 km/h (2 Bft) E 95 2 min 0,000 mm 1,9 UV-I 638 W/m 7,8 C 18,7 C 12,9 km/h (3 Bft)
23/04/2019 11:46 19,3 C 18,9 C 12,8 C 11,7 C 11,1 C 50 % 0 lf 0 lf 18 cb 12 cb 10 cb 996,4 hPa 0,0 mm 4,1 km/h (1 Bft) E-SE 102 2 min 0,000 mm 1,8 UV-I 559 W/m 8,6 C 19,3 C 8,0 km/h (2 Bft)
23/04/2019 11:44 19,4 C 18,9 C 12,8 C 11,7 C 11,1 C 47 % 0 lf 0 lf 18 cb 12 cb 10 cb 996,4 hPa 0,0 mm 7,8 km/h (2 Bft) E 85 2 min 0,000 mm 1,7 UV-I 510 W/m 7,8 C 18,8 C 16,1 km/h (3 Bft)
23/04/2019 11:42 19,5 C 18,9 C 12,8 C 11,7 C 11,1 C 51 % 0 lf 0 lf 18 cb 12 cb 10 cb 996,4 hPa 0,0 mm 3,7 km/h (1 Bft) SE 137 2 min 0,000 mm 2,0 UV-I 705 W/m 9,1 C 19,5 C 6,4 km/h (2 Bft)
23/04/2019 11:40 19,3 C 18,3 C 12,8 C 11,7 C 11,1 C 49 % 0 lf 0 lf 18 cb 12 cb 10 cb 996,4 hPa 0,0 mm 7,5 km/h (2 Bft) E-NE 77 2 min 0,000 mm 2,2 UV-I 773 W/m 8,3 C 18,8 C 12,9 km/h (3 Bft)
23/04/2019 11:38 19,2 C 18,3 C 12,8 C 11,7 C 11,1 C 49 % 0 lf 0 lf 18 cb 12 cb 10 cb 996,4 hPa 0,0 mm 5,2 km/h (1 Bft) E-SE 110 2 min 0,000 mm 2,2 UV-I 779 W/m 8,2 C 19,2 C 9,7 km/h (2 Bft)
23/04/2019 11:36 19,1 C 18,3 C 12,8 C 11,7 C 11,1 C 47 % 0 lf 0 lf 18 cb 12 cb 10 cb 996,4 hPa 0,0 mm 4,7 km/h (1 Bft) E-SE 108 2 min 0,000 mm 2,1 UV-I 773 W/m 7,5 C 19,1 C 8,0 km/h (2 Bft)
23/04/2019 11:34 19,0 C 18,3 C 12,8 C 11,7 C 11,1 C 50 % 0 lf 0 lf 18 cb 12 cb 10 cb 996,4 hPa 0,0 mm 4,1 km/h (1 Bft) E-SE 104 2 min 0,000 mm 1,9 UV-I 668 W/m 8,3 C 19,0 C 8,0 km/h (2 Bft)
23/04/2019 11:32 19,1 C 18,3 C 12,8 C 11,7 C 11,1 C 50 % 0 lf 0 lf 18 cb 12 cb 10 cb 996,4 hPa 0,0 mm 2,8 km/h (1 Bft) E-SE 110 2 min 0,000 mm 1,8 UV-I 582 W/m 8,4 C 19,1 C 6,4 km/h (2 Bft)
23/04/2019 11:30 18,9 C 18,3 C 12,8 C 11,7 C 11,1 C 51 % 0 lf 0 lf 18 cb 12 cb 10 cb 996,5 hPa 0,0 mm 4,1 km/h (1 Bft) E-SE 107 2 min 0,000 mm 1,8 UV-I 570 W/m 8,5 C 18,9 C 9,7 km/h (2 Bft)
23/04/2019 11:28 19,0 C 18,3 C 12,8 C 11,7 C 11,1 C 49 % 0 lf 0 lf 18 cb 12 cb 10 cb 996,5 hPa 0,0 mm 4,0 km/h (1 Bft) E 94 2 min 0,000 mm 1,8 UV-I 596 W/m 8,0 C 19,0 C 8,0 km/h (2 Bft)
23/04/2019 11:26 18,9 C 18,3 C 12,8 C 11,7 C 11,1 C 50 % 0 lf 0 lf 18 cb 12 cb 10 cb 996,5 hPa 0,0 mm 2,5 km/h (1 Bft) NE 50 2 min 0,000 mm 1,9 UV-I 664 W/m 8,2 C 18,9 C 9,7 km/h (2 Bft)
23/04/2019 11:24 19,0 C 18,3 C 12,8 C 11,7 C 11,1 C 50 % 0 lf 0 lf 18 cb 12 cb 10 cb 996,5 hPa 0,0 mm 5,6 km/h (1 Bft) E-SE 120 2 min 0,000 mm 1,8 UV-I 629 W/m 8,3 C 19,0 C 9,7 km/h (2 Bft)
23/04/2019 11:22 18,9 C 18,3 C 12,8 C 11,7 C 11,1 C 50 % 0 lf 0 lf 18 cb 12 cb 10 cb 996,5 hPa 0,0 mm 2,4 km/h (1 Bft) SE 139 2 min 0,000 mm 1,7 UV-I 570 W/m 8,2 C 18,9 C 6,4 km/h (2 Bft)
23/04/2019 11:20 18,9 C 18,3 C 12,8 C 11,7 C 11,1 C 49 % 0 lf 0 lf 18 cb 12 cb 10 cb 996,6 hPa 0,0 mm 4,4 km/h (1 Bft) E-SE 122 2 min 0,000 mm 1,9 UV-I 694 W/m 7,9 C 18,9 C 8,0 km/h (2 Bft)
23/04/2019 11:18 18,8 C 17,8 C 12,8 C 11,7 C 11,1 C 50 % 0 lf 0 lf 18 cb 12 cb 10 cb 996,6 hPa 0,0 mm 5,4 km/h (1 Bft) SE 133 2 min 0,000 mm 1,9 UV-I 698 W/m 8,2 C 18,8 C 9,7 km/h (2 Bft)
23/04/2019 11:16 18,6 C 17,8 C 12,8 C 11,7 C 11,1 C 51 % 0 lf 0 lf 18 cb 12 cb 10 cb 996,6 hPa 0,0 mm 5,6 km/h (1 Bft) E 88 2 min 0,000 mm 1,8 UV-I 691 W/m 8,3 C 18,6 C 11,3 km/h (2 Bft)
23/04/2019 11:14 18,4 C 17,8 C 12,8 C 11,7 C 11,1 C 51 % 0 lf 0 lf 18 cb 12 cb 10 cb 996,6 hPa 0,0 mm 4,7 km/h (1 Bft) SE 134 2 min 0,000 mm 1,8 UV-I 689 W/m 8,1 C 18,4 C 9,7 km/h (2 Bft)
23/04/2019 11:12 18,3 C 17,8 C 12,8 C 11,7 C 11,1 C 51 % 0 lf 0 lf 18 cb 12 cb 10 cb 996,6 hPa 0,0 mm 4,4 km/h (1 Bft) E-SE 111 2 min 0,000 mm 1,8 UV-I 680 W/m 8,0 C 18,3 C 9,7 km/h (2 Bft)
23/04/2019 11:10 18,3 C 17,8 C 12,8 C 11,7 C 11,1 C 52 % 0 lf 0 lf 18 cb 12 cb 10 cb 996,6 hPa 0,0 mm 7,0 km/h (2 Bft) SE 132 2 min 0,000 mm 1,7 UV-I 649 W/m 8,3 C 18,0 C 11,3 km/h (2 Bft)
23/04/2019 11:08 18,2 C 17,2 C 12,8 C 11,7 C 11,1 C 54 % 0 lf 0 lf 18 cb 12 cb 10 cb 996,6 hPa 0,0 mm 4,6 km/h (1 Bft) S-SE 148 2 min 0,000 mm 1,7 UV-I 652 W/m 8,7 C 18,2 C 9,7 km/h (2 Bft)
23/04/2019 11:06 17,9 C 17,2 C 12,8 C 11,7 C 11,1 C 52 % 0 lf 0 lf 18 cb 12 cb 10 cb 996,7 hPa 0,0 mm 4,4 km/h (1 Bft) SE 141 2 min 0,000 mm 1,7 UV-I 657 W/m 7,9 C 17,9 C 8,0 km/h (2 Bft)
23/04/2019 11:04 17,7 C 17,2 C 12,8 C 11,7 C 11,1 C 53 % 0 lf 0 lf 18 cb 12 cb 10 cb 996,7 hPa 0,0 mm 4,2 km/h (1 Bft) E-SE 122 2 min 0,000 mm 1,7 UV-I 661 W/m 8,0 C 17,7 C 8,0 km/h (2 Bft)
23/04/2019 11:02 17,4 C 17,2 C 12,8 C 11,7 C 11,1 C 56 % 0 lf 0 lf 18 cb 12 cb 10 cb 996,7 hPa 0,0 mm 3,9 km/h (1 Bft) E-SE 102 2 min 0,000 mm 1,7 UV-I 645 W/m 8,5 C 17,4 C 9,7 km/h (2 Bft)
23/04/2019 11:00 17,3 C 16,7 C 12,8 C 11,7 C 11,1 C 55 % 0 lf 0 lf 18 cb 12 cb 10 cb 996,7 hPa 0,0 mm 2,4 km/h (1 Bft) E 80 2 min 0,229 mm 1,5 UV-I 578 W/m 8,2 C 17,3 C 6,4 km/h (2 Bft)
23/04/2019 10:58 17,1 C 16,7 C 12,8 C 11,7 C 11,1 C 57 % 0 lf 0 lf 18 cb 12 cb 10 cb 996,8 hPa 0,0 mm 4,2 km/h (1 Bft) E 90 2 min 0,000 mm 1,5 UV-I 545 W/m 8,5 C 17,1 C 9,7 km/h (2 Bft)
23/04/2019 10:56 16,8 C 16,7 C 12,8 C 11,7 C 11,1 C 56 % 0 lf 0 lf 18 cb 12 cb 10 cb 996,8 hPa 0,0 mm 2,7 km/h (1 Bft) E 101 2 min 0,000 mm 1,5 UV-I 552 W/m 8,0 C 16,8 C 6,4 km/h (2 Bft)
23/04/2019 10:54 16,7 C 16,1 C 12,8 C 11,7 C 11,1 C 57 % 0 lf 0 lf 18 cb 12 cb 10 cb 996,8 hPa 0,0 mm 3,4 km/h (1 Bft) E 98 2 min 0,000 mm 1,4 UV-I 548 W/m 8,1 C 16,7 C 6,4 km/h (2 Bft)
23/04/2019 10:52 16,5 C 16,1 C 12,8 C 11,7 C 11,1 C 58 % 0 lf 0 lf 18 cb 12 cb 10 cb 996,7 hPa 0,0 mm 1,3 km/h (1 Bft) E-SE 122 2 min 0,000 mm 1,3 UV-I 504 W/m 8,2 C 16,5 C 4,8 km/h (1 Bft)
23/04/2019 10:50 16,3 C 16,1 C 12,8 C 11,7 C 11,1 C 56 % 0 lf 0 lf 18 cb 12 cb 10 cb 996,7 hPa 0,0 mm 3,4 km/h (1 Bft) S-SE 153 2 min 0,000 mm 1,3 UV-I 464 W/m 7,5 C 16,3 C 8,0 km/h (2 Bft)
23/04/2019 10:48 16,1 C 16,1 C 12,8 C 11,7 C 11,1 C 57 % 0 lf 0 lf 18 cb 12 cb 10 cb 996,8 hPa 0,0 mm 4,8 km/h (1 Bft) E-SE 108 2 min 0,000 mm 1,2 UV-I 443 W/m 7,6 C 16,1 C 9,7 km/h (2 Bft)
23/04/2019 10:46 16,1 C 16,1 C 12,8 C 11,7 C 11,1 C 57 % 0 lf 0 lf 18 cb 12 cb 10 cb 996,8 hPa 0,0 mm 4,2 km/h (1 Bft) E-SE 106 2 min 0,000 mm 1,1 UV-I 415 W/m 7,6 C 16,1 C 9,7 km/h (2 Bft)
23/04/2019 10:44 15,9 C 15,6 C 12,8 C 11,7 C 11,1 C 57 % 0 lf 0 lf 18 cb 12 cb 10 cb 996,7 hPa 0,0 mm 5,5 km/h (1 Bft) E 82 2 min 0,000 mm 1,1 UV-I 387 W/m 7,4 C 15,9 C 9,7 km/h (2 Bft)
23/04/2019 10:42 15,9 C 15,6 C 12,8 C 11,7 C 11,1 C 57 % 0 lf 0 lf 18 cb 12 cb 10 cb 996,8 hPa 0,0 mm 5,2 km/h (1 Bft) E 88 2 min 0,000 mm 1,1 UV-I 387 W/m 7,4 C 15,9 C 11,3 km/h (2 Bft)
23/04/2019 10:40 15,8 C 15,6 C 12,8 C 11,7 C 11,1 C 58 % 0 lf 0 lf 18 cb 12 cb 10 cb 996,8 hPa 0,0 mm 3,9 km/h (1 Bft) E-SE 109 2 min 0,000 mm 1,0 UV-I 369 W/m 7,6 C 15,8 C 8,0 km/h (2 Bft)
23/04/2019 10:38 15,8 C 15,6 C 12,8 C 11,7 C 11,1 C 58 % 0 lf 0 lf 18 cb 12 cb 10 cb 996,8 hPa 0,0 mm 3,8 km/h (1 Bft) E-SE 121 2 min 0,000 mm 1,0 UV-I 352 W/m 7,6 C 15,8 C 8,0 km/h (2 Bft)
23/04/2019 10:36 15,7 C 15,6 C 12,8 C 11,7 C 11,1 C 57 % 0 lf 0 lf 18 cb 12 cb 10 cb 996,9 hPa 0,0 mm 4,7 km/h (1 Bft) E-SE 104 2 min 0,000 mm 1,0 UV-I 338 W/m 7,2 C 15,7 C 9,7 km/h (2 Bft)
23/04/2019 10:34 15,7 C 15,6 C 12,8 C 11,7 C 11,1 C 58 % 0 lf 0 lf 18 cb 12 cb 10 cb 996,9 hPa 0,0 mm 1,6 km/h (1 Bft) NE 54 2 min 0,000 mm 1,0 UV-I 345 W/m 7,5 C 15,7 C 8,0 km/h (2 Bft)
23/04/2019 10:32 15,6 C 15,6 C 12,8 C 11,7 C 11,1 C 60 % 0 lf 0 lf 18 cb 12 cb 10 cb 996,9 hPa 0,0 mm 4,4 km/h (1 Bft) E 96 2 min 0,000 mm 1,0 UV-I 346 W/m 7,9 C 15,6 C 8,0 km/h (2 Bft)
23/04/2019 10:30 15,6 C 15,6 C 12,8 C 11,7 C 11,1 C 59 % 0 lf 0 lf 18 cb 12 cb 10 cb 996,9 hPa 0,0 mm 3,2 km/h (1 Bft) E 79 2 min 0,000 mm 1,0 UV-I 364 W/m 7,6 C 15,6 C 8,0 km/h (2 Bft)
23/04/2019 10:28 15,4 C 15,0 C 12,8 C 11,7 C 11,1 C 60 % 0 lf 0 lf 18 cb 12 cb 10 cb 997,0 hPa 0,0 mm 2,7 km/h (1 Bft) E-SE 108 2 min 0,000 mm 0,9 UV-I 348 W/m 7,7 C 15,4 C 6,4 km/h (2 Bft)
23/04/2019 10:26 15,3 C 15,0 C 12,8 C 11,7 C 11,1 C 60 % 0 lf 0 lf 18 cb 12 cb 10 cb 996,9 hPa 0,0 mm 3,1 km/h (1 Bft) E 87 2 min 0,000 mm 0,9 UV-I 339 W/m 7,6 C 15,3 C 8,0 km/h (2 Bft)
23/04/2019 10:24 15,2 C 15,0 C 12,8 C 11,7 C 11,1 C 60 % 0 lf 0 lf 18 cb 12 cb 10 cb 996,9 hPa 0,0 mm 3,9 km/h (1 Bft) E-NE 58 2 min 0,000 mm 0,9 UV-I 329 W/m 7,5 C 15,2 C 8,0 km/h (2 Bft)
23/04/2019 10:22 15,1 C 15,0 C 12,8 C 11,7 C 11,1 C 61 % 0 lf 0 lf 18 cb 12 cb 10 cb 996,9 hPa 0,0 mm 2,5 km/h (1 Bft) E-SE 104 2 min 0,000 mm 0,9 UV-I 332 W/m 7,6 C 15,1 C 6,4 km/h (2 Bft)
23/04/2019 10:20 15,0 C 15,0 C 12,8 C 11,7 C 11,1 C 61 % 0 lf 0 lf 18 cb 12 cb 10 cb 997,0 hPa 0,0 mm 3,6 km/h (1 Bft) E 95 2 min 0,000 mm 0,8 UV-I 330 W/m 7,5 C 15,0 C 8,0 km/h (2 Bft)
23/04/2019 10:18 14,9 C 15,0 C 12,8 C 11,7 C 11,1 C 60 % 0 lf 0 lf 18 cb 12 cb 10 cb 997,0 hPa 0,0 mm 4,6 km/h (1 Bft) E 92 2 min 0,000 mm 0,8 UV-I 323 W/m 7,2 C 14,9 C 9,7 km/h (2 Bft)
23/04/2019 10:16 14,8 C 15,0 C 12,8 C 11,7 C 11,1 C 61 % 0 lf 0 lf 18 cb 12 cb 10 cb 997,1 hPa 0,0 mm 3,6 km/h (1 Bft) E 90 2 min 0,000 mm 0,8 UV-I 322 W/m 7,4 C 14,8 C 9,7 km/h (2 Bft)
23/04/2019 10:14 14,8 C 15,0 C 12,8 C 11,7 C 11,1 C 62 % 0 lf 0 lf 18 cb 12 cb 10 cb 997,0 hPa 0,0 mm 3,4 km/h (1 Bft) E 92 2 min 0,000 mm 0,8 UV-I 301 W/m 7,6 C 14,8 C 6,4 km/h (2 Bft)
23/04/2019 10:12 14,7 C 14,4 C 12,8 C 11,7 C 11,1 C 62 % 0 lf 0 lf 18 cb 12 cb 10 cb 997,1 hPa 0,0 mm 4,6 km/h (1 Bft) NE 56 2 min 0,000 mm 0,7 UV-I 292 W/m 7,5 C 14,7 C 8,0 km/h (2 Bft)
23/04/2019 10:10 14,7 C 14,4 C 12,8 C 11,7 C 11,1 C 62 % 0 lf 0 lf 18 cb 12 cb 10 cb 997,1 hPa 0,0 mm 4,3 km/h (1 Bft) E 96 0 min 0,000 mm 0,7 UV-I 287 W/m 7,5 C 14,7 C 8,0 km/h (2 Bft)
23/04/2019 10:08 14,6 C 14,4 C 12,8 C 11,7 C 11,1 C 61 % 0 lf 0 lf 18 cb 12 cb 10 cb 997,1 hPa 0,0 mm 6,4 km/h (2 Bft) E 92 0 min 0,000 mm 0,7 UV-I 283 W/m 7,2 C 14,6 C 11,3 km/h (2 Bft)
23/04/2019 10:06 14,6 C 14,4 C 12,8 C 11,7 C 11,1 C 62 % 0 lf 0 lf 18 cb 12 cb 10 cb 997,1 hPa 0,0 mm 4,9 km/h (1 Bft) E 89 0 min 0,000 mm 0,7 UV-I 276 W/m 7,4 C 14,6 C 9,7 km/h (2 Bft)
23/04/2019 10:04 14,4 C 14,4 C 12,8 C 11,7 C 11,1 C 62 % 0 lf 0 lf 18 cb 12 cb 10 cb 997,1 hPa 0,0 mm 5,8 km/h (2 Bft) E-SE 115 0 min 0,000 mm 0,7 UV-I 276 W/m 7,2 C 14,4 C 9,7 km/h (2 Bft)
23/04/2019 10:02 14,4 C 14,4 C 12,8 C 11,7 C 11,1 C 62 % 0 lf 0 lf 18 cb 12 cb 10 cb 997,1 hPa 0,0 mm 5,5 km/h (1 Bft) E 100 0 min 0,000 mm 0,7 UV-I 278 W/m 7,2 C 14,4 C 9,7 km/h (2 Bft)
23/04/2019 10:00 14,4 C 14,4 C 12,8 C 11,7 C 11,1 C 63 % 0 lf 0 lf 18 cb 12 cb 10 cb 997,1 hPa 0,0 mm 4,8 km/h (1 Bft) E 94 2 min 0,127 mm 0,7 UV-I 278 W/m 7,4 C 14,4 C 8,0 km/h (2 Bft)
23/04/2019 09:58 14,3 C 13,9 C 12,8 C 11,7 C 11,1 C 64 % 0 lf 0 lf 18 cb 12 cb 10 cb 997,1 hPa 0,0 mm 2,3 km/h (1 Bft) E-NE 75 0 min 0,000 mm 0,6 UV-I 274 W/m 7,6 C 14,3 C 6,4 km/h (2 Bft)
23/04/2019 09:56 14,2 C 13,9 C 12,8 C 11,7 C 11,1 C 64 % 0 lf 0 lf 18 cb 12 cb 10 cb 997,1 hPa 0,0 mm 2,7 km/h (1 Bft) E-NE 74 0 min 0,000 mm 0,6 UV-I 272 W/m 7,5 C 14,2 C 6,4 km/h (2 Bft)
23/04/2019 09:54 14,1 C 13,9 C 12,8 C 11,7 C 11,1 C 65 % 0 lf 0 lf 18 cb 12 cb 10 cb 997,1 hPa 0,0 mm 1,8 km/h (1 Bft) E 94 0 min 0,000 mm 0,6 UV-I 267 W/m 7,6 C 14,1 C 6,4 km/h (2 Bft)
23/04/2019 09:52 14,0 C 13,9 C 12,8 C 11,7 C 11,1 C 63 % 0 lf 0 lf 18 cb 12 cb 10 cb 997,2 hPa 0,0 mm 5,6 km/h (1 Bft) E 93 0 min 0,000 mm 0,6 UV-I 265 W/m 7,1 C 14,0 C 9,7 km/h (2 Bft)
23/04/2019 09:50 13,9 C 13,9 C 12,8 C 11,7 C 11,1 C 65 % 0 lf 0 lf 18 cb 12 cb 10 cb 997,2 hPa 0,0 mm 3,5 km/h (1 Bft) NE 56 0 min 0,000 mm 0,6 UV-I 255 W/m 7,4 C 13,9 C 8,0 km/h (2 Bft)
23/04/2019 09:48 13,9 C 13,9 C 12,8 C 11,7 C 11,1 C 64 % 0 lf 0 lf 18 cb 12 cb 10 cb 997,2 hPa 0,0 mm 5,7 km/h (1 Bft) E 96 0 min 0,000 mm 0,5 UV-I 244 W/m 7,2 C 13,9 C 11,3 km/h (2 Bft)
23/04/2019 09:46 13,8 C 13,9 C 12,8 C 11,7 C 11,1 C 64 % 0 lf 0 lf 18 cb 12 cb 10 cb 997,2 hPa 0,0 mm 3,7 km/h (1 Bft) E 99 0 min 0,000 mm 0,5 UV-I 248 W/m 7,1 C 13,8 C 8,0 km/h (2 Bft)
23/04/2019 09:44 13,8 C 13,3 C 12,8 C 11,7 C 11,1 C 65 % 0 lf 0 lf 18 cb 12 cb 10 cb 997,2 hPa 0,0 mm 4,7 km/h (1 Bft) E-SE 105 0 min 0,000 mm 0,5 UV-I 234 W/m 7,3 C 13,8 C 8,0 km/h (2 Bft)
23/04/2019 09:42 13,7 C 13,3 C 12,8 C 11,7 C 11,1 C 65 % 0 lf 0 lf 18 cb 12 cb 10 cb 997,2 hPa 0,0 mm 5,3 km/h (1 Bft) E 96 0 min 0,000 mm 0,5 UV-I 230 W/m 7,2 C 13,7 C 11,3 km/h (2 Bft)
23/04/2019 09:40 13,7 C 13,3 C 12,8 C 11,7 C 11,1 C 65 % 0 lf 0 lf 18 cb 12 cb 10 cb 997,2 hPa 0,0 mm 3,1 km/h (1 Bft) E 100 0 min 0,000 mm 0,5 UV-I 223 W/m 7,2 C 13,7 C 8,0 km/h (2 Bft)
23/04/2019 09:38 13,6 C 13,3 C 12,8 C 11,7 C 11,1 C 64 % 0 lf 0 lf 18 cb 12 cb 10 cb 997,1 hPa 0,0 mm 4,2 km/h (1 Bft) E-SE 105 0 min 0,000 mm 0,5 UV-I 216 W/m 6,9 C 13,6 C 9,7 km/h (2 Bft)
23/04/2019 09:36 13,5 C 13,3 C 12,8 C 11,7 C 11,1 C 64 % 0 lf 0 lf 18 cb 12 cb 10 cb 997,2 hPa 0,0 mm 5,5 km/h (1 Bft) E 94 0 min 0,000 mm 0,0 UV-I 211 W/m 6,8 C 13,5 C 9,7 km/h (2 Bft)
23/04/2019 09:34 13,5 C 13,3 C 12,8 C 11,7 C 11,1 C 65 % 0 lf 0 lf 18 cb 12 cb 10 cb 997,2 hPa 0,0 mm 6,1 km/h (2 Bft) E 95 0 min 0,000 mm 0,0 UV-I 207 W/m 7,1 C 13,5 C 11,3 km/h (2 Bft)
23/04/2019 09:32 13,4 C 13,3 C 12,8 C 11,7 C 11,1 C 65 % 0 lf 0 lf 18 cb 12 cb 10 cb 997,3 hPa 0,0 mm 6,4 km/h (2 Bft) E 88 0 min 0,000 mm 0,0 UV-I 202 W/m 7,0 C 13,4 C 11,3 km/h (2 Bft)
23/04/2019 09:30 13,4 C 13,3 C 12,8 C 11,7 C 11,1 C 66 % 0 lf 0 lf 18 cb 12 cb 10 cb 997,2 hPa 0,0 mm 5,7 km/h (1 Bft) E-NE 71 0 min 0,000 mm 0,0 UV-I 199 W/m 7,2 C 13,4 C 9,7 km/h (2 Bft)
23/04/2019 09:28 13,4 C 12,8 C 12,8 C 11,7 C 11,1 C 66 % 0 lf 0 lf 18 cb 12 cb 10 cb 997,3 hPa 0,0 mm 5,0 km/h (1 Bft) E 91 0 min 0,000 mm 0,0 UV-I 197 W/m 7,2 C 13,4 C 9,7 km/h (2 Bft)
23/04/2019 09:26 13,3 C 12,8 C 12,8 C 11,7 C 11,1 C 65 % 0 lf 0 lf 18 cb 12 cb 10 cb 997,3 hPa 0,0 mm 8,2 km/h (2 Bft) E 96 0 min 0,000 mm 0,0 UV-I 195 W/m 6,9 C 12,2 C 12,9 km/h (3 Bft)
23/04/2019 09:24 13,3 C 12,8 C 12,8 C 11,7 C 11,1 C 66 % 0 lf 0 lf 18 cb 12 cb 10 cb 997,3 hPa 0,0 mm 7,2 km/h (2 Bft) E 98 0 min 0,000 mm 0,0 UV-I 193 W/m 7,1 C 12,8 C 11,3 km/h (2 Bft)
23/04/2019 09:22 13,3 C 12,8 C 12,8 C 11,7 C 11,1 C 66 % 0 lf 0 lf 18 cb 12 cb 10 cb 997,2 hPa 0,0 mm 4,7 km/h (1 Bft) E 92 0 min 0,000 mm 0,0 UV-I 190 W/m 7,1 C 13,3 C 8,0 km/h (2 Bft)
23/04/2019 09:20 13,3 C 12,8 C 12,8 C 11,7 C 11,1 C 66 % 0 lf 0 lf 18 cb 12 cb 10 cb 997,3 hPa 0,0 mm 3,9 km/h (1 Bft) E 90 0 min 0,000 mm 0,0 UV-I 190 W/m 7,1 C 13,3 C 8,0 km/h (2 Bft)
23/04/2019 09:18 13,2 C 12,8 C 12,8 C 11,7 C 11,1 C 67 % 0 lf 0 lf 18 cb 12 cb 10 cb 997,3 hPa 0,0 mm 5,9 km/h (2 Bft) E 84 0 min 0,000 mm 0,0 UV-I 190 W/m 7,2 C 13,2 C 9,7 km/h (2 Bft)
23/04/2019 09:16 13,2 C 12,8 C 12,8 C 11,7 C 11,1 C 66 % 0 lf 0 lf 18 cb 12 cb 10 cb 997,3 hPa 0,0 mm 5,8 km/h (2 Bft) E 99 0 min 0,000 mm 0,0 UV-I 192 W/m 7,0 C 13,2 C 9,7 km/h (2 Bft)
23/04/2019 09:14 13,1 C 12,8 C 12,8 C 11,7 C 11,1 C 67 % 0 lf 0 lf 18 cb 12 cb 10 cb 997,3 hPa 0,0 mm 4,3 km/h (1 Bft) E 88 0 min 0,000 mm 0,0 UV-I 195 W/m 7,1 C 13,1 C 9,7 km/h (2 Bft)
23/04/2019 09:12 13,1 C 12,2 C 12,8 C 11,7 C 11,1 C 67 % 0 lf 0 lf 18 cb 12 cb 10 cb 997,3 hPa 0,0 mm 3,8 km/h (1 Bft) E 94 0 min 0,000 mm 0,0 UV-I 195 W/m 7,1 C 13,1 C 8,0 km/h (2 Bft)
23/04/2019 09:10 12,9 C 12,2 C 12,8 C 11,7 C 11,1 C 67 % 0 lf 0 lf 18 cb 12 cb 10 cb 997,4 hPa 0,0 mm 5,2 km/h (1 Bft) E 79 0 min 0,000 mm 0,0 UV-I 209 W/m 6,9 C 12,9 C 8,0 km/h (2 Bft)
23/04/2019 09:08 12,9 C 12,2 C 12,8 C 11,7 C 11,1 C 68 % 0 lf 0 lf 18 cb 12 cb 10 cb 997,4 hPa 0,0 mm 6,7 km/h (2 Bft) E-SE 102 0 min 0,000 mm 0,0 UV-I 183 W/m 7,1 C 12,7 C 11,3 km/h (2 Bft)
23/04/2019 09:06 12,8 C 12,2 C 12,8 C 11,7 C 11,1 C 68 % 0 lf 0 lf 18 cb 12 cb 10 cb 997,4 hPa 0,0 mm 3,7 km/h (1 Bft) E 98 0 min 0,000 mm 0,0 UV-I 176 W/m 7,0 C 12,8 C 8,0 km/h (2 Bft)
23/04/2019 09:04 12,8 C 12,2 C 12,8 C 11,7 C 11,1 C 69 % 0 lf 0 lf 18 cb 12 cb 10 cb 997,5 hPa 0,0 mm 3,3 km/h (1 Bft) E 88 0 min 0,000 mm 0,0 UV-I 172 W/m 7,3 C 12,8 C 8,0 km/h (2 Bft)
23/04/2019 09:02 12,7 C 12,2 C 12,8 C 11,7 C 11,1 C 68 % 0 lf 0 lf 18 cb 12 cb 10 cb 997,4 hPa 0,0 mm 4,5 km/h (1 Bft) E 84 0 min 0,000 mm 0,0 UV-I 172 W/m 6,9 C 12,7 C 8,0 km/h (2 Bft)
23/04/2019 09:00 12,6 C 12,2 C 12,8 C 11,7 C 11,1 C 69 % 0 lf 0 lf 18 cb 12 cb 10 cb 997,5 hPa 0,0 mm 3,6 km/h (1 Bft) E 86 0 min 0,051 mm 0,0 UV-I 178 W/m 7,1 C 12,6 C 6,4 km/h (2 Bft)
23/04/2019 08:58 12,5 C 11,7 C 12,8 C 11,7 C 11,1 C 70 % 0 lf 0 lf 18 cb 12 cb 10 cb 997,5 hPa 0,0 mm 2,7 km/h (1 Bft) E 96 0 min 0,000 mm 0,0 UV-I 169 W/m 7,2 C 12,5 C 6,4 km/h (2 Bft)
23/04/2019 08:56 12,4 C 11,7 C 12,8 C 11,7 C 11,1 C 71 % 0 lf 0 lf 18 cb 12 cb 10 cb 997,5 hPa 0,0 mm 1,0 km/h (0 Bft) E 92 0 min 0,000 mm 0,0 UV-I 160 W/m 7,3 C 12,4 C 6,4 km/h (2 Bft)
23/04/2019 08:54 12,4 C 11,7 C 12,8 C 11,7 C 11,1 C 71 % 0 lf 0 lf 18 cb 12 cb 10 cb 997,5 hPa 0,0 mm 0,4 km/h (0 Bft) E 95 0 min 0,000 mm 0,0 UV-I 158 W/m 7,3 C 12,4 C 3,2 km/h (1 Bft)
23/04/2019 08:52 12,3 C 11,7 C 12,8 C 11,7 C 11,1 C 71 % 0 lf 0 lf 18 cb 12 cb 10 cb 997,5 hPa 0,0 mm 0,8 km/h (0 Bft) E 95 0 min 0,000 mm 0,0 UV-I 153 W/m 7,2 C 12,3 C 4,8 km/h (1 Bft)
23/04/2019 08:50 12,3 C 11,7 C 12,8 C 11,7 C 11,1 C 72 % 0 lf 0 lf 18 cb 12 cb 10 cb 997,5 hPa 0,0 mm 0,6 km/h (0 Bft) E 95 0 min 0,000 mm 0,0 UV-I 146 W/m 7,4 C 12,3 C 3,2 km/h (1 Bft)
23/04/2019 08:48 12,2 C 11,7 C 12,8 C 11,7 C 11,1 C 71 % 0 lf 0 lf 18 cb 12 cb 10 cb 997,6 hPa 0,0 mm 0,6 km/h (0 Bft) E 93 0 min 0,000 mm 0,0 UV-I 141 W/m 7,1 C 12,2 C 3,2 km/h (1 Bft)
23/04/2019 08:46 12,1 C 11,7 C 12,8 C 11,7 C 11,1 C 72 % 0 lf 0 lf 18 cb 12 cb 10 cb 997,5 hPa 0,0 mm 1,2 km/h (1 Bft) E 93 0 min 0,000 mm 0,0 UV-I 137 W/m 7,2 C 12,1 C 6,4 km/h (2 Bft)
23/04/2019 08:44 12,1 C 11,7 C 12,8 C 11,7 C 11,1 C 74 % 0 lf 0 lf 18 cb 12 cb 10 cb 997,6 hPa 0,0 mm 0,0 km/h (0 Bft) E 89 0 min 0,000 mm 0,0 UV-I 132 W/m 7,6 C 12,1 C 0,0 km/h (0 Bft)
23/04/2019 08:42 12,1 C 11,1 C 12,8 C 11,7 C 11,1 C 74 % 0 lf 0 lf 18 cb 12 cb 10 cb 997,6 hPa 0,0 mm 0,0 km/h (0 Bft) E 88 0 min 0,000 mm 0,0 UV-I 130 W/m 7,6 C 12,1 C 0,0 km/h (0 Bft)
23/04/2019 08:40 12,0 C 11,1 C 12,8 C 11,7 C 11,1 C 74 % 0 lf 0 lf 18 cb 12 cb 10 cb 997,6 hPa 0,0 mm 0,0 km/h (0 Bft) E 86 0 min 0,000 mm 0,0 UV-I 125 W/m 7,5 C 12,0 C 0,0 km/h (0 Bft)
23/04/2019 08:38 11,9 C 11,1 C 12,8 C 11,7 C 11,1 C 74 % 0 lf 0 lf 18 cb 12 cb 10 cb 997,5 hPa 0,0 mm 0,0 km/h (0 Bft) E 88 0 min 0,000 mm 0,0 UV-I 121 W/m 7,4 C 11,9 C 0,0 km/h (0 Bft)
23/04/2019 08:36 11,8 C 11,1 C 12,8 C 11,7 C 11,1 C 74 % 0 lf 0 lf 18 cb 12 cb 10 cb 997,6 hPa 0,0 mm 0,0 km/h (0 Bft) E 88 0 min 0,000 mm 0,0 UV-I 120 W/m 7,3 C 11,8 C 0,0 km/h (0 Bft)
23/04/2019 08:34 11,8 C 11,1 C 12,8 C 11,7 C 11,1 C 74 % 0 lf 0 lf 18 cb 12 cb 10 cb 997,6 hPa 0,0 mm 0,0 km/h (0 Bft) E 88 0 min 0,000 mm 0,0 UV-I 114 W/m 7,3 C 11,8 C 0,0 km/h (0 Bft)
23/04/2019 08:32 11,7 C 11,1 C 12,8 C 11,7 C 11,1 C 75 % 0 lf 0 lf 18 cb 12 cb 10 cb 997,6 hPa 0,0 mm 0,0 km/h (0 Bft) E 88 0 min 0,000 mm 0,0 UV-I 113 W/m 7,4 C 11,7 C 0,0 km/h (0 Bft)
23/04/2019 08:30 11,7 C 11,1 C 12,8 C 11,7 C 11,1 C 74 % 0 lf 0 lf 18 cb 12 cb 10 cb 997,6 hPa 0,0 mm 0,0 km/h (0 Bft) E 88 0 min 0,000 mm 0,0 UV-I 111 W/m 7,2 C 11,7 C 0,0 km/h (0 Bft)
23/04/2019 08:28 11,6 C 11,1 C 12,8 C 11,7 C 11,1 C 74 % 0 lf 0 lf 18 cb 12 cb 10 cb 997,6 hPa 0,0 mm 0,0 km/h (0 Bft) E 88 0 min 0,000 mm 0,0 UV-I 107 W/m 7,1 C 11,6 C 0,0 km/h (0 Bft)
23/04/2019 08:26 11,6 C 10,6 C 12,8 C 11,7 C 11,1 C 74 % 0 lf 0 lf 18 cb 12 cb 10 cb 997,5 hPa 0,0 mm 0,0 km/h (0 Bft) E 88 0 min 0,000 mm 0,0 UV-I 105 W/m 7,1 C 11,6 C 0,0 km/h (0 Bft)
23/04/2019 08:24 11,6 C 10,6 C 12,8 C 11,7 C 11,1 C 74 % 0 lf 0 lf 18 cb 12 cb 10 cb 997,5 hPa 0,0 mm 0,0 km/h (0 Bft) E 88 0 min 0,000 mm 0,0 UV-I 104 W/m 7,1 C 11,6 C 0,0 km/h (0 Bft)
23/04/2019 08:22 11,5 C 10,6 C 12,8 C 11,7 C 11,1 C 74 % 0 lf 0 lf 18 cb 12 cb 10 cb 997,5 hPa 0,0 mm 0,0 km/h (0 Bft) E 88 0 min 0,000 mm 0,0 UV-I 100 W/m 7,0 C 11,5 C 0,0 km/h (0 Bft)
23/04/2019 08:20 11,4 C 10,6 C 12,8 C 11,7 C 11,1 C 74 % 0 lf 0 lf 18 cb 12 cb 10 cb 997,5 hPa 0,0 mm 0,0 km/h (0 Bft) E 88 0 min 0,000 mm 0,0 UV-I 97 W/m 6,9 C 11,4 C 0,0 km/h (0 Bft)
23/04/2019 08:18 11,4 C 10,6 C 12,8 C 11,7 C 11,1 C 74 % 0 lf 0 lf 18 cb 12 cb 10 cb 997,5 hPa 0,0 mm 0,0 km/h (0 Bft) E 88 0 min 0,000 mm 0,0 UV-I 95 W/m 6,9 C 11,4 C 0,0 km/h (0 Bft)
23/04/2019 08:16 11,4 C 10,6 C 12,8 C 11,7 C 11,1 C 74 % 0 lf 0 lf 18 cb 12 cb 10 cb 997,5 hPa 0,0 mm 0,0 km/h (0 Bft) E 88 0 min 0,000 mm 0,0 UV-I 91 W/m 6,9 C 11,4 C 0,0 km/h (0 Bft)
23/04/2019 08:14 11,4 C 10,0 C 12,8 C 11,7 C 11,1 C 74 % 0 lf 0 lf 18 cb 12 cb 10 cb 997,5 hPa 0,0 mm 0,0 km/h (0 Bft) E 88 0 min 0,000 mm 0,0 UV-I 88 W/m 6,9 C 11,4 C 0,0 km/h (0 Bft)
23/04/2019 08:12 11,3 C 10,0 C 12,8 C 11,7 C 11,1 C 74 % 0 lf 0 lf 18 cb 12 cb 10 cb 997,5 hPa 0,0 mm 0,0 km/h (0 Bft) E 88 0 min 0,000 mm 0,0 UV-I 84 W/m 6,8 C 11,3 C 0,0 km/h (0 Bft)
23/04/2019 08:10 11,3 C 10,0 C 12,8 C 11,7 C 11,1 C 74 % 0 lf 0 lf 18 cb 12 cb 10 cb 997,5 hPa 0,0 mm 0,0 km/h (0 Bft) E 88 0 min 0,000 mm 0,0 UV-I 81 W/m 6,8 C 11,3 C 0,0 km/h (0 Bft)
23/04/2019 08:08 11,3 C 10,0 C 12,8 C 11,7 C 11,1 C 74 % 0 lf 0 lf 18 cb 12 cb 10 cb 997,5 hPa 0,0 mm 0,0 km/h (0 Bft) E 88 0 min 0,000 mm 0,0 UV-I 77 W/m 6,8 C 11,3 C 0,0 km/h (0 Bft)
23/04/2019 08:06 11,3 C 10,0 C 12,8 C 11,7 C 11,1 C 74 % 0 lf 0 lf 18 cb 12 cb 10 cb 997,5 hPa 0,0 mm 0,0 km/h (0 Bft) E 88 0 min 0,000 mm 0,0 UV-I 76 W/m 6,8 C 11,3 C 0,0 km/h (0 Bft)
23/04/2019 08:04 11,3 C 10,0 C 12,8 C 11,7 C 11,1 C 74 % 0 lf 0 lf 18 cb 12 cb 10 cb 997,6 hPa 0,0 mm 0,0 km/h (0 Bft) E 88 0 min 0,000 mm 0,0 UV-I 70 W/m 6,8 C 11,3 C 0,0 km/h (0 Bft)
23/04/2019 08:02 11,2 C 10,0 C 12,8 C 11,7 C 11,1 C 74 % 0 lf 0 lf 18 cb 12 cb 10 cb 997,5 hPa 0,0 mm 0,0 km/h (0 Bft) E 88 0 min 0,000 mm 0,0 UV-I 69 W/m 6,7 C 11,2 C 0,0 km/h (0 Bft)
23/04/2019 08:00 11,2 C 10,0 C 12,8 C 11,7 C 11,1 C 74 % 0 lf 0 lf 18 cb 12 cb 10 cb 997,5 hPa 0,0 mm 0,0 km/h (0 Bft) E 88 0 min 0,025 mm 0,0 UV-I 65 W/m 6,7 C 11,2 C 0,0 km/h (0 Bft)
23/04/2019 07:58 11,2 C 9,4 C 12,8 C 11,7 C 11,1 C 74 % 0 lf 0 lf 18 cb 12 cb 10 cb 997,6 hPa 0,0 mm 0,0 km/h (0 Bft) E 88 0 min 0,000 mm 0,0 UV-I 62 W/m 6,7 C 11,2 C 0,0 km/h (0 Bft)
23/04/2019 07:56 11,2 C 9,4 C 12,8 C 11,7 C 11,1 C 74 % 0 lf 0 lf 18 cb 12 cb 10 cb 997,6 hPa 0,0 mm 0,0 km/h (0 Bft) E 88 0 min 0,000 mm 0,0 UV-I 60 W/m 6,7 C 11,2 C 0,0 km/h (0 Bft)
23/04/2019 07:54 11,2 C 9,4 C 12,8 C 11,7 C 11,1 C 74 % 1 lf 0 lf 18 cb 12 cb 10 cb 997,6 hPa 0,0 mm 0,0 km/h (0 Bft) E 88 0 min 0,000 mm 0,0 UV-I 58 W/m 6,7 C 11,2 C 0,0 km/h (0 Bft)
23/04/2019 07:52 11,2 C 9,4 C 12,8 C 11,7 C 11,1 C 74 % 3 lf 0 lf 18 cb 12 cb 10 cb 997,6 hPa 0,0 mm 0,0 km/h (0 Bft) E 88 0 min 0,000 mm 0,0 UV-I 54 W/m 6,7 C 11,2 C 0,0 km/h (0 Bft)
23/04/2019 07:50 11,1 C 9,4 C 12,8 C 11,7 C 11,1 C 74 % 4 lf 0 lf 18 cb 12 cb 10 cb 997,6 hPa 0,0 mm 0,0 km/h (0 Bft) E 88 0 min 0,000 mm 0,0 UV-I 53 W/m 6,6 C 11,1 C 0,0 km/h (0 Bft)
23/04/2019 07:48 11,1 C 9,4 C 12,8 C 11,7 C 11,1 C 73 % 8 lf 0 lf 18 cb 12 cb 10 cb 997,6 hPa 0,0 mm 0,0 km/h (0 Bft) E 88 0 min 0,000 mm 0,0 UV-I 51 W/m 6,4 C 11,1 C 0,0 km/h (0 Bft)
23/04/2019 07:46 11,1 C 9,4 C 12,8 C 11,7 C 11,1 C 74 % 10 lf 0 lf 18 cb 12 cb 10 cb 997,6 hPa 0,0 mm 0,0 km/h (0 Bft) E 88 0 min 0,000 mm 0,0 UV-I 47 W/m 6,6 C 11,1 C 0,0 km/h (0 Bft)
23/04/2019 07:44 11,1 C 9,4 C 12,8 C 11,7 C 11,1 C 74 % 12 lf 0 lf 18 cb 12 cb 10 cb 997,6 hPa 0,0 mm 0,0 km/h (0 Bft) E 88 0 min 0,000 mm 0,0 UV-I 46 W/m 6,6 C 11,1 C 0,0 km/h (0 Bft)
23/04/2019 07:42 11,1 C 9,4 C 12,8 C 11,7 C 11,1 C 74 % 12 lf 0 lf 18 cb 12 cb 10 cb 997,7 hPa 0,0 mm 0,0 km/h (0 Bft) E 88 0 min 0,000 mm 0,0 UV-I 44 W/m 6,6 C 11,1 C 0,0 km/h (0 Bft)
23/04/2019 07:40 11,1 C 9,4 C 12,8 C 11,7 C 11,1 C 74 % 13 lf 0 lf 18 cb 12 cb 10 cb 997,7 hPa 0,0 mm 0,0 km/h (0 Bft) E 88 0 min 0,000 mm 0,0 UV-I 40 W/m 6,6 C 11,1 C 0,0 km/h (0 Bft)
23/04/2019 07:38 11,0 C 9,4 C 12,8 C 11,7 C 11,1 C 73 % 13 lf 0 lf 18 cb 12 cb 10 cb 997,7 hPa 0,0 mm 0,0 km/h (0 Bft) E 88 0 min 0,000 mm 0,0 UV-I 39 W/m 6,4 C 11,0 C 0,0 km/h (0 Bft)
23/04/2019 07:36 11,0 C 8,9 C 12,8 C 11,7 C 11,1 C 74 % 14 lf 0 lf 18 cb 12 cb 10 cb 997,7 hPa 0,0 mm 0,0 km/h (0 Bft) E 88 0 min 0,000 mm 0,0 UV-I 37 W/m 6,5 C 11,0 C 0,0 km/h (0 Bft)
23/04/2019 07:34 11,0 C 8,9 C 12,8 C 11,7 C 11,1 C 73 % 14 lf 0 lf 18 cb 12 cb 10 cb 997,7 hPa 0,0 mm 0,0 km/h (0 Bft) E 88 0 min 0,000 mm 0,0 UV-I 35 W/m 6,4 C 11,0 C 0,0 km/h (0 Bft)
23/04/2019 07:32 11,0 C 8,9 C 12,8 C 11,7 C 11,1 C 73 % 14 lf 0 lf 18 cb 12 cb 10 cb 997,7 hPa 0,0 mm 0,0 km/h (0 Bft) E 88 0 min 0,000 mm 0,0 UV-I 33 W/m 6,4 C 11,0 C 0,0 km/h (0 Bft)
23/04/2019 07:30 11,0 C 8,9 C 12,8 C 11,7 C 11,1 C 73 % 14 lf 0 lf 18 cb 12 cb 10 cb 997,7 hPa 0,0 mm 0,0 km/h (0 Bft) E 88 0 min 0,000 mm 0,0 UV-I 32 W/m 6,4 C 11,0 C 0,0 km/h (0 Bft)
23/04/2019 07:28 11,0 C 8,9 C 12,8 C 11,7 C 11,1 C 73 % 14 lf 0 lf 18 cb 12 cb 10 cb 997,7 hPa 0,0 mm 0,0 km/h (0 Bft) E 88 0 min 0,000 mm 0,0 UV-I 28 W/m 6,4 C 11,0 C 0,0 km/h (0 Bft)
23/04/2019 07:26 11,0 C 8,9 C 12,8 C 11,7 C 11,1 C 73 % 15 lf 0 lf 18 cb 12 cb 10 cb 997,7 hPa 0,0 mm 0,0 km/h (0 Bft) E 88 0 min 0,000 mm 0,0 UV-I 28 W/m 6,4 C 11,0 C 0,0 km/h (0 Bft)
23/04/2019 07:24 11,1 C 8,9 C 12,8 C 11,7 C 11,1 C 72 % 15 lf 0 lf 18 cb 12 cb 10 cb 997,6 hPa 0,0 mm 0,0 km/h (0 Bft) E 88 0 min 0,000 mm 0,0 UV-I 26 W/m 6,2 C 11,1 C 0,0 km/h (0 Bft)
23/04/2019 07:22 11,1 C 8,9 C 12,8 C 11,7 C 11,1 C 72 % 15 lf 0 lf 18 cb 12 cb 10 cb 997,7 hPa 0,0 mm 0,0 km/h (0 Bft) E 88 0 min 0,000 mm 0,0 UV-I 25 W/m 6,2 C 11,1 C 0,0 km/h (0 Bft)
23/04/2019 07:20 11,1 C 8,9 C 13,3 C 11,7 C 11,1 C 72 % 15 lf 0 lf 18 cb 12 cb 10 cb 997,7 hPa 0,0 mm 0,0 km/h (0 Bft) E 88 0 min 0,000 mm 0,0 UV-I 23 W/m 6,2 C 11,1 C 0,0 km/h (0 Bft)
23/04/2019 07:18 11,1 C 8,9 C 13,3 C 11,7 C 11,1 C 72 % 15 lf 0 lf 18 cb 12 cb 10 cb 997,7 hPa 0,0 mm 0,0 km/h (0 Bft) E 88 0 min 0,000 mm 0,0 UV-I 21 W/m 6,2 C 11,1 C 0,0 km/h (0 Bft)
23/04/2019 07:16 11,1 C 8,9 C 13,3 C 11,7 C 11,1 C 72 % 15 lf 0 lf 18 cb 12 cb 10 cb 997,7 hPa 0,0 mm 0,0 km/h (0 Bft) E 88 0 min 0,000 mm 0,0 UV-I 19 W/m 6,2 C 11,1 C 0,0 km/h (0 Bft)
23/04/2019 07:14 11,1 C 8,9 C 13,3 C 11,7 C 11,1 C 72 % 15 lf 0 lf 18 cb 12 cb 10 cb 997,7 hPa 0,0 mm 0,0 km/h (0 Bft) E 88 0 min 0,000 mm 0,0 UV-I 18 W/m 6,2 C 11,1 C 0,0 km/h (0 Bft)
23/04/2019 07:12 11,1 C 8,9 C 13,3 C 11,7 C 11,1 C 72 % 15 lf 0 lf 18 cb 12 cb 10 cb 997,8 hPa 0,0 mm 0,0 km/h (0 Bft) E 88 0 min 0,000 mm 0,0 UV-I 16 W/m 6,2 C 11,1 C 0,0 km/h (0 Bft)
23/04/2019 07:10 11,1 C 8,9 C 13,3 C 11,7 C 11,1 C 72 % 15 lf 0 lf 18 cb 12 cb 10 cb 997,8 hPa 0,0 mm 0,0 km/h (0 Bft) E 88 0 min 0,000 mm 0,0 UV-I 14 W/m 6,2 C 11,1 C 0,0 km/h (0 Bft)
23/04/2019 07:08 11,1 C 8,9 C 13,3 C 11,7 C 11,1 C 72 % 15 lf 0 lf 18 cb 12 cb 10 cb 997,8 hPa 0,0 mm 0,0 km/h (0 Bft) E 88 0 min 0,000 mm 0,0 UV-I 14 W/m 6,2 C 11,1 C 0,0 km/h (0 Bft)
23/04/2019 07:06 11,1 C 8,9 C 13,3 C 11,7 C 11,1 C 72 % 15 lf 0 lf 18 cb 12 cb 10 cb 997,8 hPa 0,0 mm 0,0 km/h (0 Bft) E 88 0 min 0,000 mm 0,0 UV-I 12 W/m 6,2 C 11,1 C 0,0 km/h (0 Bft)
23/04/2019 07:04 11,1 C 8,9 C 13,3 C 11,7 C 11,1 C 72 % 15 lf 0 lf 18 cb 12 cb 10 cb 997,8 hPa 0,0 mm 0,0 km/h (0 Bft) E 88 0 min 0,000 mm 0,0 UV-I 11 W/m 6,2 C 11,1 C 0,0 km/h (0 Bft)
23/04/2019 07:02 11,1 C 8,9 C 13,3 C 11,7 C 11,1 C 72 % 15 lf 0 lf 18 cb 12 cb 10 cb 997,9 hPa 0,0 mm 0,0 km/h (0 Bft) E 88 0 min 0,000 mm 0,0 UV-I 11 W/m 6,2 C 11,1 C 0,0 km/h (0 Bft)
23/04/2019 07:00 11,1 C 8,9 C 13,3 C 11,7 C 11,1 C 72 % 15 lf 0 lf 18 cb 12 cb 10 cb 997,9 hPa 0,0 mm 0,0 km/h (0 Bft) E 88 0 min 0,000 mm 0,0 UV-I 9 W/m 6,2 C 11,1 C 0,0 km/h (0 Bft)
23/04/2019 06:58 11,0 C 8,9 C 13,3 C 11,7 C 11,1 C 72 % 15 lf 0 lf 18 cb 12 cb 10 cb 997,9 hPa 0,0 mm 0,0 km/h (0 Bft) E 88 0 min 0,000 mm 0,0 UV-I 7 W/m 6,2 C 11,0 C 0,0 km/h (0 Bft)
23/04/2019 06:56 10,9 C 8,9 C 13,3 C 11,7 C 11,1 C 73 % 15 lf 0 lf 18 cb 12 cb 10 cb 997,8 hPa 0,0 mm 0,0 km/h (0 Bft) E 88 0 min 0,000 mm 0,0 UV-I 7 W/m 6,3 C 10,9 C 0,0 km/h (0 Bft)
23/04/2019 06:54 10,9 C 8,9 C 13,3 C 11,7 C 11,1 C 73 % 15 lf 0 lf 18 cb 12 cb 10 cb 997,8 hPa 0,0 mm 0,0 km/h (0 Bft) E 88 0 min 0,000 mm 0,0 UV-I 5 W/m 6,3 C 10,9 C 0,0 km/h (0 Bft)
23/04/2019 06:52 10,9 C 8,3 C 13,3 C 11,7 C 11,1 C 73 % 15 lf 0 lf 18 cb 12 cb 10 cb 997,9 hPa 0,0 mm 0,0 km/h (0 Bft) E 88 0 min 0,000 mm 0,0 UV-I 5 W/m 6,3 C 10,9 C 0,0 km/h (0 Bft)
23/04/2019 06:50 10,9 C 8,3 C 13,3 C 11,7 C 11,1 C 73 % 15 lf 0 lf 18 cb 12 cb 10 cb 997,9 hPa 0,0 mm 0,0 km/h (0 Bft) E 88 0 min 0,000 mm 0,0 UV-I 5 W/m 6,3 C 10,9 C 0,0 km/h (0 Bft)
23/04/2019 06:48 10,9 C 8,3 C 13,3 C 11,7 C 11,1 C 73 % 15 lf 0 lf 18 cb 12 cb 10 cb 997,9 hPa 0,0 mm 0,0 km/h (0 Bft) E 88 0 min 0,000 mm 0,0 UV-I 0 W/m 6,3 C 10,9 C 0,0 km/h (0 Bft)
23/04/2019 06:46 10,9 C 8,3 C 13,3 C 11,7 C 11,1 C 73 % 15 lf 0 lf 18 cb 12 cb 10 cb 997,9 hPa 0,0 mm 0,0 km/h (0 Bft) E 88 0 min 0,000 mm 0,0 UV-I 0 W/m 6,3 C 10,9 C 0,0 km/h (0 Bft)
23/04/2019 06:44 11,0 C 8,3 C 13,3 C 11,7 C 11,1 C 73 % 15 lf 0 lf 18 cb 12 cb 10 cb 998,0 hPa 0,0 mm 0,0 km/h (0 Bft) E 88 0 min 0,000 mm 0,0 UV-I 0 W/m 6,4 C 11,0 C 0,0 km/h (0 Bft)
23/04/2019 06:42 10,9 C 8,3 C 13,3 C 11,7 C 11,1 C 73 % 15 lf 0 lf 18 cb 12 cb 10 cb 997,9 hPa 0,0 mm 0,0 km/h (0 Bft) E 88 0 min 0,000 mm 0,0 UV-I 0 W/m 6,3 C 10,9 C 0,0 km/h (0 Bft)
23/04/2019 06:40 10,9 C 8,9 C 13,3 C 11,7 C 11,1 C 73 % 15 lf 0 lf 18 cb 12 cb 10 cb 998,0 hPa 0,0 mm 0,0 km/h (0 Bft) E 88 0 min 0,000 mm 0,0 UV-I 0 W/m 6,3 C 10,9 C 0,0 km/h (0 Bft)
23/04/2019 06:38 10,9 C 8,3 C 13,3 C 11,7 C 11,1 C 73 % 15 lf 0 lf 18 cb 12 cb 10 cb 997,9 hPa 0,0 mm 0,0 km/h (0 Bft) E 88 0 min 0,000 mm 0,0 UV-I 0 W/m 6,3 C 10,9 C 0,0 km/h (0 Bft)
23/04/2019 06:36 10,8 C 8,3 C 13,3 C 11,7 C 11,1 C 73 % 15 lf 0 lf 18 cb 12 cb 10 cb 997,9 hPa 0,0 mm 0,0 km/h (0 Bft) E 88 0 min 0,000 mm 0,0 UV-I 0 W/m 6,2 C 10,8 C 0,0 km/h (0 Bft)
23/04/2019 06:34 10,8 C 8,3 C 13,3 C 11,7 C 11,1 C 73 % 15 lf 0 lf 18 cb 12 cb 10 cb 997,9 hPa 0,0 mm 0,0 km/h (0 Bft) E 88 0 min 0,000 mm 0,0 UV-I 0 W/m 6,2 C 10,8 C 0,0 km/h (0 Bft)
23/04/2019 06:32 10,8 C 8,3 C 13,3 C 11,7 C 11,1 C 73 % 15 lf 0 lf 18 cb 12 cb 10 cb 998,0 hPa 0,0 mm 0,0 km/h (0 Bft) E 88 0 min 0,000 mm 0,0 UV-I 0 W/m 6,2 C 10,8 C 0,0 km/h (0 Bft)
23/04/2019 06:30 10,8 C 8,3 C 13,3 C 11,7 C 11,1 C 73 % 15 lf 0 lf 18 cb 12 cb 10 cb 997,9 hPa 0,0 mm 0,0 km/h (0 Bft) E 88 0 min 0,000 mm 0,0 UV-I 0 W/m 6,2 C 10,8 C 0,0 km/h (0 Bft)
23/04/2019 06:28 10,8 C 8,3 C 13,3 C 11,7 C 11,1 C 73 % 15 lf 0 lf 18 cb 12 cb 10 cb 997,9 hPa 0,0 mm 0,0 km/h (0 Bft) E 88 0 min 0,000 mm 0,0 UV-I 0 W/m 6,2 C 10,8 C 0,0 km/h (0 Bft)
23/04/2019 06:26 10,9 C 8,3 C 13,3 C 11,7 C 11,1 C 73 % 15 lf 0 lf 18 cb 12 cb 10 cb 998,0 hPa 0,0 mm 0,0 km/h (0 Bft) E 88 0 min 0,000 mm 0,0 UV-I 0 W/m 6,3 C 10,9 C 0,0 km/h (0 Bft)
23/04/2019 06:24 10,8 C 8,3 C 13,3 C 11,7 C 11,1 C 73 % 15 lf 0 lf 18 cb 12 cb 10 cb 998,0 hPa 0,0 mm 0,0 km/h (0 Bft) E 88 0 min 0,000 mm 0,0 UV-I 0 W/m 6,2 C 10,8 C 0,0 km/h (0 Bft)
23/04/2019 06:22 10,8 C 8,3 C 13,3 C 11,7 C 11,1 C 74 % 15 lf 0 lf 18 cb 12 cb 10 cb 998,0 hPa 0,0 mm 0,0 km/h (0 Bft) E 88 0 min 0,000 mm 0,0 UV-I 0 W/m 6,4 C 10,8 C 0,0 km/h (0 Bft)
23/04/2019 06:20 10,8 C 8,3 C 13,3 C 11,7 C 11,1 C 74 % 15 lf 0 lf 18 cb 12 cb 10 cb 998,0 hPa 0,0 mm 0,0 km/h (0 Bft) E 88 0 min 0,000 mm 0,0 UV-I 0 W/m 6,4 C 10,8 C 0,0 km/h (0 Bft)
23/04/2019 06:18 10,8 C 8,3 C 13,3 C 11,7 C 11,1 C 74 % 15 lf 0 lf 18 cb 12 cb 10 cb 998,0 hPa 0,0 mm 0,0 km/h (0 Bft) E 88 0 min 0,000 mm 0,0 UV-I 0 W/m 6,4 C 10,8 C 0,0 km/h (0 Bft)
23/04/2019 06:16 10,8 C 8,3 C 13,3 C 11,7 C 11,1 C 74 % 15 lf 0 lf 18 cb 12 cb 10 cb 998,0 hPa 0,0 mm 0,0 km/h (0 Bft) E 88 0 min 0,000 mm 0,0 UV-I 0 W/m 6,4 C 10,8 C 0,0 km/h (0 Bft)
23/04/2019 06:14 10,8 C 8,3 C 13,3 C 11,7 C 11,1 C 74 % 15 lf 0 lf 18 cb 12 cb 10 cb 998,0 hPa 0,0 mm 0,0 km/h (0 Bft) E 88 0 min 0,000 mm 0,0 UV-I 0 W/m 6,4 C 10,8 C 1,6 km/h (1 Bft)
23/04/2019 06:12 10,8 C 8,3 C 13,3 C 11,7 C 11,1 C 74 % 15 lf 0 lf 18 cb 12 cb 10 cb 998,0 hPa 0,0 mm 0,3 km/h (0 Bft) E 88 0 min 0,000 mm 0,0 UV-I 0 W/m 6,4 C 10,8 C 3,2 km/h (1 Bft)
23/04/2019 06:10 10,8 C 8,3 C 13,3 C 11,7 C 11,1 C 74 % 15 lf 0 lf 18 cb 12 cb 10 cb 998,0 hPa 0,0 mm 0,0 km/h (0 Bft) E 88 0 min 0,000 mm 0,0 UV-I 0 W/m 6,4 C 10,8 C 0,0 km/h (0 Bft)
23/04/2019 06:08 10,8 C 8,9 C 13,3 C 11,7 C 11,1 C 74 % 15 lf 0 lf 18 cb 12 cb 10 cb 998,0 hPa 0,0 mm 0,0 km/h (0 Bft) E 88 0 min 0,000 mm 0,0 UV-I 0 W/m 6,4 C 10,8 C 0,0 km/h (0 Bft)
23/04/2019 06:06 10,8 C 8,9 C 13,3 C 11,7 C 11,1 C 73 % 15 lf 0 lf 18 cb 12 cb 10 cb 998,0 hPa 0,0 mm 0,0 km/h (0 Bft) E 88 0 min 0,000 mm 0,0 UV-I 0 W/m 6,2 C 10,8 C 1,6 km/h (1 Bft)
23/04/2019 06:04 10,8 C 8,9 C 13,3 C 11,7 C 11,1 C 74 % 15 lf 0 lf 18 cb 12 cb 10 cb 998,0 hPa 0,0 mm 0,1 km/h (0 Bft) E 88 0 min 0,000 mm 0,0 UV-I 0 W/m 6,4 C 10,8 C 3,2 km/h (1 Bft)
23/04/2019 06:02 10,8 C 8,9 C 13,3 C 11,7 C 11,1 C 74 % 15 lf 0 lf 18 cb 12 cb 10 cb 998,0 hPa 0,0 mm 0,2 km/h (0 Bft) E 88 0 min 0,000 mm 0,0 UV-I 0 W/m 6,4 C 10,8 C 3,2 km/h (1 Bft)
23/04/2019 06:00 10,8 C 8,9 C 13,3 C 11,7 C 11,1 C 74 % 15 lf 0 lf 18 cb 12 cb 10 cb 998,0 hPa 0,0 mm 0,0 km/h (0 Bft) E 88 0 min 0,026 mm 0,0 UV-I 0 W/m 6,4 C 10,8 C 0,0 km/h (0 Bft)
23/04/2019 05:58 10,8 C 8,9 C 13,3 C 11,7 C 11,1 C 74 % 15 lf 0 lf 18 cb 12 cb 10 cb 997,9 hPa 0,0 mm 0,0 km/h (0 Bft) E 88 0 min 0,000 mm 0,0 UV-I 0 W/m 6,4 C 10,8 C 0,0 km/h (0 Bft)
23/04/2019 05:56 10,7 C 8,9 C 13,3 C 11,7 C 11,1 C 74 % 15 lf 0 lf 18 cb 12 cb 10 cb 998,0 hPa 0,0 mm 0,0 km/h (0 Bft) E 88 0 min 0,000 mm 0,0 UV-I 0 W/m 6,3 C 10,7 C 0,0 km/h (0 Bft)
23/04/2019 05:54 10,7 C 8,9 C 13,3 C 11,7 C 11,1 C 74 % 15 lf 0 lf 18 cb 12 cb 10 cb 997,9 hPa 0,0 mm 0,0 km/h (0 Bft) E 88 0 min 0,000 mm 0,0 UV-I 0 W/m 6,3 C 10,7 C 0,0 km/h (0 Bft)
23/04/2019 05:52 10,7 C 8,9 C 13,3 C 11,7 C 11,1 C 74 % 15 lf 0 lf 18 cb 12 cb 10 cb 997,9 hPa 0,0 mm 0,0 km/h (0 Bft) E 88 0 min 0,000 mm 0,0 UV-I 0 W/m 6,3 C 10,7 C 0,0 km/h (0 Bft)
23/04/2019 05:50 10,8 C 8,9 C 13,3 C 11,7 C 11,1 C 74 % 15 lf 0 lf 18 cb 12 cb 10 cb 997,9 hPa 0,0 mm 0,0 km/h (0 Bft) E 88 0 min 0,000 mm 0,0 UV-I 0 W/m 6,4 C 10,8 C 0,0 km/h (0 Bft)
23/04/2019 05:48 10,8 C 8,9 C 13,3 C 11,7 C 11,1 C 74 % 15 lf 0 lf 18 cb 12 cb 10 cb 997,9 hPa 0,0 mm 0,0 km/h (0 Bft) E 88 0 min 0,000 mm 0,0 UV-I 0 W/m 6,4 C 10,8 C 0,0 km/h (0 Bft)
23/04/2019 05:46 10,8 C 8,9 C 13,3 C 11,7 C 11,1 C 73 % 15 lf 0 lf 18 cb 12 cb 10 cb 998,0 hPa 0,0 mm 0,0 km/h (0 Bft) E 88 0 min 0,000 mm 0,0 UV-I 0 W/m 6,2 C 10,8 C 0,0 km/h (0 Bft)
23/04/2019 05:44 10,8 C 8,9 C 13,3 C 11,7 C 11,1 C 73 % 15 lf 0 lf 18 cb 12 cb 10 cb 998,0 hPa 0,0 mm 0,0 km/h (0 Bft) E 88 0 min 0,000 mm 0,0 UV-I 0 W/m 6,2 C 10,8 C 0,0 km/h (0 Bft)
23/04/2019 05:42 10,9 C 8,9 C 13,3 C 11,7 C 11,1 C 73 % 15 lf 0 lf 18 cb 12 cb 10 cb 998,0 hPa 0,0 mm 0,0 km/h (0 Bft) E 88 0 min 0,000 mm 0,0 UV-I 0 W/m 6,3 C 10,9 C 0,0 km/h (0 Bft)
23/04/2019 05:40 10,9 C 8,9 C 13,3 C 11,7 C 11,1 C 73 % 15 lf 0 lf 18 cb 12 cb 10 cb 998,0 hPa 0,0 mm 0,0 km/h (0 Bft) E 88 0 min 0,000 mm 0,0 UV-I 0 W/m 6,3 C 10,9 C 0,0 km/h (0 Bft)
23/04/2019 05:38 11,0 C 8,9 C 13,3 C 11,7 C 11,1 C 73 % 15 lf 0 lf 18 cb 12 cb 10 cb 998,0 hPa 0,0 mm 0,0 km/h (0 Bft) E 88 0 min 0,000 mm 0,0 UV-I 0 W/m 6,4 C 11,0 C 0,0 km/h (0 Bft)
23/04/2019 05:36 11,0 C 8,9 C 13,3 C 11,7 C 11,1 C 72 % 15 lf 0 lf 18 cb 12 cb 10 cb 998,0 hPa 0,0 mm 0,0 km/h (0 Bft) E 88 0 min 0,000 mm 0,0 UV-I 0 W/m 6,2 C 11,0 C 0,0 km/h (0 Bft)
23/04/2019 05:34 11,0 C 8,9 C 13,3 C 11,7 C 11,1 C 73 % 15 lf 0 lf 18 cb 12 cb 10 cb 998,0 hPa 0,0 mm 0,0 km/h (0 Bft) E 88 0 min 0,000 mm 0,0 UV-I 0 W/m 6,4 C 11,0 C 0,0 km/h (0 Bft)
23/04/2019 05:32 10,9 C 8,9 C 13,3 C 11,7 C 11,1 C 73 % 15 lf 0 lf 18 cb 12 cb 10 cb 998,1 hPa 0,0 mm 0,0 km/h (0 Bft) E 88 0 min 0,000 mm 0,0 UV-I 0 W/m 6,3 C 10,9 C 0,0 km/h (0 Bft)
23/04/2019 05:30 10,9 C 8,9 C 13,3 C 11,7 C 11,1 C 73 % 15 lf 0 lf 18 cb 12 cb 10 cb 998,1 hPa 0,0 mm 0,0 km/h (0 Bft) E 88 0 min 0,000 mm 0,0 UV-I 0 W/m 6,3 C 10,9 C 0,0 km/h (0 Bft)
23/04/2019 05:28 10,9 C 8,9 C 13,3 C 11,7 C 11,1 C 73 % 15 lf 0 lf 18 cb 12 cb 10 cb 998,1 hPa 0,0 mm 0,0 km/h (0 Bft) E 88 0 min 0,000 mm 0,0 UV-I 0 W/m 6,3 C 10,9 C 0,0 km/h (0 Bft)
23/04/2019 05:26 10,9 C 8,9 C 13,3 C 11,7 C 11,1 C 73 % 15 lf 0 lf 18 cb 12 cb 10 cb 998,1 hPa 0,0 mm 0,0 km/h (0 Bft) E 88 0 min 0,000 mm 0,0 UV-I 0 W/m 6,3 C 10,9 C 0,0 km/h (0 Bft)
23/04/2019 05:24 10,9 C 8,9 C 13,3 C 11,7 C 11,1 C 73 % 15 lf 0 lf 18 cb 12 cb 10 cb 998,1 hPa 0,0 mm 0,0 km/h (0 Bft) E 88 0 min 0,000 mm 0,0 UV-I 0 W/m 6,3 C 10,9 C 0,0 km/h (0 Bft)
23/04/2019 05:22 10,9 C 8,9 C 13,3 C 11,7 C 11,1 C 73 % 15 lf 0 lf 18 cb 12 cb 10 cb 998,1 hPa 0,0 mm 0,0 km/h (0 Bft) E 88 0 min 0,000 mm 0,0 UV-I 0 W/m 6,3 C 10,9 C 0,0 km/h (0 Bft)
23/04/2019 05:20 10,9 C 8,9 C 13,3 C 11,7 C 11,1 C 73 % 15 lf 0 lf 18 cb 12 cb 10 cb 998,2 hPa 0,0 mm 0,0 km/h (0 Bft) E 88 0 min 0,000 mm 0,0 UV-I 0 W/m 6,3 C 10,9 C 0,0 km/h (0 Bft)
23/04/2019 05:18 10,9 C 8,9 C 13,3 C 11,7 C 11,1 C 73 % 15 lf 0 lf 18 cb 12 cb 10 cb 998,1 hPa 0,0 mm 0,0 km/h (0 Bft) E 88 0 min 0,000 mm 0,0 UV-I 0 W/m 6,3 C 10,9 C 0,0 km/h (0 Bft)
23/04/2019 05:16 11,0 C 8,9 C 13,3 C 11,7 C 11,1 C 73 % 15 lf 0 lf 18 cb 12 cb 10 cb 998,1 hPa 0,0 mm 0,0 km/h (0 Bft) E 88 0 min 0,000 mm 0,0 UV-I 0 W/m 6,4 C 11,0 C 0,0 km/h (0 Bft)
23/04/2019 05:14 11,0 C 8,9 C 13,3 C 11,7 C 11,1 C 73 % 15 lf 0 lf 18 cb 12 cb 10 cb 998,2 hPa 0,0 mm 0,0 km/h (0 Bft) E 88 0 min 0,000 mm 0,0 UV-I 0 W/m 6,4 C 11,0 C 0,0 km/h (0 Bft)
23/04/2019 05:12 11,1 C 8,9 C 13,3 C 11,7 C 11,1 C 72 % 15 lf 0 lf 18 cb 12 cb 10 cb 998,2 hPa 0,0 mm 0,0 km/h (0 Bft) E 88 0 min 0,000 mm 0,0 UV-I 0 W/m 6,2 C 11,1 C 0,0 km/h (0 Bft)
23/04/2019 05:10 11,2 C 8,9 C 13,3 C 11,7 C 11,1 C 72 % 15 lf 0 lf 18 cb 12 cb 10 cb 998,2 hPa 0,0 mm 0,0 km/h (0 Bft) E 88 0 min 0,000 mm 0,0 UV-I 0 W/m 6,3 C 11,2 C 0,0 km/h (0 Bft)
23/04/2019 05:08 11,2 C 8,9 C 13,3 C 11,7 C 11,1 C 72 % 15 lf 0 lf 18 cb 12 cb 10 cb 998,2 hPa 0,0 mm 0,0 km/h (0 Bft) E 88 0 min 0,000 mm 0,0 UV-I 0 W/m 6,3 C 11,2 C 0,0 km/h (0 Bft)
23/04/2019 05:06 11,2 C 8,9 C 13,3 C 11,7 C 11,1 C 72 % 15 lf 0 lf 18 cb 12 cb 10 cb 998,2 hPa 0,0 mm 0,0 km/h (0 Bft) E 88 0 min 0,000 mm 0,0 UV-I 0 W/m 6,3 C 11,2 C 0,0 km/h (0 Bft)
23/04/2019 05:04 11,2 C 8,9 C 13,3 C 11,7 C 11,1 C 72 % 15 lf 0 lf 18 cb 12 cb 10 cb 998,3 hPa 0,0 mm 0,0 km/h (0 Bft) E 88 0 min 0,000 mm 0,0 UV-I 0 W/m 6,3 C 11,2 C 0,0 km/h (0 Bft)
23/04/2019 05:02 11,2 C 8,9 C 13,3 C 11,7 C 11,1 C 72 % 15 lf 0 lf 18 cb 12 cb 10 cb 998,3 hPa 0,0 mm 0,0 km/h (0 Bft) E 88 0 min 0,000 mm 0,0 UV-I 0 W/m 6,3 C 11,2 C 0,0 km/h (0 Bft)
23/04/2019 05:00 11,3 C 8,9 C 13,3 C 11,7 C 11,1 C 72 % 15 lf 0 lf 18 cb 12 cb 10 cb 998,3 hPa 0,0 mm 0,0 km/h (0 Bft) E 88 0 min 0,025 mm 0,0 UV-I 0 W/m 6,4 C 11,3 C 0,0 km/h (0 Bft)
23/04/2019 04:58 11,3 C 8,9 C 13,3 C 11,7 C 11,1 C 72 % 15 lf 0 lf 18 cb 12 cb 10 cb 998,3 hPa 0,0 mm 0,0 km/h (0 Bft) E 88 0 min 0,000 mm 0,0 UV-I 0 W/m 6,4 C 11,3 C 0,0 km/h (0 Bft)
23/04/2019 04:56 11,2 C 8,9 C 13,3 C 11,7 C 11,1 C 72 % 15 lf 0 lf 18 cb 12 cb 10 cb 998,3 hPa 0,0 mm 0,0 km/h (0 Bft) E 88 0 min 0,000 mm 0,0 UV-I 0 W/m 6,3 C 11,2 C 0,0 km/h (0 Bft)
23/04/2019 04:54 11,1 C 8,9 C 13,3 C 11,7 C 11,1 C 73 % 15 lf 0 lf 18 cb 12 cb 10 cb 998,4 hPa 0,0 mm 0,0 km/h (0 Bft) E 88 0 min 0,000 mm 0,0 UV-I 0 W/m 6,4 C 11,1 C 0,0 km/h (0 Bft)
23/04/2019 04:52 11,1 C 8,9 C 13,3 C 11,7 C 11,1 C 73 % 15 lf 0 lf 18 cb 12 cb 10 cb 998,3 hPa 0,0 mm 0,0 km/h (0 Bft) E 88 0 min 0,000 mm 0,0 UV-I 0 W/m 6,4 C 11,1 C 0,0 km/h (0 Bft)
23/04/2019 04:50 11,1 C 8,9 C 13,3 C 11,7 C 11,1 C 73 % 15 lf 0 lf 18 cb 12 cb 10 cb 998,4 hPa 0,0 mm 0,0 km/h (0 Bft) E 88 0 min 0,000 mm 0,0 UV-I 0 W/m 6,4 C 11,1 C 0,0 km/h (0 Bft)
23/04/2019 04:48 11,1 C 8,9 C 13,3 C 11,7 C 11,1 C 73 % 15 lf 0 lf 18 cb 12 cb 10 cb 998,3 hPa 0,0 mm 0,0 km/h (0 Bft) E 88 0 min 0,000 mm 0,0 UV-I 0 W/m 6,4 C 11,1 C 0,0 km/h (0 Bft)
23/04/2019 04:46 11,1 C 8,9 C 13,3 C 11,7 C 11,1 C 73 % 15 lf 0 lf 18 cb 12 cb 10 cb 998,4 hPa 0,0 mm 0,0 km/h (0 Bft) E 88 0 min 0,000 mm 0,0 UV-I 0 W/m 6,4 C 11,1 C 0,0 km/h (0 Bft)
23/04/2019 04:44 11,1 C 8,9 C 13,3 C 11,7 C 11,1 C 73 % 15 lf 0 lf 18 cb 12 cb 10 cb 998,5 hPa 0,0 mm 0,0 km/h (0 Bft) E 88 0 min 0,000 mm 0,0 UV-I 0 W/m 6,4 C 11,1 C 0,0 km/h (0 Bft)
23/04/2019 04:42 11,1 C 8,9 C 13,3 C 11,7 C 11,1 C 73 % 0 lf 0 lf 18 cb 12 cb 10 cb 998,4 hPa 0,0 mm 0,0 km/h (0 Bft) E 88 0 min 0,000 mm 0,0 UV-I 0 W/m 6,4 C 11,1 C 0,0 km/h (0 Bft)
23/04/2019 04:40 11,1 C 9,4 C 13,3 C 11,7 C 11,1 C 73 % 0 lf 0 lf 18 cb 12 cb 10 cb 998,5 hPa 0,0 mm 0,0 km/h (0 Bft) E 88 0 min 0,000 mm 0,0 UV-I 0 W/m 6,4 C 11,1 C 0,0 km/h (0 Bft)
23/04/2019 04:38 11,1 C 9,4 C 13,3 C 11,7 C 11,1 C 73 % 0 lf 0 lf 18 cb 12 cb 10 cb 998,4 hPa 0,0 mm 0,0 km/h (0 Bft) E 88 0 min 0,000 mm 0,0 UV-I 0 W/m 6,4 C 11,1 C 0,0 km/h (0 Bft)
23/04/2019 04:36 11,2 C 9,4 C 13,3 C 11,7 C 11,1 C 72 % 0 lf 0 lf 18 cb 12 cb 10 cb 998,4 hPa 0,0 mm 0,0 km/h (0 Bft) E 88 0 min 0,000 mm 0,0 UV-I 0 W/m 6,3 C 11,2 C 0,0 km/h (0 Bft)
23/04/2019 04:34 11,2 C 9,4 C 13,3 C 11,7 C 11,1 C 72 % 0 lf 0 lf 18 cb 12 cb 10 cb 998,5 hPa 0,0 mm 0,0 km/h (0 Bft) E 88 0 min 0,000 mm 0,0 UV-I 0 W/m 6,3 C 11,2 C 0,0 km/h (0 Bft)
23/04/2019 04:32 11,2 C 9,4 C 13,3 C 11,7 C 11,1 C 72 % 0 lf 0 lf 18 cb 12 cb 10 cb 998,5 hPa 0,0 mm 0,0 km/h (0 Bft) E 88 0 min 0,000 mm 0,0 UV-I 0 W/m 6,3 C 11,2 C 0,0 km/h (0 Bft)
23/04/2019 04:30 11,3 C 9,4 C 13,3 C 11,7 C 11,1 C 72 % 0 lf 0 lf 18 cb 12 cb 10 cb 998,5 hPa 0,0 mm 0,0 km/h (0 Bft) E 88 0 min 0,000 mm 0,0 UV-I 0 W/m 6,4 C 11,3 C 0,0 km/h (0 Bft)
23/04/2019 04:28 11,3 C 9,4 C 13,3 C 11,7 C 11,1 C 72 % 0 lf 0 lf 18 cb 12 cb 10 cb 998,5 hPa 0,0 mm 0,0 km/h (0 Bft) E 88 0 min 0,000 mm 0,0 UV-I 0 W/m 6,4 C 11,3 C 0,0 km/h (0 Bft)
23/04/2019 04:26 11,3 C 9,4 C 13,3 C 11,7 C 11,1 C 72 % 0 lf 0 lf 18 cb 12 cb 10 cb 998,6 hPa 0,0 mm 0,0 km/h (0 Bft) E 88 0 min 0,000 mm 0,0 UV-I 0 W/m 6,4 C 11,3 C 0,0 km/h (0 Bft)
23/04/2019 04:24 11,3 C 9,4 C 13,3 C 11,7 C 11,1 C 71 % 0 lf 0 lf 18 cb 12 cb 10 cb 998,6 hPa 0,0 mm 0,0 km/h (0 Bft) E 88 0 min 0,000 mm 0,0 UV-I 0 W/m 6,2 C 11,3 C 0,0 km/h (0 Bft)
23/04/2019 04:22 11,4 C 9,4 C 13,3 C 11,7 C 11,1 C 71 % 0 lf 0 lf 18 cb 12 cb 10 cb 998,6 hPa 0,0 mm 0,0 km/h (0 Bft) E 88 0 min 0,000 mm 0,0 UV-I 0 W/m 6,3 C 11,4 C 0,0 km/h (0 Bft)
23/04/2019 04:20 11,4 C 9,4 C 13,3 C 11,7 C 11,1 C 71 % 0 lf 0 lf 18 cb 12 cb 10 cb 998,6 hPa 0,0 mm 0,0 km/h (0 Bft) E 88 0 min 0,000 mm 0,0 UV-I 0 W/m 6,3 C 11,4 C 0,0 km/h (0 Bft)
23/04/2019 04:18 11,5 C 9,4 C 13,3 C 11,7 C 11,1 C 71 % 0 lf 0 lf 18 cb 12 cb 10 cb 998,7 hPa 0,0 mm 0,0 km/h (0 Bft) E 88 0 min 0,000 mm 0,0 UV-I 0 W/m 6,4 C 11,5 C 0,0 km/h (0 Bft)
23/04/2019 04:16 11,4 C 9,4 C 13,3 C 11,7 C 11,1 C 71 % 0 lf 0 lf 18 cb 12 cb 10 cb 998,7 hPa 0,0 mm 0,0 km/h (0 Bft) E 88 0 min 0,000 mm 0,0 UV-I 0 W/m 6,3 C 11,4 C 0,0 km/h (0 Bft)
23/04/2019 04:14 11,4 C 9,4 C 13,3 C 11,7 C 11,1 C 71 % 0 lf 0 lf 18 cb 12 cb 10 cb 998,7 hPa 0,0 mm 0,0 km/h (0 Bft) E 88 0 min 0,000 mm 0,0 UV-I 0 W/m 6,3 C 11,4 C 0,0 km/h (0 Bft)
23/04/2019 04:12 11,5 C 9,4 C 13,3 C 11,7 C 11,1 C 71 % 0 lf 0 lf 18 cb 12 cb 10 cb 998,7 hPa 0,0 mm 0,0 km/h (0 Bft) E 88 0 min 0,000 mm 0,0 UV-I 0 W/m 6,4 C 11,5 C 0,0 km/h (0 Bft)
23/04/2019 04:10 11,5 C 9,4 C 13,3 C 11,7 C 11,1 C 71 % 0 lf 0 lf 18 cb 12 cb 10 cb 998,7 hPa 0,0 mm 0,0 km/h (0 Bft) E 88 0 min 0,000 mm 0,0 UV-I 0 W/m 6,4 C 11,5 C 0,0 km/h (0 Bft)
23/04/2019 04:08 11,5 C 9,4 C 13,3 C 11,7 C 11,1 C 71 % 0 lf 0 lf 18 cb 12 cb 10 cb 998,7 hPa 0,0 mm 0,0 km/h (0 Bft) E 88 0 min 0,000 mm 0,0 UV-I 0 W/m 6,4 C 11,5 C 0,0 km/h (0 Bft)
23/04/2019 04:06 11,6 C 9,4 C 13,3 C 11,7 C 11,1 C 71 % 0 lf 0 lf 18 cb 12 cb 10 cb 998,7 hPa 0,0 mm 0,0 km/h (0 Bft) E 88 0 min 0,000 mm 0,0 UV-I 0 W/m 6,5 C 11,6 C 0,0 km/h (0 Bft)
23/04/2019 04:04 11,6 C 9,4 C 13,3 C 11,7 C 11,1 C 71 % 0 lf 0 lf 18 cb 12 cb 10 cb 998,8 hPa 0,0 mm 0,0 km/h (0 Bft) E 88 0 min 0,000 mm 0,0 UV-I 0 W/m 6,5 C 11,6 C 0,0 km/h (0 Bft)
23/04/2019 04:02 11,6 C 9,4 C 13,3 C 11,7 C 11,1 C 70 % 0 lf 0 lf 18 cb 12 cb 10 cb 998,8 hPa 0,0 mm 0,0 km/h (0 Bft) E 88 0 min 0,000 mm 0,0 UV-I 0 W/m 6,3 C 11,6 C 0,0 km/h (0 Bft)
23/04/2019 04:00 11,7 C 9,4 C 13,3 C 11,7 C 11,1 C 70 % 0 lf 0 lf 18 cb 12 cb 10 cb 998,8 hPa 0,0 mm 0,0 km/h (0 Bft) E 88 0 min 0,025 mm 0,0 UV-I 0 W/m 6,4 C 11,7 C 0,0 km/h (0 Bft)
23/04/2019 03:58 11,8 C 9,4 C 13,3 C 11,7 C 11,1 C 69 % 0 lf 0 lf 18 cb 12 cb 10 cb 998,8 hPa 0,0 mm 0,0 km/h (0 Bft) E 88 0 min 0,000 mm 0,0 UV-I 0 W/m 6,3 C 11,8 C 0,0 km/h (0 Bft)
23/04/2019 03:56 11,8 C 9,4 C 13,3 C 11,7 C 11,1 C 69 % 0 lf 0 lf 18 cb 12 cb 10 cb 998,8 hPa 0,0 mm 0,0 km/h (0 Bft) E 88 0 min 0,000 mm 0,0 UV-I 0 W/m 6,3 C 11,8 C 0,0 km/h (0 Bft)
23/04/2019 03:54 11,8 C 9,4 C 13,3 C 11,7 C 11,1 C 69 % 0 lf 0 lf 18 cb 12 cb 10 cb 998,9 hPa 0,0 mm 0,0 km/h (0 Bft) E 88 0 min 0,000 mm 0,0 UV-I 0 W/m 6,3 C 11,8 C 0,0 km/h (0 Bft)
23/04/2019 03:52 11,9 C 9,4 C 13,3 C 11,7 C 11,1 C 68 % 0 lf 0 lf 18 cb 12 cb 10 cb 998,9 hPa 0,0 mm 0,0 km/h (0 Bft) E 88 0 min 0,000 mm 0,0 UV-I 0 W/m 6,2 C 11,9 C 0,0 km/h (0 Bft)
23/04/2019 03:50 11,9 C 9,4 C 13,3 C 11,7 C 11,1 C 68 % 0 lf 0 lf 18 cb 12 cb 10 cb 998,9 hPa 0,0 mm 0,0 km/h (0 Bft) E 88 0 min 0,000 mm 0,0 UV-I 0 W/m 6,2 C 11,9 C 0,0 km/h (0 Bft)
23/04/2019 03:48 11,9 C 9,4 C 13,3 C 11,7 C 11,1 C 69 % 0 lf 0 lf 18 cb 12 cb 10 cb 998,9 hPa 0,0 mm 0,0 km/h (0 Bft) E 88 0 min 0,000 mm 0,0 UV-I 0 W/m 6,4 C 11,9 C 0,0 km/h (0 Bft)
23/04/2019 03:46 11,8 C 9,4 C 13,3 C 11,7 C 11,1 C 69 % 0 lf 0 lf 18 cb 12 cb 10 cb 998,9 hPa 0,0 mm 0,0 km/h (0 Bft) E 88 0 min 0,000 mm 0,0 UV-I 0 W/m 6,3 C 11,8 C 0,0 km/h (0 Bft)
23/04/2019 03:44 11,8 C 9,4 C 13,3 C 11,7 C 11,1 C 69 % 0 lf 0 lf 18 cb 12 cb 10 cb 999,0 hPa 0,0 mm 0,0 km/h (0 Bft) E 88 0 min 0,000 mm 0,0 UV-I 0 W/m 6,3 C 11,8 C 0,0 km/h (0 Bft)
23/04/2019 03:42 11,9 C 9,4 C 13,3 C 11,7 C 11,1 C 69 % 0 lf 0 lf 18 cb 12 cb 10 cb 999,0 hPa 0,0 mm 0,0 km/h (0 Bft) E 88 0 min 0,000 mm 0,0 UV-I 0 W/m 6,4 C 11,9 C 0,0 km/h (0 Bft)
23/04/2019 03:40 11,9 C 9,4 C 13,3 C 11,7 C 11,1 C 69 % 0 lf 0 lf 18 cb 12 cb 10 cb 999,0 hPa 0,0 mm 0,0 km/h (0 Bft) E 88 0 min 0,000 mm 0,0 UV-I 0 W/m 6,4 C 11,9 C 0,0 km/h (0 Bft)
23/04/2019 03:38 11,9 C 9,4 C 13,3 C 11,7 C 11,1 C 69 % 0 lf 0 lf 18 cb 12 cb 10 cb 999,0 hPa 0,0 mm 0,0 km/h (0 Bft) E 88 0 min 0,000 mm 0,0 UV-I 0 W/m 6,4 C 11,9 C 0,0 km/h (0 Bft)
23/04/2019 03:36 12,0 C 10,0 C 13,3 C 11,7 C 11,1 C 69 % 0 lf 0 lf 18 cb 12 cb 10 cb 999,0 hPa 0,0 mm 0,0 km/h (0 Bft) E 88 0 min 0,000 mm 0,0 UV-I 0 W/m 6,5 C 12,0 C 0,0 km/h (0 Bft)
23/04/2019 03:34 12,1 C 10,0 C 13,3 C 11,7 C 11,1 C 68 % 0 lf 0 lf 18 cb 12 cb 10 cb 999,0 hPa 0,0 mm 0,0 km/h (0 Bft) E 88 0 min 0,000 mm 0,0 UV-I 0 W/m 6,4 C 12,1 C 0,0 km/h (0 Bft)
23/04/2019 03:32 12,2 C 10,0 C 13,3 C 11,7 C 11,1 C 67 % 0 lf 0 lf 18 cb 12 cb 10 cb 999,0 hPa 0,0 mm 0,0 km/h (0 Bft) E 88 0 min 0,000 mm 0,0 UV-I 0 W/m 6,3 C 12,2 C 0,0 km/h (0 Bft)
23/04/2019 03:30 12,3 C 10,0 C 13,3 C 11,7 C 11,1 C 67 % 0 lf 0 lf 18 cb 12 cb 10 cb 999,0 hPa 0,0 mm 0,0 km/h (0 Bft) E 88 0 min 0,000 mm 0,0 UV-I 0 W/m 6,4 C 12,3 C 0,0 km/h (0 Bft)
23/04/2019 03:28 12,3 C 10,0 C 13,3 C 11,7 C 11,1 C 66 % 0 lf 0 lf 18 cb 12 cb 10 cb 999,0 hPa 0,0 mm 0,0 km/h (0 Bft) E 88 0 min 0,000 mm 0,0 UV-I 0 W/m 6,1 C 12,3 C 0,0 km/h (0 Bft)
23/04/2019 03:26 12,4 C 10,0 C 13,3 C 11,7 C 11,1 C 66 % 0 lf 0 lf 18 cb 12 cb 10 cb 999,1 hPa 0,0 mm 0,0 km/h (0 Bft) E 88 0 min 0,000 mm 0,0 UV-I 0 W/m 6,2 C 12,4 C 0,0 km/h (0 Bft)
23/04/2019 03:24 12,4 C 10,0 C 13,3 C 11,7 C 11,1 C 66 % 0 lf 0 lf 18 cb 12 cb 10 cb 999,0 hPa 0,0 mm 0,0 km/h (0 Bft) E 88 0 min 0,000 mm 0,0 UV-I 0 W/m 6,2 C 12,4 C 0,0 km/h (0 Bft)
23/04/2019 03:22 12,5 C 10,0 C 13,3 C 11,7 C 11,1 C 66 % 0 lf 0 lf 18 cb 12 cb 10 cb 999,1 hPa 0,0 mm 0,0 km/h (0 Bft) E 88 0 min 0,000 mm 0,0 UV-I 0 W/m 6,3 C 12,5 C 0,0 km/h (0 Bft)
23/04/2019 03:20 12,4 C 10,0 C 13,3 C 11,7 C 11,1 C 66 % 0 lf 0 lf 18 cb 12 cb 10 cb 999,1 hPa 0,0 mm 0,0 km/h (0 Bft) E 88 0 min 0,000 mm 0,0 UV-I 0 W/m 6,2 C 12,4 C 0,0 km/h (0 Bft)
23/04/2019 03:18 12,4 C 10,0 C 13,3 C 11,7 C 11,1 C 66 % 0 lf 0 lf 18 cb 12 cb 10 cb 999,1 hPa 0,0 mm 0,0 km/h (0 Bft) E 88 0 min 0,000 mm 0,0 UV-I 0 W/m 6,2 C 12,4 C 0,0 km/h (0 Bft)
23/04/2019 03:16 12,4 C 10,0 C 13,3 C 11,7 C 11,1 C 66 % 0 lf 0 lf 18 cb 12 cb 10 cb 999,2 hPa 0,0 mm 0,0 km/h (0 Bft) E 88 0 min 0,000 mm 0,0 UV-I 0 W/m 6,2 C 12,4 C 0,0 km/h (0 Bft)
23/04/2019 03:14 12,4 C 10,0 C 13,3 C 11,7 C 11,1 C 67 % 0 lf 0 lf 18 cb 12 cb 10 cb 999,2 hPa 0,0 mm 0,0 km/h (0 Bft) E 88 0 min 0,000 mm 0,0 UV-I 0 W/m 6,4 C 12,4 C 0,0 km/h (0 Bft)
23/04/2019 03:12 12,4 C 10,0 C 13,3 C 11,7 C 11,1 C 66 % 0 lf 0 lf 18 cb 12 cb 10 cb 999,2 hPa 0,0 mm 0,0 km/h (0 Bft) E 88 0 min 0,000 mm 0,0 UV-I 0 W/m 6,2 C 12,4 C 0,0 km/h (0 Bft)
23/04/2019 03:10 12,4 C 10,0 C 13,3 C 11,7 C 11,1 C 67 % 0 lf 0 lf 18 cb 12 cb 10 cb 999,2 hPa 0,0 mm 0,0 km/h (0 Bft) E 88 0 min 0,000 mm 0,0 UV-I 0 W/m 6,4 C 12,4 C 0,0 km/h (0 Bft)
23/04/2019 03:08 12,4 C 10,0 C 13,3 C 11,7 C 11,1 C 66 % 0 lf 0 lf 18 cb 12 cb 10 cb 999,2 hPa 0,0 mm 0,0 km/h (0 Bft) E 88 0 min 0,000 mm 0,0 UV-I 0 W/m 6,2 C 12,4 C 0,0 km/h (0 Bft)
23/04/2019 03:06 12,4 C 10,0 C 13,3 C 11,7 C 11,1 C 67 % 0 lf 0 lf 18 cb 12 cb 10 cb 999,2 hPa 0,0 mm 0,0 km/h (0 Bft) E 88 0 min 0,000 mm 0,0 UV-I 0 W/m 6,4 C 12,4 C 0,0 km/h (0 Bft)
23/04/2019 03:04 12,4 C 10,0 C 13,3 C 11,7 C 11,1 C 66 % 0 lf 0 lf 18 cb 12 cb 10 cb 999,2 hPa 0,0 mm 0,0 km/h (0 Bft) E 88 0 min 0,000 mm 0,0 UV-I 0 W/m 6,2 C 12,4 C 0,0 km/h (0 Bft)
23/04/2019 03:02 12,4 C 10,0 C 13,3 C 11,7 C 11,1 C 67 % 0 lf 0 lf 18 cb 12 cb 10 cb 999,2 hPa 0,0 mm 0,0 km/h (0 Bft) E 88 0 min 0,000 mm 0,0 UV-I 0 W/m 6,4 C 12,4 C 0,0 km/h (0 Bft)
23/04/2019 03:00 12,4 C 10,0 C 13,3 C 11,7 C 11,1 C 67 % 0 lf 0 lf 18 cb 12 cb 10 cb 999,3 hPa 0,0 mm 0,0 km/h (0 Bft) E 88 0 min 0,026 mm 0,0 UV-I 0 W/m 6,4 C 12,4 C 0,0 km/h (0 Bft)
23/04/2019 02:58 12,4 C 10,0 C 13,3 C 11,7 C 11,1 C 67 % 0 lf 0 lf 18 cb 12 cb 10 cb 999,3 hPa 0,0 mm 0,0 km/h (0 Bft) E 88 0 min 0,000 mm 0,0 UV-I 0 W/m 6,4 C 12,4 C 0,0 km/h (0 Bft)
23/04/2019 02:56 12,5 C 10,0 C 13,3 C 11,7 C 11,1 C 67 % 0 lf 0 lf 18 cb 12 cb 10 cb 999,3 hPa 0,0 mm 0,0 km/h (0 Bft) E 88 0 min 0,000 mm 0,0 UV-I 0 W/m 6,5 C 12,5 C 0,0 km/h (0 Bft)
23/04/2019 02:54 12,6 C 10,0 C 13,3 C 11,7 C 11,1 C 66 % 0 lf 0 lf 18 cb 12 cb 10 cb 999,3 hPa 0,0 mm 0,0 km/h (0 Bft) E 88 0 min 0,000 mm 0,0 UV-I 0 W/m 6,4 C 12,6 C 0,0 km/h (0 Bft)
23/04/2019 02:52 12,6 C 10,0 C 13,3 C 11,7 C 11,1 C 66 % 0 lf 0 lf 18 cb 12 cb 10 cb 999,3 hPa 0,0 mm 0,0 km/h (0 Bft) E 88 0 min 0,000 mm 0,0 UV-I 0 W/m 6,4 C 12,6 C 0,0 km/h (0 Bft)
23/04/2019 02:50 12,6 C 10,0 C 13,3 C 11,7 C 11,1 C 66 % 0 lf 0 lf 18 cb 12 cb 10 cb 999,3 hPa 0,0 mm 0,0 km/h (0 Bft) E 88 0 min 0,000 mm 0,0 UV-I 0 W/m 6,4 C 12,6 C 0,0 km/h (0 Bft)
23/04/2019 02:48 12,7 C 10,0 C 13,3 C 11,7 C 11,1 C 66 % 0 lf 0 lf 18 cb 12 cb 10 cb 999,4 hPa 0,0 mm 0,0 km/h (0 Bft) E 88 0 min 0,000 mm 0,0 UV-I 0 W/m 6,5 C 12,7 C 0,0 km/h (0 Bft)
23/04/2019 02:46 12,7 C 10,6 C 13,3 C 11,7 C 11,1 C 65 % 0 lf 0 lf 18 cb 12 cb 10 cb 999,4 hPa 0,0 mm 0,0 km/h (0 Bft) E 88 0 min 0,000 mm 0,0 UV-I 0 W/m 6,3 C 12,7 C 0,0 km/h (0 Bft)
23/04/2019 02:44 12,8 C 10,0 C 13,3 C 11,7 C 11,1 C 65 % 0 lf 0 lf 18 cb 12 cb 10 cb 999,4 hPa 0,0 mm 0,0 km/h (0 Bft) E 88 0 min 0,000 mm 0,0 UV-I 0 W/m 6,4 C 12,8 C 0,0 km/h (0 Bft)
23/04/2019 02:42 12,8 C 10,6 C 13,3 C 11,7 C 11,1 C 65 % 0 lf 0 lf 18 cb 12 cb 10 cb 999,4 hPa 0,0 mm 0,0 km/h (0 Bft) E 88 0 min 0,000 mm 0,0 UV-I 0 W/m 6,4 C 12,8 C 0,0 km/h (0 Bft)
23/04/2019 02:40 12,8 C 10,6 C 13,3 C 11,7 C 11,1 C 65 % 0 lf 0 lf 18 cb 12 cb 10 cb 999,4 hPa 0,0 mm 0,0 km/h (0 Bft) E 88 0 min 0,000 mm 0,0 UV-I 0 W/m 6,4 C 12,8 C 0,0 km/h (0 Bft)
23/04/2019 02:38 12,8 C 10,6 C 13,3 C 11,7 C 11,1 C 65 % 0 lf 0 lf 18 cb 12 cb 10 cb 999,4 hPa 0,0 mm 0,0 km/h (0 Bft) E 88 0 min 0,000 mm 0,0 UV-I 0 W/m 6,4 C 12,8 C 0,0 km/h (0 Bft)
23/04/2019 02:36 12,8 C 10,6 C 13,3 C 11,7 C 11,1 C 65 % 0 lf 0 lf 18 cb 12 cb 10 cb 999,5 hPa 0,0 mm 0,0 km/h (0 Bft) E 88 0 min 0,000 mm 0,0 UV-I 0 W/m 6,4 C 12,8 C 0,0 km/h (0 Bft)
23/04/2019 02:34 12,9 C 10,6 C 13,3 C 11,7 C 11,1 C 64 % 0 lf 0 lf 18 cb 12 cb 10 cb 999,5 hPa 0,0 mm 0,0 km/h (0 Bft) E 88 0 min 0,000 mm 0,0 UV-I 0 W/m 6,3 C 12,9 C 0,0 km/h (0 Bft)
23/04/2019 02:32 13,0 C 10,6 C 13,3 C 11,7 C 11,1 C 64 % 0 lf 0 lf 18 cb 12 cb 10 cb 999,5 hPa 0,0 mm 0,0 km/h (0 Bft) E 88 0 min 0,000 mm 0,0 UV-I 0 W/m 6,4 C 13,0 C 0,0 km/h (0 Bft)
23/04/2019 02:30 13,1 C 10,6 C 13,3 C 11,7 C 11,1 C 63 % 0 lf 0 lf 18 cb 12 cb 10 cb 999,5 hPa 0,0 mm 0,0 km/h (0 Bft) E 88 0 min 0,000 mm 0,0 UV-I 0 W/m 6,2 C 13,1 C 0,0 km/h (0 Bft)
23/04/2019 02:28 13,1 C 10,6 C 13,3 C 11,7 C 11,1 C 64 % 0 lf 0 lf 18 cb 12 cb 10 cb 999,5 hPa 0,0 mm 0,0 km/h (0 Bft) E 88 0 min 0,000 mm 0,0 UV-I 0 W/m 6,4 C 13,1 C 0,0 km/h (0 Bft)
23/04/2019 02:26 13,2 C 10,6 C 13,3 C 11,7 C 11,1 C 63 % 0 lf 0 lf 18 cb 12 cb 10 cb 999,6 hPa 0,0 mm 0,0 km/h (0 Bft) E 88 0 min 0,000 mm 0,0 UV-I 0 W/m 6,3 C 13,2 C 0,0 km/h (0 Bft)
23/04/2019 02:24 13,2 C 10,6 C 13,3 C 11,7 C 11,1 C 63 % 0 lf 0 lf 18 cb 12 cb 10 cb 999,6 hPa 0,0 mm 0,0 km/h (0 Bft) E 88 0 min 0,000 mm 0,0 UV-I 0 W/m 6,3 C 13,2 C 0,0 km/h (0 Bft)
23/04/2019 02:22 13,3 C 10,6 C 13,3 C 11,7 C 11,1 C 62 % 0 lf 0 lf 18 cb 12 cb 10 cb 999,6 hPa 0,0 mm 0,0 km/h (0 Bft) E 88 0 min 0,000 mm 0,0 UV-I 0 W/m 6,2 C 13,3 C 0,0 km/h (0 Bft)
23/04/2019 02:20 13,4 C 10,6 C 13,3 C 11,7 C 11,1 C 62 % 0 lf 0 lf 17 cb 12 cb 10 cb 999,6 hPa 0,0 mm 0,0 km/h (0 Bft) E 88 0 min 0,000 mm 0,0 UV-I 0 W/m 6,3 C 13,4 C 0,0 km/h (0 Bft)
23/04/2019 02:18 13,5 C 10,6 C 13,3 C 11,7 C 11,1 C 61 % 0 lf 0 lf 17 cb 12 cb 10 cb 999,6 hPa 0,0 mm 0,0 km/h (0 Bft) E 88 0 min 0,000 mm 0,0 UV-I 0 W/m 6,1 C 13,5 C 0,0 km/h (0 Bft)
23/04/2019 02:16 13,6 C 10,6 C 13,3 C 11,7 C 11,1 C 60 % 0 lf 0 lf 17 cb 12 cb 10 cb 999,6 hPa 0,0 mm 0,0 km/h (0 Bft) E 88 0 min 0,000 mm 0,0 UV-I 0 W/m 6,0 C 13,6 C 0,0 km/h (0 Bft)
23/04/2019 02:14 13,7 C 10,6 C 13,3 C 11,7 C 11,1 C 60 % 0 lf 0 lf 18 cb 12 cb 10 cb 999,6 hPa 0,0 mm 0,0 km/h (0 Bft) E 88 0 min 0,000 mm 0,0 UV-I 0 W/m 6,1 C 13,7 C 0,0 km/h (0 Bft)
23/04/2019 02:12 13,8 C 10,6 C 13,3 C 11,7 C 11,1 C 60 % 0 lf 0 lf 18 cb 12 cb 10 cb 999,6 hPa 0,0 mm 0,0 km/h (0 Bft) E 88 0 min 0,000 mm 0,0 UV-I 0 W/m 6,2 C 13,8 C 0,0 km/h (0 Bft)
23/04/2019 02:10 13,9 C 10,6 C 13,3 C 11,7 C 11,1 C 59 % 0 lf 0 lf 18 cb 12 cb 10 cb 999,7 hPa 0,0 mm 0,0 km/h (0 Bft) E 88 0 min 0,000 mm 0,0 UV-I 0 W/m 6,0 C 13,9 C 0,0 km/h (0 Bft)
23/04/2019 02:08 13,9 C 10,6 C 13,3 C 11,7 C 11,1 C 59 % 0 lf 0 lf 18 cb 12 cb 10 cb 999,6 hPa 0,0 mm 0,0 km/h (0 Bft) E 88 0 min 0,000 mm 0,0 UV-I 0 W/m 6,0 C 13,9 C 0,0 km/h (0 Bft)
23/04/2019 02:06 14,0 C 10,6 C 13,3 C 11,7 C 11,1 C 58 % 0 lf 0 lf 18 cb 12 cb 10 cb 999,7 hPa 0,0 mm 0,0 km/h (0 Bft) E 88 0 min 0,000 mm 0,0 UV-I 0 W/m 5,9 C 14,0 C 0,0 km/h (0 Bft)
23/04/2019 02:04 14,1 C 10,6 C 13,3 C 11,7 C 11,1 C 58 % 0 lf 0 lf 18 cb 12 cb 10 cb 999,7 hPa 0,0 mm 0,0 km/h (0 Bft) E 88 0 min 0,000 mm 0,0 UV-I 0 W/m 6,0 C 14,1 C 1,6 km/h (1 Bft)
23/04/2019 02:02 14,0 C 10,6 C 13,3 C 11,7 C 11,1 C 58 % 0 lf 0 lf 18 cb 12 cb 10 cb 999,7 hPa 0,0 mm 0,0 km/h (0 Bft) E 88 0 min 0,000 mm 0,0 UV-I 0 W/m 5,9 C 14,0 C 0,0 km/h (0 Bft)
23/04/2019 02:00 14,1 C 10,6 C 13,3 C 11,7 C 11,1 C 58 % 0 lf 0 lf 18 cb 12 cb 10 cb 999,7 hPa 0,0 mm 1,5 km/h (1 Bft) E 88 0 min 0,051 mm 0,0 UV-I 0 W/m 6,0 C 14,1 C 4,8 km/h (1 Bft)
23/04/2019 01:58 14,1 C 11,1 C 13,3 C 11,7 C 11,1 C 58 % 0 lf 0 lf 18 cb 12 cb 10 cb 999,8 hPa 0,0 mm 1,2 km/h (1 Bft) E 88 0 min 0,000 mm 0,0 UV-I 0 W/m 6,0 C 14,1 C 3,2 km/h (1 Bft)
23/04/2019 01:56 14,1 C 11,1 C 13,3 C 11,7 C 11,1 C 58 % 0 lf 0 lf 18 cb 12 cb 10 cb 999,8 hPa 0,0 mm 2,4 km/h (1 Bft) E 88 0 min 0,000 mm 0,0 UV-I 0 W/m 6,0 C 14,1 C 4,8 km/h (1 Bft)
23/04/2019 01:54 14,2 C 11,1 C 13,3 C 11,7 C 11,1 C 58 % 0 lf 0 lf 18 cb 12 cb 10 cb 999,8 hPa 0,0 mm 4,1 km/h (1 Bft) E 88 0 min 0,000 mm 0,0 UV-I 0 W/m 6,1 C 14,2 C 6,4 km/h (2 Bft)
23/04/2019 01:52 14,2 C 11,1 C 13,3 C 11,7 C 11,1 C 58 % 0 lf 0 lf 18 cb 12 cb 10 cb 999,8 hPa 0,0 mm 3,7 km/h (1 Bft) E 86 0 min 0,000 mm 0,0 UV-I 0 W/m 6,1 C 14,2 C 6,4 km/h (2 Bft)
23/04/2019 01:50 14,3 C 11,1 C 13,3 C 11,7 C 11,1 C 57 % 0 lf 0 lf 18 cb 12 cb 10 cb 999,7 hPa 0,0 mm 1,4 km/h (1 Bft) E 80 0 min 0,000 mm 0,0 UV-I 0 W/m 5,9 C 14,3 C 4,8 km/h (1 Bft)
23/04/2019 01:48 14,3 C 11,1 C 13,3 C 11,7 C 11,1 C 57 % 0 lf 0 lf 18 cb 12 cb 10 cb 999,7 hPa 0,0 mm 0,8 km/h (0 Bft) E-NE 72 0 min 0,000 mm 0,0 UV-I 0 W/m 5,9 C 14,3 C 4,8 km/h (1 Bft)
23/04/2019 01:46 14,4 C 11,1 C 13,3 C 11,7 C 11,1 C 57 % 0 lf 0 lf 18 cb 12 cb 10 cb 999,7 hPa 0,0 mm 0,0 km/h (0 Bft) E-SE 104 0 min 0,000 mm 0,0 UV-I 0 W/m 6,0 C 14,4 C 1,6 km/h (1 Bft)
23/04/2019 01:44 14,4 C 11,1 C 13,3 C 11,7 C 11,1 C 57 % 0 lf 0 lf 18 cb 12 cb 10 cb 999,6 hPa 0,0 mm 0,4 km/h (0 Bft) E-SE 104 0 min 0,000 mm 0,0 UV-I 0 W/m 6,0 C 14,4 C 3,2 km/h (1 Bft)
23/04/2019 01:42 14,5 C 11,1 C 13,3 C 11,7 C 11,1 C 57 % 0 lf 0 lf 17 cb 12 cb 10 cb 999,6 hPa 0,0 mm 2,0 km/h (1 Bft) E-SE 104 0 min 0,000 mm 0,0 UV-I 0 W/m 6,1 C 14,5 C 6,4 km/h (2 Bft)
23/04/2019 01:40 14,6 C 11,1 C 13,3 C 11,7 C 11,1 C 57 % 0 lf 0 lf 17 cb 12 cb 10 cb 999,6 hPa 0,0 mm 0,8 km/h (0 Bft) E-SE 107 0 min 0,000 mm 0,0 UV-I 0 W/m 6,2 C 14,6 C 4,8 km/h (1 Bft)
23/04/2019 01:38 14,5 C 11,1 C 13,3 C 11,7 C 11,1 C 57 % 0 lf 0 lf 17 cb 12 cb 10 cb 999,6 hPa 0,0 mm 2,8 km/h (1 Bft) E 98 0 min 0,000 mm 0,0 UV-I 0 W/m 6,1 C 14,5 C 6,4 km/h (2 Bft)
23/04/2019 01:36 14,6 C 11,1 C 13,3 C 11,7 C 11,1 C 57 % 0 lf 0 lf 17 cb 12 cb 10 cb 999,6 hPa 0,0 mm 2,0 km/h (1 Bft) E-SE 104 0 min 0,000 mm 0,0 UV-I 0 W/m 6,2 C 14,6 C 4,8 km/h (1 Bft)
23/04/2019 01:34 14,6 C 11,1 C 13,3 C 11,7 C 11,1 C 56 % 0 lf 0 lf 17 cb 12 cb 10 cb 999,6 hPa 0,0 mm 2,4 km/h (1 Bft) E-SE 104 0 min 0,000 mm 0,0 UV-I 0 W/m 5,9 C 14,6 C 6,4 km/h (2 Bft)
23/04/2019 01:32 14,7 C 11,1 C 13,3 C 11,7 C 11,1 C 56 % 0 lf 0 lf 17 cb 12 cb 10 cb 999,6 hPa 0,0 mm 4,1 km/h (1 Bft) E-SE 109 0 min 0,000 mm 0,0 UV-I 0 W/m 6,0 C 14,7 C 6,4 km/h (2 Bft)
23/04/2019 01:30 14,7 C 11,1 C 13,3 C 11,7 C 11,1 C 55 % 0 lf 0 lf 17 cb 12 cb 10 cb 999,6 hPa 0,0 mm 4,0 km/h (1 Bft) E 82 0 min 0,000 mm 0,0 UV-I 0 W/m 5,8 C 14,7 C 8,0 km/h (2 Bft)
23/04/2019 01:28 14,7 C 11,1 C 13,3 C 11,7 C 11,1 C 56 % 0 lf 0 lf 17 cb 12 cb 10 cb 999,6 hPa 0,0 mm 3,3 km/h (1 Bft) E 89 0 min 0,000 mm 0,0 UV-I 0 W/m 6,0 C 14,7 C 6,4 km/h (2 Bft)
23/04/2019 01:26 14,7 C 11,1 C 13,3 C 11,7 C 11,1 C 56 % 0 lf 0 lf 17 cb 12 cb 10 cb 999,7 hPa 0,0 mm 1,0 km/h (0 Bft) E-NE 75 0 min 0,000 mm 0,0 UV-I 0 W/m 6,0 C 14,7 C 4,8 km/h (1 Bft)
23/04/2019 01:24 14,7 C 11,1 C 13,3 C 11,7 C 11,1 C 55 % 0 lf 0 lf 17 cb 12 cb 10 cb 999,6 hPa 0,0 mm 0,5 km/h (0 Bft) E-NE 74 0 min 0,000 mm 0,0 UV-I 0 W/m 5,8 C 14,7 C 3,2 km/h (1 Bft)
23/04/2019 01:22 14,7 C 11,1 C 13,3 C 11,7 C 11,1 C 55 % 0 lf 0 lf 17 cb 12 cb 10 cb 999,7 hPa 0,0 mm 2,4 km/h (1 Bft) E-NE 75 0 min 0,000 mm 0,0 UV-I 0 W/m 5,8 C 14,7 C 6,4 km/h (2 Bft)
23/04/2019 01:20 14,7 C 11,1 C 13,3 C 11,7 C 11,1 C 56 % 0 lf 0 lf 17 cb 12 cb 10 cb 999,7 hPa 0,0 mm 1,3 km/h (1 Bft) E 86 0 min 0,000 mm 0,0 UV-I 0 W/m 6,0 C 14,7 C 4,8 km/h (1 Bft)
23/04/2019 01:18 14,7 C 11,1 C 13,3 C 11,7 C 11,1 C 56 % 0 lf 0 lf 17 cb 12 cb 10 cb 999,7 hPa 0,0 mm 1,2 km/h (1 Bft) E 101 0 min 0,000 mm 0,0 UV-I 0 W/m 6,0 C 14,7 C 3,2 km/h (1 Bft)
23/04/2019 01:16 14,7 C 11,1 C 13,3 C 11,7 C 11,1 C 56 % 0 lf 0 lf 17 cb 12 cb 10 cb 999,7 hPa 0,0 mm 2,7 km/h (1 Bft) E 101 0 min 0,000 mm 0,0 UV-I 0 W/m 6,0 C 14,7 C 6,4 km/h (2 Bft)
23/04/2019 01:14 14,8 C 11,1 C 13,3 C 11,7 C 11,1 C 56 % 0 lf 0 lf 17 cb 12 cb 10 cb 999,7 hPa 0,0 mm 3,8 km/h (1 Bft) E-SE 102 0 min 0,000 mm 0,0 UV-I 0 W/m 6,1 C 14,8 C 6,4 km/h (2 Bft)
23/04/2019 01:12 14,8 C 11,1 C 12,8 C 11,7 C 11,1 C 56 % 0 lf 0 lf 17 cb 12 cb 10 cb 999,7 hPa 0,0 mm 3,1 km/h (1 Bft) E-SE 111 0 min 0,000 mm 0,0 UV-I 0 W/m 6,1 C 14,8 C 6,4 km/h (2 Bft)
23/04/2019 01:10 14,8 C 11,1 C 12,8 C 11,7 C 11,1 C 56 % 0 lf 0 lf 17 cb 12 cb 10 cb 999,7 hPa 0,0 mm 2,4 km/h (1 Bft) E-SE 113 0 min 0,000 mm 0,0 UV-I 0 W/m 6,1 C 14,8 C 4,8 km/h (1 Bft)
23/04/2019 01:08 14,7 C 11,1 C 12,8 C 11,7 C 11,1 C 56 % 0 lf 0 lf 17 cb 12 cb 10 cb 999,7 hPa 0,0 mm 3,0 km/h (1 Bft) E-SE 114 0 min 0,000 mm 0,0 UV-I 0 W/m 6,0 C 14,7 C 6,4 km/h (2 Bft)
23/04/2019 01:06 14,7 C 11,1 C 12,8 C 11,7 C 11,1 C 56 % 0 lf 0 lf 17 cb 12 cb 10 cb 999,7 hPa 0,0 mm 3,8 km/h (1 Bft) E-SE 102 0 min 0,000 mm 0,0 UV-I 0 W/m 6,0 C 14,7 C 8,0 km/h (2 Bft)
23/04/2019 01:04 14,5 C 11,1 C 12,8 C 11,7 C 11,1 C 57 % 0 lf 0 lf 17 cb 12 cb 10 cb 999,7 hPa 0,0 mm 4,7 km/h (1 Bft) E-SE 107 0 min 0,000 mm 0,0 UV-I 0 W/m 6,1 C 14,5 C 8,0 km/h (2 Bft)
23/04/2019 01:02 14,4 C 11,1 C 12,8 C 11,7 C 11,1 C 58 % 0 lf 0 lf 17 cb 12 cb 10 cb 999,7 hPa 0,0 mm 4,2 km/h (1 Bft) E 94 0 min 0,000 mm 0,0 UV-I 0 W/m 6,2 C 14,4 C 6,4 km/h (2 Bft)
23/04/2019 01:00 14,4 C 11,1 C 12,8 C 11,7 C 11,1 C 59 % 0 lf 0 lf 17 cb 12 cb 10 cb 999,7 hPa 0,0 mm 3,9 km/h (1 Bft) E 97 0 min 0,025 mm 0,0 UV-I 0 W/m 6,5 C 14,4 C 4,8 km/h (1 Bft)
23/04/2019 00:58 14,4 C 11,1 C 12,8 C 11,7 C 11,1 C 58 % 0 lf 0 lf 17 cb 12 cb 10 cb 999,7 hPa 0,0 mm 3,6 km/h (1 Bft) E 95 0 min 0,000 mm 0,0 UV-I 0 W/m 6,2 C 14,4 C 6,4 km/h (2 Bft)
23/04/2019 00:56 14,3 C 11,1 C 12,8 C 11,7 C 11,1 C 59 % 0 lf 0 lf 17 cb 12 cb 10 cb 999,7 hPa 0,0 mm 5,3 km/h (1 Bft) E 94 0 min 0,000 mm 0,0 UV-I 0 W/m 6,4 C 14,3 C 6,4 km/h (2 Bft)
23/04/2019 00:54 14,3 C 11,1 C 12,8 C 11,7 C 11,1 C 59 % 0 lf 0 lf 17 cb 12 cb 10 cb 999,7 hPa 0,0 mm 4,3 km/h (1 Bft) E 88 0 min 0,000 mm 0,0 UV-I 0 W/m 6,4 C 14,3 C 6,4 km/h (2 Bft)
23/04/2019 00:52 14,3 C 11,1 C 12,8 C 11,7 C 11,1 C 59 % 0 lf 0 lf 17 cb 12 cb 10 cb 999,8 hPa 0,0 mm 3,6 km/h (1 Bft) E 84 0 min 0,000 mm 0,0 UV-I 0 W/m 6,4 C 14,3 C 6,4 km/h (2 Bft)
23/04/2019 00:50 14,3 C 11,1 C 12,8 C 11,7 C 11,1 C 59 % 0 lf 0 lf 17 cb 12 cb 10 cb 999,8 hPa 0,0 mm 3,1 km/h (1 Bft) E 100 0 min 0,000 mm 0,0 UV-I 0 W/m 6,4 C 14,3 C 4,8 km/h (1 Bft)
23/04/2019 00:48 14,3 C 11,1 C 12,8 C 11,7 C 11,1 C 59 % 0 lf 0 lf 17 cb 12 cb 10 cb 999,9 hPa 0,0 mm 3,7 km/h (1 Bft) E 97 0 min 0,000 mm 0,0 UV-I 0 W/m 6,4 C 14,3 C 8,0 km/h (2 Bft)
23/04/2019 00:46 14,4 C 11,1 C 12,8 C 11,7 C 11,1 C 59 % 0 lf 0 lf 17 cb 12 cb 10 cb 999,9 hPa 0,0 mm 3,9 km/h (1 Bft) E 94 0 min 0,000 mm 0,0 UV-I 0 W/m 6,5 C 14,4 C 6,4 km/h (2 Bft)
23/04/2019 00:44 14,5 C 11,1 C 12,8 C 11,7 C 11,1 C 58 % 0 lf 0 lf 17 cb 12 cb 10 cb 999,8 hPa 0,0 mm 2,9 km/h (1 Bft) E 93 0 min 0,000 mm 0,0 UV-I 0 W/m 6,3 C 14,5 C 6,4 km/h (2 Bft)
23/04/2019 00:42 14,4 C 11,1 C 12,8 C 11,7 C 11,1 C 58 % 0 lf 0 lf 17 cb 12 cb 10 cb 999,8 hPa 0,0 mm 2,5 km/h (1 Bft) E 90 0 min 0,000 mm 0,0 UV-I 0 W/m 6,2 C 14,4 C 4,8 km/h (1 Bft)
23/04/2019 00:40 14,3 C 11,1 C 12,8 C 11,7 C 11,1 C 59 % 0 lf 0 lf 17 cb 12 cb 10 cb 999,8 hPa 0,0 mm 3,2 km/h (1 Bft) E 88 0 min 0,000 mm 0,0 UV-I 0 W/m 6,4 C 14,3 C 6,4 km/h (2 Bft)
23/04/2019 00:38 14,3 C 11,1 C 12,8 C 11,7 C 11,1 C 59 % 0 lf 0 lf 17 cb 12 cb 10 cb 999,8 hPa 0,0 mm 1,4 km/h (1 Bft) E 87 0 min 0,000 mm 0,0 UV-I 0 W/m 6,4 C 14,3 C 4,8 km/h (1 Bft)
23/04/2019 00:36 14,3 C 11,1 C 12,8 C 11,7 C 11,1 C 59 % 0 lf 0 lf 17 cb 12 cb 10 cb 999,8 hPa 0,0 mm 2,1 km/h (1 Bft) E 86 0 min 0,000 mm 0,0 UV-I 0 W/m 6,4 C 14,3 C 6,4 km/h (2 Bft)
23/04/2019 00:34 14,3 C 11,1 C 12,8 C 11,7 C 11,1 C 59 % 0 lf 0 lf 17 cb 12 cb 10 cb 999,8 hPa 0,0 mm 3,1 km/h (1 Bft) E 86 0 min 0,000 mm 0,0 UV-I 0 W/m 6,4 C 14,3 C 6,4 km/h (2 Bft)
23/04/2019 00:32 14,4 C 11,1 C 12,8 C 11,7 C 11,1 C 59 % 0 lf 0 lf 17 cb 12 cb 10 cb 999,9 hPa 0,0 mm 2,3 km/h (1 Bft) E 87 0 min 0,000 mm 0,0 UV-I 0 W/m 6,5 C 14,4 C 6,4 km/h (2 Bft)
23/04/2019 00:30 14,4 C 11,1 C 12,8 C 11,7 C 11,1 C 59 % 0 lf 0 lf 17 cb 12 cb 10 cb 1000,0 hPa 0,0 mm 2,0 km/h (1 Bft) E 86 0 min 0,000 mm 0,0 UV-I 0 W/m 6,5 C 14,4 C 4,8 km/h (1 Bft)
23/04/2019 00:28 14,3 C 11,1 C 12,8 C 11,7 C 11,1 C 59 % 0 lf 0 lf 17 cb 12 cb 10 cb 999,9 hPa 0,0 mm 1,4 km/h (1 Bft) E 84 0 min 0,000 mm 0,0 UV-I 0 W/m 6,4 C 14,3 C 4,8 km/h (1 Bft)
23/04/2019 00:26 14,3 C 11,1 C 12,8 C 11,7 C 11,1 C 60 % 0 lf 0 lf 17 cb 12 cb 10 cb 999,9 hPa 0,0 mm 0,5 km/h (0 Bft) E 84 0 min 0,000 mm 0,0 UV-I 0 W/m 6,6 C 14,3 C 3,2 km/h (1 Bft)
23/04/2019 00:24 14,3 C 11,1 C 12,8 C 11,7 C 11,1 C 60 % 0 lf 0 lf 17 cb 12 cb 10 cb 999,9 hPa 0,0 mm 1,6 km/h (1 Bft) E 83 0 min 0,000 mm 0,0 UV-I 0 W/m 6,6 C 14,3 C 4,8 km/h (1 Bft)
23/04/2019 00:22 14,2 C 11,1 C 12,8 C 11,7 C 11,1 C 60 % 0 lf 0 lf 17 cb 12 cb 10 cb 999,9 hPa 0,0 mm 1,0 km/h (0 Bft) E 79 0 min 0,000 mm 0,0 UV-I 0 W/m 6,5 C 14,2 C 4,8 km/h (1 Bft)
23/04/2019 00:20 14,3 C 11,1 C 12,8 C 11,7 C 11,1 C 60 % 0 lf 0 lf 17 cb 12 cb 10 cb 999,9 hPa 0,0 mm 0,9 km/h (0 Bft) E-NE 77 0 min 0,000 mm 0,0 UV-I 0 W/m 6,6 C 14,3 C 3,2 km/h (1 Bft)
23/04/2019 00:18 14,3 C 11,1 C 12,8 C 11,7 C 11,1 C 60 % 0 lf 0 lf 17 cb 12 cb 10 cb 999,9 hPa 0,0 mm 0,3 km/h (0 Bft) E-NE 75 0 min 0,000 mm 0,0 UV-I 0 W/m 6,6 C 14,3 C 4,8 km/h (1 Bft)
23/04/2019 00:16 14,3 C 11,1 C 12,8 C 11,7 C 11,1 C 60 % 0 lf 0 lf 17 cb 12 cb 10 cb 999,9 hPa 0,0 mm 0,5 km/h (0 Bft) E-NE 75 0 min 0,000 mm 0,0 UV-I 0 W/m 6,6 C 14,3 C 3,2 km/h (1 Bft)
23/04/2019 00:14 14,2 C 11,1 C 12,8 C 11,7 C 11,1 C 61 % 0 lf 0 lf 17 cb 12 cb 10 cb 999,9 hPa 0,0 mm 0,3 km/h (0 Bft) E-NE 71 0 min 0,000 mm 0,0 UV-I 0 W/m 6,8 C 14,2 C 3,2 km/h (1 Bft)
23/04/2019 00:12 14,3 C 11,1 C 12,8 C 11,7 C 11,1 C 61 % 0 lf 0 lf 17 cb 12 cb 10 cb 999,9 hPa 0,0 mm 1,0 km/h (0 Bft) E-NE 71 0 min 0,000 mm 0,0 UV-I 0 W/m 6,9 C 14,3 C 6,4 km/h (2 Bft)
23/04/2019 00:10 14,3 C 11,1 C 12,8 C 11,7 C 11,1 C 61 % 0 lf 0 lf 17 cb 12 cb 10 cb 1000,0 hPa 0,0 mm 0,3 km/h (0 Bft) E-NE 61 0 min 0,000 mm 0,0 UV-I 0 W/m 6,9 C 14,3 C 3,2 km/h (1 Bft)
23/04/2019 00:08 14,2 C 11,1 C 12,8 C 11,7 C 11,1 C 61 % 0 lf 0 lf 17 cb 12 cb 10 cb 1000,1 hPa 0,0 mm 0,0 km/h (0 Bft) E-NE 59 0 min 0,000 mm 0,0 UV-I 0 W/m 6,8 C 14,2 C 0,0 km/h (0 Bft)
23/04/2019 00:06 14,2 C 11,1 C 12,8 C 11,7 C 11,1 C 61 % 0 lf 0 lf 17 cb 12 cb 10 cb 1000,1 hPa 0,0 mm 0,0 km/h (0 Bft) E-NE 58 0 min 0,000 mm 0,0 UV-I 0 W/m 6,8 C 14,2 C 0,0 km/h (0 Bft)
23/04/2019 00:04 14,2 C 11,1 C 12,8 C 11,7 C 11,1 C 62 % 0 lf 0 lf 17 cb 12 cb 10 cb 1000,0 hPa 0,0 mm 0,1 km/h (0 Bft) E-NE 58 0 min 0,000 mm 0,0 UV-I 0 W/m 7,0 C 14,2 C 3,2 km/h (1 Bft)
23/04/2019 00:02 14,2 C 11,7 C 12,8 C 11,7 C 11,1 C 62 % 0 lf 0 lf 17 cb 12 cb 10 cb 1000,1 hPa 0,0 mm 0,0 km/h (0 Bft) E-NE 58 0 min 0,000 mm 0,0 UV-I 0 W/m 7,0 C 14,2 C 0,0 km/h (0 Bft)
23/04/2019 00:00 14,3 C 11,7 C 12,8 C 11,7 C 11,1 C 62 % 0 lf 0 lf 17 cb 12 cb 10 cb 1000,1 hPa 0,0 mm 0,0 km/h (0 Bft) E-NE 58 0 min 0,000 mm 0,0 UV-I 0 W/m 7,1 C 14,3 C 0,0 km/h (0 Bft)
22/04/2019 23:58 14,3 C 11,7 C 12,8 C 11,7 C 11,1 C 62 % 0 lf 0 lf 17 cb 12 cb 10 cb 1000,1 hPa 0,0 mm 0,0 km/h (0 Bft) E-NE 58 0 min 0,000 mm 0,0 UV-I 0 W/m 7,1 C 14,3 C 0,0 km/h (0 Bft)
22/04/2019 23:56 14,3 C 11,7 C 12,8 C 11,7 C 11,1 C 62 % 0 lf 0 lf 17 cb 12 cb 10 cb 1000,1 hPa 0,0 mm 0,0 km/h (0 Bft) E-NE 58 0 min 0,000 mm 0,0 UV-I 0 W/m 7,1 C 14,3 C 0,0 km/h (0 Bft)
22/04/2019 23:54 14,4 C 11,7 C 12,8 C 11,7 C 11,1 C 62 % 0 lf 0 lf 17 cb 12 cb 10 cb 1000,1 hPa 0,0 mm 0,0 km/h (0 Bft) E-NE 58 0 min 0,000 mm 0,0 UV-I 0 W/m 7,2 C 14,4 C 0,0 km/h (0 Bft)
22/04/2019 23:52 14,4 C 11,7 C 12,8 C 11,7 C 11,1 C 61 % 0 lf 0 lf 17 cb 12 cb 10 cb 1000,1 hPa 0,0 mm 0,0 km/h (0 Bft) E-NE 58 0 min 0,000 mm 0,0 UV-I 0 W/m 7,0 C 14,4 C 0,0 km/h (0 Bft)
22/04/2019 23:50 14,4 C 11,7 C 12,8 C 11,7 C 11,1 C 61 % 0 lf 0 lf 17 cb 12 cb 10 cb 1000,2 hPa 0,0 mm 0,2 km/h (0 Bft) E-NE 58 0 min 0,000 mm 0,0 UV-I 0 W/m 7,0 C 14,4 C 1,6 km/h (1 Bft)
22/04/2019 23:48 14,4 C 11,7 C 12,8 C 11,7 C 11,1 C 61 % 0 lf 0 lf 17 cb 12 cb 10 cb 1000,2 hPa 0,0 mm 0,1 km/h (0 Bft) E-NE 58 0 min 0,000 mm 0,0 UV-I 0 W/m 7,0 C 14,4 C 3,2 km/h (1 Bft)
22/04/2019 23:46 14,5 C 11,7 C 12,8 C 11,7 C 11,1 C 61 % 0 lf 0 lf 17 cb 12 cb 10 cb 1000,2 hPa 0,0 mm 0,0 km/h (0 Bft) E-NE 58 0 min 0,000 mm 0,0 UV-I 0 W/m 7,1 C 14,5 C 0,0 km/h (0 Bft)
22/04/2019 23:44 14,5 C 11,7 C 12,8 C 11,7 C 11,1 C 60 % 0 lf 0 lf 17 cb 12 cb 10 cb 1000,3 hPa 0,0 mm 0,0 km/h (0 Bft) E-NE 59 0 min 0,000 mm 0,0 UV-I 0 W/m 6,8 C 14,5 C 0,0 km/h (0 Bft)
22/04/2019 23:42 14,6 C 11,7 C 12,8 C 11,7 C 11,1 C 61 % 0 lf 0 lf 17 cb 12 cb 10 cb 1000,3 hPa 0,0 mm 0,1 km/h (0 Bft) E-NE 58 0 min 0,000 mm 0,0 UV-I 0 W/m 7,2 C 14,6 C 1,6 km/h (1 Bft)
22/04/2019 23:40 14,6 C 11,7 C 12,8 C 11,7 C 11,1 C 60 % 0 lf 0 lf 17 cb 12 cb 10 cb 1000,3 hPa 0,0 mm 0,0 km/h (0 Bft) E-NE 58 0 min 0,000 mm 0,0 UV-I 0 W/m 6,9 C 14,6 C 0,0 km/h (0 Bft)
22/04/2019 23:38 14,6 C 11,7 C 12,8 C 11,7 C 11,1 C 60 % 0 lf 0 lf 17 cb 12 cb 10 cb 1000,4 hPa 0,0 mm 0,0 km/h (0 Bft) E-NE 58 0 min 0,000 mm 0,0 UV-I 0 W/m 6,9 C 14,6 C 0,0 km/h (0 Bft)
22/04/2019 23:36 14,7 C 11,7 C 12,8 C 11,7 C 11,1 C 60 % 0 lf 0 lf 17 cb 12 cb 10 cb 1000,4 hPa 0,0 mm 0,0 km/h (0 Bft) E-NE 58 0 min 0,000 mm 0,0 UV-I 0 W/m 7,0 C 14,7 C 0,0 km/h (0 Bft)
22/04/2019 23:34 14,8 C 11,7 C 12,8 C 11,7 C 11,1 C 60 % 0 lf 0 lf 17 cb 12 cb 10 cb 1000,4 hPa 0,0 mm 0,0 km/h (0 Bft) E-NE 58 0 min 0,000 mm 0,0 UV-I 0 W/m 7,1 C 14,8 C 0,0 km/h (0 Bft)
22/04/2019 23:32 14,8 C 12,2 C 12,8 C 11,7 C 11,1 C 60 % 0 lf 0 lf 17 cb 12 cb 10 cb 1000,4 hPa 0,0 mm 0,0 km/h (0 Bft) E-NE 58 0 min 0,000 mm 0,0 UV-I 0 W/m 7,1 C 14,8 C 0,0 km/h (0 Bft)
22/04/2019 23:30 14,8 C 12,2 C 12,8 C 11,7 C 11,1 C 60 % 0 lf 0 lf 17 cb 12 cb 10 cb 1000,4 hPa 0,0 mm 0,0 km/h (0 Bft) E-NE 58 0 min 0,000 mm 0,0 UV-I 0 W/m 7,1 C 14,8 C 0,0 km/h (0 Bft)
22/04/2019 23:28 14,8 C 12,2 C 12,8 C 11,7 C 11,1 C 61 % 0 lf 0 lf 17 cb 12 cb 10 cb 1000,4 hPa 0,0 mm 0,0 km/h (0 Bft) E-NE 58 0 min 0,000 mm 0,0 UV-I 0 W/m 7,4 C 14,8 C 0,0 km/h (0 Bft)
22/04/2019 23:26 14,9 C 12,2 C 12,8 C 11,7 C 11,1 C 60 % 0 lf 0 lf 17 cb 12 cb 10 cb 1000,4 hPa 0,0 mm 0,0 km/h (0 Bft) E-NE 58 0 min 0,000 mm 0,0 UV-I 0 W/m 7,2 C 14,9 C 0,0 km/h (0 Bft)
22/04/2019 23:24 14,9 C 12,2 C 12,8 C 11,7 C 11,1 C 60 % 0 lf 0 lf 17 cb 12 cb 10 cb 1000,4 hPa 0,0 mm 0,0 km/h (0 Bft) E-NE 58 0 min 0,000 mm 0,0 UV-I 0 W/m 7,2 C 14,9 C 0,0 km/h (0 Bft)
22/04/2019 23:22 14,9 C 12,2 C 12,8 C 11,7 C 11,1 C 60 % 0 lf 0 lf 17 cb 12 cb 10 cb 1000,4 hPa 0,0 mm 0,0 km/h (0 Bft) E-NE 58 0 min 0,000 mm 0,0 UV-I 0 W/m 7,2 C 14,9 C 0,0 km/h (0 Bft)
22/04/2019 23:20 14,9 C 12,2 C 12,8 C 11,7 C 11,1 C 59 % 0 lf 0 lf 17 cb 12 cb 10 cb 1000,4 hPa 0,0 mm 0,0 km/h (0 Bft) E-NE 58 0 min 0,000 mm 0,0 UV-I 0 W/m 7,0 C 14,9 C 0,0 km/h (0 Bft)
22/04/2019 23:18 15,0 C 12,2 C 12,8 C 11,7 C 11,1 C 59 % 0 lf 0 lf 17 cb 12 cb 10 cb 1000,4 hPa 0,0 mm 0,0 km/h (0 Bft) E-NE 58 0 min 0,000 mm 0,0 UV-I 0 W/m 7,1 C 15,0 C 0,0 km/h (0 Bft)
22/04/2019 23:16 15,1 C 12,2 C 12,8 C 11,7 C 11,1 C 59 % 0 lf 0 lf 17 cb 12 cb 10 cb 1000,5 hPa 0,0 mm 0,0 km/h (0 Bft) E-NE 58 0 min 0,000 mm 0,0 UV-I 0 W/m 7,1 C 15,1 C 0,0 km/h (0 Bft)
22/04/2019 23:14 15,2 C 12,2 C 12,8 C 11,7 C 11,1 C 59 % 0 lf 0 lf 17 cb 12 cb 10 cb 1000,5 hPa 0,0 mm 0,0 km/h (0 Bft) E-NE 58 0 min 0,000 mm 0,0 UV-I 0 W/m 7,2 C 15,2 C 0,0 km/h (0 Bft)
22/04/2019 23:12 15,3 C 12,2 C 12,8 C 11,7 C 11,1 C 58 % 0 lf 0 lf 17 cb 12 cb 10 cb 1000,6 hPa 0,0 mm 0,0 km/h (0 Bft) E-NE 58 0 min 0,000 mm 0,0 UV-I 0 W/m 7,1 C 15,3 C 0,0 km/h (0 Bft)
22/04/2019 23:10 15,4 C 12,8 C 12,8 C 11,7 C 11,1 C 58 % 0 lf 0 lf 17 cb 12 cb 10 cb 1000,6 hPa 0,0 mm 0,0 km/h (0 Bft) E-NE 58 0 min 0,000 mm 0,0 UV-I 0 W/m 7,2 C 15,4 C 0,0 km/h (0 Bft)
22/04/2019 23:08 15,6 C 12,8 C 12,8 C 11,7 C 11,1 C 58 % 0 lf 0 lf 17 cb 12 cb 10 cb 1000,6 hPa 0,0 mm 0,0 km/h (0 Bft) E-NE 58 0 min 0,000 mm 0,0 UV-I 0 W/m 7,4 C 15,6 C 0,0 km/h (0 Bft)
22/04/2019 23:06 15,7 C 12,8 C 12,8 C 11,7 C 11,1 C 57 % 0 lf 0 lf 17 cb 12 cb 10 cb 1000,6 hPa 0,0 mm 0,0 km/h (0 Bft) E-NE 58 0 min 0,000 mm 0,0 UV-I 0 W/m 7,2 C 15,7 C 0,0 km/h (0 Bft)
22/04/2019 23:04 15,8 C 12,8 C 12,8 C 11,7 C 11,1 C 57 % 0 lf 0 lf 17 cb 12 cb 10 cb 1000,6 hPa 0,0 mm 0,0 km/h (0 Bft) E-NE 58 0 min 0,000 mm 0,0 UV-I 0 W/m 7,3 C 15,8 C 0,0 km/h (0 Bft)
22/04/2019 23:02 15,9 C 12,8 C 12,8 C 11,7 C 11,1 C 55 % 0 lf 0 lf 17 cb 12 cb 10 cb 1000,7 hPa 0,0 mm 0,0 km/h (0 Bft) E-NE 58 0 min 0,000 mm 0,0 UV-I 0 W/m 6,9 C 15,9 C 0,0 km/h (0 Bft)
22/04/2019 23:00 15,9 C 12,8 C 12,8 C 11,7 C 11,1 C 54 % 0 lf 0 lf 17 cb 12 cb 10 cb 1000,7 hPa 0,0 mm 0,0 km/h (0 Bft) E-NE 58 0 min 0,051 mm 0,0 UV-I 0 W/m 6,6 C 15,9 C 0,0 km/h (0 Bft)
22/04/2019 22:58 15,9 C 12,8 C 12,8 C 11,7 C 11,1 C 55 % 0 lf 0 lf 17 cb 12 cb 10 cb 1000,7 hPa 0,0 mm 0,3 km/h (0 Bft) E-NE 58 0 min 0,000 mm 0,0 UV-I 0 W/m 6,9 C 15,9 C 3,2 km/h (1 Bft)
22/04/2019 22:56 16,0 C 12,8 C 12,8 C 11,7 C 11,1 C 54 % 0 lf 0 lf 17 cb 12 cb 10 cb 1000,8 hPa 0,0 mm 0,1 km/h (0 Bft) E-NE 57 0 min 0,000 mm 0,0 UV-I 0 W/m 6,7 C 16,0 C 3,2 km/h (1 Bft)
22/04/2019 22:54 16,0 C 12,8 C 12,8 C 11,7 C 11,1 C 55 % 0 lf 0 lf 17 cb 12 cb 10 cb 1000,8 hPa 0,0 mm 0,4 km/h (0 Bft) E 88 0 min 0,000 mm 0,0 UV-I 0 W/m 7,0 C 16,0 C 1,6 km/h (1 Bft)
22/04/2019 22:52 16,1 C 12,8 C 12,8 C 11,7 C 11,1 C 54 % 0 lf 0 lf 17 cb 12 cb 10 cb 1000,8 hPa 0,0 mm 0,1 km/h (0 Bft) E 88 0 min 0,000 mm 0,0 UV-I 0 W/m 6,8 C 16,1 C 1,6 km/h (1 Bft)
22/04/2019 22:50 16,1 C 12,8 C 12,8 C 11,7 C 11,1 C 54 % 0 lf 0 lf 17 cb 12 cb 10 cb 1000,8 hPa 0,0 mm 0,1 km/h (0 Bft) E 88 0 min 0,000 mm 0,0 UV-I 0 W/m 6,8 C 16,1 C 1,6 km/h (1 Bft)
22/04/2019 22:48 16,1 C 12,8 C 12,8 C 11,7 C 11,1 C 54 % 0 lf 0 lf 17 cb 12 cb 10 cb 1000,8 hPa 0,0 mm 0,3 km/h (0 Bft) E 88 0 min 0,000 mm 0,0 UV-I 0 W/m 6,8 C 16,1 C 3,2 km/h (1 Bft)
22/04/2019 22:46 16,1 C 12,8 C 12,8 C 11,7 C 11,1 C 54 % 0 lf 0 lf 17 cb 12 cb 10 cb 1000,8 hPa 0,0 mm 0,0 km/h (0 Bft) E 88 0 min 0,000 mm 0,0 UV-I 0 W/m 6,8 C 16,1 C 0,0 km/h (0 Bft)
22/04/2019 22:44 16,1 C 12,8 C 12,8 C 11,7 C 11,1 C 54 % 0 lf 0 lf 17 cb 12 cb 10 cb 1000,9 hPa 0,0 mm 0,0 km/h (0 Bft) E 88 0 min 0,000 mm 0,0 UV-I 0 W/m 6,8 C 16,1 C 1,6 km/h (1 Bft)
22/04/2019 22:42 16,2 C 12,8 C 12,8 C 11,7 C 11,1 C 54 % 0 lf 0 lf 17 cb 12 cb 10 cb 1000,9 hPa 0,0 mm 0,7 km/h (0 Bft) E 89 0 min 0,000 mm 0,0 UV-I 0 W/m 6,9 C 16,2 C 6,4 km/h (2 Bft)
22/04/2019 22:40 16,2 C 12,8 C 12,8 C 11,7 C 11,1 C 53 % 0 lf 0 lf 17 cb 12 cb 10 cb 1000,9 hPa 0,0 mm 0,0 km/h (0 Bft) E 87 0 min 0,000 mm 0,0 UV-I 0 W/m 6,6 C 16,2 C 0,0 km/h (0 Bft)
22/04/2019 22:38 16,2 C 12,8 C 12,8 C 11,7 C 11,1 C 53 % 0 lf 0 lf 17 cb 12 cb 10 cb 1000,9 hPa 0,0 mm 0,0 km/h (0 Bft) E 88 0 min 0,000 mm 0,0 UV-I 0 W/m 6,6 C 16,2 C 1,6 km/h (1 Bft)
22/04/2019 22:36 16,2 C 12,8 C 12,8 C 11,7 C 11,1 C 54 % 0 lf 0 lf 17 cb 12 cb 10 cb 1000,9 hPa 0,0 mm 0,4 km/h (0 Bft) E 88 0 min 0,000 mm 0,0 UV-I 0 W/m 6,9 C 16,2 C 1,6 km/h (1 Bft)
22/04/2019 22:34 16,2 C 13,3 C 12,8 C 11,7 C 11,1 C 53 % 0 lf 0 lf 17 cb 12 cb 10 cb 1001,0 hPa 0,0 mm 0,7 km/h (0 Bft) E 88 0 min 0,000 mm 0,0 UV-I 0 W/m 6,6 C 16,2 C 4,8 km/h (1 Bft)
22/04/2019 22:32 16,2 C 13,3 C 12,8 C 11,7 C 11,1 C 53 % 0 lf 0 lf 17 cb 12 cb 10 cb 1001,0 hPa 0,0 mm 0,0 km/h (0 Bft) E 87 0 min 0,000 mm 0,0 UV-I 0 W/m 6,6 C 16,2 C 0,0 km/h (0 Bft)
22/04/2019 22:30 16,2 C 13,3 C 12,8 C 11,7 C 11,1 C 52 % 0 lf 0 lf 17 cb 12 cb 10 cb 1001,1 hPa 0,0 mm 0,4 km/h (0 Bft) E 87 0 min 0,000 mm 0,0 UV-I 0 W/m 6,3 C 16,2 C 3,2 km/h (1 Bft)
22/04/2019 22:28 16,2 C 13,3 C 12,8 C 11,7 C 11,1 C 52 % 0 lf 0 lf 17 cb 12 cb 10 cb 1001,1 hPa 0,0 mm 0,0 km/h (0 Bft) E 87 0 min 0,000 mm 0,0 UV-I 0 W/m 6,3 C 16,2 C 0,0 km/h (0 Bft)
22/04/2019 22:26 16,2 C 13,3 C 12,8 C 11,7 C 11,1 C 53 % 0 lf 0 lf 17 cb 12 cb 10 cb 1001,1 hPa 0,0 mm 0,6 km/h (0 Bft) E 87 0 min 0,000 mm 0,0 UV-I 0 W/m 6,6 C 16,2 C 4,8 km/h (1 Bft)
22/04/2019 22:24 16,2 C 13,3 C 12,8 C 11,7 C 11,1 C 52 % 0 lf 0 lf 17 cb 12 cb 9 cb 1001,2 hPa 0,0 mm 0,0 km/h (0 Bft) E 87 0 min 0,000 mm 0,0 UV-I 0 W/m 6,3 C 16,2 C 0,0 km/h (0 Bft)
22/04/2019 22:22 16,2 C 13,3 C 12,8 C 11,7 C 11,1 C 53 % 0 lf 0 lf 17 cb 12 cb 10 cb 1001,2 hPa 0,0 mm 0,0 km/h (0 Bft) E 87 0 min 0,000 mm 0,0 UV-I 0 W/m 6,6 C 16,2 C 0,0 km/h (0 Bft)
22/04/2019 22:20 16,2 C 13,3 C 12,8 C 11,7 C 11,1 C 53 % 0 lf 0 lf 17 cb 12 cb 10 cb 1001,2 hPa 0,0 mm 0,0 km/h (0 Bft) E 87 0 min 0,000 mm 0,0 UV-I 0 W/m 6,6 C 16,2 C 0,0 km/h (0 Bft)
22/04/2019 22:18 16,3 C 13,3 C 12,8 C 11,7 C 11,1 C 52 % 0 lf 0 lf 17 cb 12 cb 10 cb 1001,2 hPa 0,0 mm 0,0 km/h (0 Bft) E 88 0 min 0,000 mm 0,0 UV-I 0 W/m 6,4 C 16,3 C 0,0 km/h (0 Bft)
22/04/2019 22:16 16,3 C 13,3 C 12,8 C 11,7 C 11,1 C 53 % 0 lf 0 lf 17 cb 12 cb 10 cb 1001,2 hPa 0,0 mm 0,0 km/h (0 Bft) E 87 0 min 0,000 mm 0,0 UV-I 0 W/m 6,7 C 16,3 C 0,0 km/h (0 Bft)
22/04/2019 22:14 16,4 C 13,3 C 12,8 C 11,7 C 11,1 C 52 % 0 lf 0 lf 17 cb 12 cb 10 cb 1001,3 hPa 0,0 mm 0,0 km/h (0 Bft) E 87 0 min 0,000 mm 0,0 UV-I 0 W/m 6,5 C 16,4 C 0,0 km/h (0 Bft)
22/04/2019 22:12 16,4 C 13,3 C 12,8 C 11,7 C 11,1 C 52 % 0 lf 0 lf 17 cb 12 cb 10 cb 1001,3 hPa 0,0 mm 0,0 km/h (0 Bft) E 87 0 min 0,000 mm 0,0 UV-I 0 W/m 6,5 C 16,4 C 0,0 km/h (0 Bft)
22/04/2019 22:10 16,4 C 13,3 C 12,8 C 11,7 C 11,1 C 50 % 0 lf 0 lf 17 cb 12 cb 10 cb 1001,3 hPa 0,0 mm 0,0 km/h (0 Bft) E 87 0 min 0,000 mm 0,0 UV-I 0 W/m 6,0 C 16,4 C 0,0 km/h (0 Bft)
22/04/2019 22:08 16,4 C 13,3 C 12,8 C 11,7 C 11,1 C 51 % 0 lf 0 lf 17 cb 12 cb 10 cb 1001,3 hPa 0,0 mm 0,0 km/h (0 Bft) E 87 0 min 0,000 mm 0,0 UV-I 0 W/m 6,2 C 16,4 C 0,0 km/h (0 Bft)
22/04/2019 22:06 16,6 C 13,3 C 12,8 C 11,7 C 11,1 C 51 % 0 lf 0 lf 17 cb 12 cb 9 cb 1001,3 hPa 0,0 mm 0,0 km/h (0 Bft) E 87 0 min 0,000 mm 0,0 UV-I 0 W/m 6,4 C 16,6 C 0,0 km/h (0 Bft)
22/04/2019 22:04 16,6 C 13,9 C 12,8 C 11,7 C 11,1 C 51 % 0 lf 0 lf 17 cb 12 cb 9 cb 1001,3 hPa 0,0 mm 0,2 km/h (0 Bft) E 87 0 min 0,000 mm 0,0 UV-I 0 W/m 6,4 C 16,6 C 3,2 km/h (1 Bft)
22/04/2019 22:02 16,7 C 13,9 C 12,8 C 11,7 C 11,1 C 50 % 0 lf 0 lf 17 cb 12 cb 9 cb 1001,2 hPa 0,0 mm 0,1 km/h (0 Bft) E 87 0 min 0,000 mm 0,0 UV-I 0 W/m 6,2 C 16,7 C 3,2 km/h (1 Bft)
22/04/2019 22:00 16,7 C 13,9 C 12,8 C 11,7 C 11,1 C 50 % 0 lf 0 lf 17 cb 12 cb 9 cb 1001,3 hPa 0,0 mm 0,0 km/h (0 Bft) E 94 0 min 0,000 mm 0,0 UV-I 0 W/m 6,2 C 16,7 C 0,0 km/h (0 Bft)
22/04/2019 21:58 16,8 C 13,9 C 12,8 C 11,7 C 11,1 C 50 % 0 lf 0 lf 17 cb 12 cb 9 cb 1001,3 hPa 0,0 mm 0,0 km/h (0 Bft) E 94 0 min 0,000 mm 0,0 UV-I 0 W/m 6,3 C 16,8 C 0,0 km/h (0 Bft)
22/04/2019 21:56 16,8 C 13,9 C 12,8 C 11,7 C 11,1 C 50 % 0 lf 0 lf 17 cb 12 cb 9 cb 1001,3 hPa 0,0 mm 0,0 km/h (0 Bft) E 94 0 min 0,000 mm 0,0 UV-I 0 W/m 6,3 C 16,8 C 0,0 km/h (0 Bft)
22/04/2019 21:54 16,8 C 13,9 C 12,8 C 11,7 C 11,1 C 50 % 0 lf 0 lf 17 cb 12 cb 9 cb 1001,3 hPa 0,0 mm 0,0 km/h (0 Bft) E 94 0 min 0,000 mm 0,0 UV-I 0 W/m 6,3 C 16,8 C 0,0 km/h (0 Bft)
22/04/2019 21:52 16,8 C 13,9 C 12,8 C 11,7 C 11,1 C 50 % 0 lf 0 lf 17 cb 12 cb 9 cb 1001,3 hPa 0,0 mm 0,0 km/h (0 Bft) E 94 0 min 0,000 mm 0,0 UV-I 0 W/m 6,3 C 16,8 C 0,0 km/h (0 Bft)
22/04/2019 21:50 16,9 C 13,9 C 12,8 C 11,7 C 11,1 C 50 % 0 lf 0 lf 17 cb 12 cb 9 cb 1001,3 hPa 0,0 mm 0,0 km/h (0 Bft) E 94 0 min 0,000 mm 0,0 UV-I 0 W/m 6,4 C 16,9 C 0,0 km/h (0 Bft)
22/04/2019 21:48 16,9 C 13,9 C 12,8 C 11,7 C 11,1 C 49 % 0 lf 0 lf 17 cb 12 cb 9 cb 1001,3 hPa 0,0 mm 0,0 km/h (0 Bft) E 94 0 min 0,000 mm 0,0 UV-I 0 W/m 6,1 C 16,9 C 0,0 km/h (0 Bft)
22/04/2019 21:46 17,0 C 14,4 C 12,8 C 11,7 C 11,1 C 50 % 0 lf 0 lf 17 cb 12 cb 9 cb 1001,3 hPa 0,0 mm 0,0 km/h (0 Bft) E 94 0 min 0,000 mm 0,0 UV-I 0 W/m 6,5 C 17,0 C 0,0 km/h (0 Bft)
22/04/2019 21:44 17,1 C 14,4 C 12,8 C 11,7 C 11,1 C 49 % 0 lf 0 lf 17 cb 12 cb 10 cb 1001,3 hPa 0,0 mm 0,0 km/h (0 Bft) E 94 0 min 0,000 mm 0,0 UV-I 0 W/m 6,3 C 17,1 C 0,0 km/h (0 Bft)
22/04/2019 21:42 17,1 C 14,4 C 12,8 C 11,7 C 11,1 C 49 % 0 lf 0 lf 17 cb 12 cb 10 cb 1001,3 hPa 0,0 mm 0,0 km/h (0 Bft) E 94 0 min 0,000 mm 0,0 UV-I 0 W/m 6,3 C 17,1 C 0,0 km/h (0 Bft)
22/04/2019 21:40 17,1 C 14,4 C 12,8 C 11,7 C 11,1 C 49 % 0 lf 0 lf 17 cb 12 cb 9 cb 1001,3 hPa 0,0 mm 0,0 km/h (0 Bft) E 94 0 min 0,000 mm 0,0 UV-I 0 W/m 6,3 C 17,1 C 0,0 km/h (0 Bft)
22/04/2019 21:38 17,1 C 14,4 C 12,8 C 11,7 C 11,1 C 49 % 0 lf 0 lf 17 cb 12 cb 9 cb 1001,3 hPa 0,0 mm 0,0 km/h (0 Bft) E 94 0 min 0,000 mm 0,0 UV-I 0 W/m 6,3 C 17,1 C 0,0 km/h (0 Bft)
22/04/2019 21:36 17,1 C 14,4 C 12,8 C 11,7 C 11,1 C 49 % 0 lf 0 lf 17 cb 12 cb 9 cb 1001,3 hPa 0,0 mm 0,0 km/h (0 Bft) E 94 0 min 0,000 mm 0,0 UV-I 0 W/m 6,3 C 17,1 C 0,0 km/h (0 Bft)
22/04/2019 21:34 17,1 C 14,4 C 12,8 C 11,7 C 11,1 C 49 % 0 lf 0 lf 17 cb 12 cb 9 cb 1001,3 hPa 0,0 mm 0,0 km/h (0 Bft) E 94 0 min 0,000 mm 0,0 UV-I 0 W/m 6,3 C 17,1 C 0,0 km/h (0 Bft)
22/04/2019 21:32 17,1 C 15,0 C 12,8 C 11,7 C 11,1 C 50 % 0 lf 0 lf 17 cb 12 cb 9 cb 1001,3 hPa 0,0 mm 0,0 km/h (0 Bft) E 94 0 min 0,000 mm 0,0 UV-I 0 W/m 6,6 C 17,1 C 0,0 km/h (0 Bft)
22/04/2019 21:30 17,1 C 15,0 C 12,8 C 11,7 C 11,1 C 50 % 0 lf 0 lf 17 cb 12 cb 9 cb 1001,3 hPa 0,0 mm 0,0 km/h (0 Bft) E 94 0 min 0,000 mm 0,0 UV-I 0 W/m 6,6 C 17,1 C 0,0 km/h (0 Bft)
22/04/2019 21:28 17,1 C 15,0 C 12,8 C 11,7 C 11,1 C 49 % 0 lf 0 lf 17 cb 12 cb 9 cb 1001,3 hPa 0,0 mm 0,0 km/h (0 Bft) E 94 0 min 0,000 mm 0,0 UV-I 0 W/m 6,3 C 17,1 C 0,0 km/h (0 Bft)
22/04/2019 21:26 17,2 C 15,0 C 12,8 C 11,7 C 11,1 C 50 % 0 lf 0 lf 17 cb 12 cb 9 cb 1001,3 hPa 0,0 mm 0,0 km/h (0 Bft) E 94 0 min 0,000 mm 0,0 UV-I 0 W/m 6,7 C 17,2 C 0,0 km/h (0 Bft)
22/04/2019 21:24 17,3 C 15,0 C 12,8 C 11,7 C 11,1 C 49 % 0 lf 0 lf 17 cb 12 cb 9 cb 1001,3 hPa 0,0 mm 0,0 km/h (0 Bft) E 94 0 min 0,000 mm 0,0 UV-I 0 W/m 6,5 C 17,3 C 0,0 km/h (0 Bft)
22/04/2019 21:22 17,4 C 15,0 C 12,8 C 11,7 C 11,1 C 50 % 0 lf 0 lf 17 cb 12 cb 9 cb 1001,3 hPa 0,0 mm 0,0 km/h (0 Bft) E 94 0 min 0,000 mm 0,0 UV-I 0 W/m 6,9 C 17,4 C 0,0 km/h (0 Bft)
22/04/2019 21:20 17,5 C 15,0 C 12,8 C 11,7 C 11,1 C 48 % 0 lf 0 lf 17 cb 12 cb 9 cb 1001,3 hPa 0,0 mm 0,0 km/h (0 Bft) E 94 0 min 0,000 mm 0,0 UV-I 0 W/m 6,4 C 17,5 C 0,0 km/h (0 Bft)
22/04/2019 21:18 17,6 C 15,6 C 12,8 C 11,7 C 11,1 C 47 % 0 lf 0 lf 17 cb 12 cb 9 cb 1001,3 hPa 0,0 mm 0,0 km/h (0 Bft) E 94 0 min 0,000 mm 0,0 UV-I 0 W/m 6,2 C 17,6 C 0,0 km/h (0 Bft)
22/04/2019 21:16 17,7 C 15,6 C 12,8 C 11,7 C 11,1 C 48 % 0 lf 0 lf 17 cb 12 cb 9 cb 1001,2 hPa 0,0 mm 0,0 km/h (0 Bft) E 94 0 min 0,000 mm 0,0 UV-I 0 W/m 6,6 C 17,7 C 0,0 km/h (0 Bft)
22/04/2019 21:14 17,9 C 15,6 C 12,8 C 11,7 C 11,1 C 47 % 0 lf 0 lf 17 cb 12 cb 9 cb 1001,3 hPa 0,0 mm 0,0 km/h (0 Bft) E 94 0 min 0,000 mm 0,0 UV-I 0 W/m 6,4 C 17,9 C 0,0 km/h (0 Bft)
22/04/2019 21:12 18,1 C 15,6 C 12,8 C 11,7 C 11,1 C 47 % 0 lf 0 lf 17 cb 12 cb 9 cb 1001,2 hPa 0,0 mm 0,0 km/h (0 Bft) E 94 0 min 0,000 mm 0,0 UV-I 0 W/m 6,6 C 18,1 C 0,0 km/h (0 Bft)
22/04/2019 21:10 18,1 C 15,6 C 12,8 C 11,7 C 11,1 C 46 % 0 lf 0 lf 17 cb 12 cb 9 cb 1001,2 hPa 0,0 mm 0,0 km/h (0 Bft) E 94 0 min 0,000 mm 0,0 UV-I 0 W/m 6,3 C 18,1 C 0,0 km/h (0 Bft)
22/04/2019 21:08 18,1 C 16,1 C 12,8 C 11,7 C 11,1 C 45 % 0 lf 0 lf 17 cb 12 cb 9 cb 1001,2 hPa 0,0 mm 0,0 km/h (0 Bft) E 94 0 min 0,000 mm 0,0 UV-I 0 W/m 6,0 C 18,1 C 0,0 km/h (0 Bft)
22/04/2019 21:06 18,3 C 16,1 C 12,8 C 11,7 C 11,1 C 45 % 0 lf 0 lf 17 cb 12 cb 9 cb 1001,3 hPa 0,0 mm 0,0 km/h (0 Bft) E 94 0 min 0,000 mm 0,0 UV-I 0 W/m 6,2 C 18,3 C 0,0 km/h (0 Bft)
22/04/2019 21:04 18,3 C 16,1 C 12,8 C 11,7 C 11,1 C 45 % 0 lf 0 lf 17 cb 12 cb 9 cb 1001,2 hPa 0,0 mm 0,0 km/h (0 Bft) E 94 0 min 0,000 mm 0,0 UV-I 0 W/m 6,2 C 18,3 C 0,0 km/h (0 Bft)
22/04/2019 21:02 18,4 C 16,1 C 12,8 C 11,7 C 11,1 C 45 % 0 lf 0 lf 17 cb 12 cb 9 cb 1001,2 hPa 0,0 mm 0,0 km/h (0 Bft) E 94 0 min 0,000 mm 0,0 UV-I 0 W/m 6,3 C 18,4 C 0,0 km/h (0 Bft)
22/04/2019 21:00 18,4 C 16,1 C 12,8 C 11,7 C 11,1 C 45 % 0 lf 0 lf 17 cb 12 cb 9 cb 1001,2 hPa 0,0 mm 0,0 km/h (0 Bft) E 94 0 min 0,026 mm 0,0 UV-I 0 W/m 6,3 C 18,4 C 0,0 km/h (0 Bft)
22/04/2019 20:58 18,6 C 16,1 C 12,8 C 11,7 C 11,1 C 43 % 0 lf 0 lf 17 cb 12 cb 9 cb 1001,2 hPa 0,0 mm 0,0 km/h (0 Bft) E 94 0 min 0,000 mm 0,0 UV-I 0 W/m 5,8 C 18,6 C 0,0 km/h (0 Bft)
22/04/2019 20:56 18,7 C 16,1 C 12,8 C 11,7 C 11,1 C 43 % 0 lf 0 lf 17 cb 12 cb 9 cb 1001,2 hPa 0,0 mm 0,0 km/h (0 Bft) E 94 0 min 0,000 mm 0,0 UV-I 0 W/m 5,9 C 18,7 C 0,0 km/h (0 Bft)
22/04/2019 20:54 18,8 C 16,7 C 12,8 C 11,7 C 11,1 C 44 % 0 lf 0 lf 17 cb 12 cb 9 cb 1001,2 hPa 0,0 mm 0,0 km/h (0 Bft) E 94 0 min 0,000 mm 0,0 UV-I 0 W/m 6,3 C 18,8 C 0,0 km/h (0 Bft)
22/04/2019 20:52 18,9 C 16,7 C 12,8 C 11,7 C 11,1 C 44 % 0 lf 0 lf 17 cb 12 cb 9 cb 1001,2 hPa 0,0 mm 0,0 km/h (0 Bft) E 94 0 min 0,000 mm 0,0 UV-I 0 W/m 6,4 C 18,9 C 0,0 km/h (0 Bft)
22/04/2019 20:50 19,0 C 16,7 C 12,8 C 11,7 C 11,1 C 44 % 0 lf 0 lf 17 cb 12 cb 9 cb 1001,2 hPa 0,0 mm 0,0 km/h (0 Bft) E 94 0 min 0,000 mm 0,0 UV-I 0 W/m 6,5 C 19,0 C 0,0 km/h (0 Bft)
22/04/2019 20:48 19,1 C 16,7 C 12,8 C 11,7 C 11,1 C 44 % 0 lf 0 lf 17 cb 12 cb 9 cb 1001,2 hPa 0,0 mm 0,0 km/h (0 Bft) E 94 0 min 0,000 mm 0,0 UV-I 5 W/m 6,6 C 19,1 C 0,0 km/h (0 Bft)
22/04/2019 20:46 19,2 C 16,7 C 12,8 C 11,7 C 11,1 C 44 % 0 lf 0 lf 17 cb 12 cb 9 cb 1001,2 hPa 0,0 mm 0,0 km/h (0 Bft) E 94 0 min 0,000 mm 0,0 UV-I 5 W/m 6,7 C 19,2 C 0,0 km/h (0 Bft)
22/04/2019 20:44 19,3 C 17,2 C 12,8 C 11,7 C 11,1 C 43 % 0 lf 0 lf 17 cb 12 cb 9 cb 1001,2 hPa 0,0 mm 0,0 km/h (0 Bft) E 94 0 min 0,000 mm 0,0 UV-I 9 W/m 6,4 C 19,3 C 0,0 km/h (0 Bft)
22/04/2019 20:42 19,4 C 17,2 C 12,8 C 11,7 C 11,1 C 42 % 0 lf 0 lf 17 cb 12 cb 9 cb 1001,3 hPa 0,0 mm 0,0 km/h (0 Bft) E 94 0 min 0,000 mm 0,0 UV-I 9 W/m 6,2 C 19,4 C 0,0 km/h (0 Bft)
22/04/2019 20:40 19,4 C 17,2 C 12,8 C 11,7 C 11,1 C 42 % 0 lf 0 lf 17 cb 12 cb 9 cb 1001,2 hPa 0,0 mm 0,0 km/h (0 Bft) E 94 0 min 0,000 mm 0,0 UV-I 11 W/m 6,2 C 19,4 C 0,0 km/h (0 Bft)
22/04/2019 20:38 19,5 C 17,2 C 12,8 C 11,7 C 11,1 C 42 % 0 lf 0 lf 17 cb 12 cb 9 cb 1001,2 hPa 0,0 mm 0,0 km/h (0 Bft) E 94 0 min 0,000 mm 0,0 UV-I 12 W/m 6,2 C 19,5 C 0,0 km/h (0 Bft)
22/04/2019 20:36 19,6 C 17,8 C 12,8 C 11,7 C 11,1 C 41 % 0 lf 0 lf 17 cb 12 cb 9 cb 1001,3 hPa 0,0 mm 0,0 km/h (0 Bft) E 94 0 min 0,000 mm 0,0 UV-I 12 W/m 6,0 C 19,6 C 0,0 km/h (0 Bft)
22/04/2019 20:34 19,7 C 17,8 C 12,8 C 11,7 C 11,1 C 41 % 0 lf 0 lf 17 cb 12 cb 9 cb 1001,3 hPa 0,0 mm 0,0 km/h (0 Bft) E 94 0 min 0,000 mm 0,0 UV-I 14 W/m 6,1 C 19,7 C 0,0 km/h (0 Bft)
22/04/2019 20:32 19,8 C 17,8 C 12,8 C 11,7 C 11,1 C 43 % 0 lf 0 lf 17 cb 12 cb 9 cb 1001,3 hPa 0,0 mm 0,0 km/h (0 Bft) E 94 0 min 0,000 mm 0,0 UV-I 16 W/m 6,9 C 19,8 C 0,0 km/h (0 Bft)
22/04/2019 20:30 19,8 C 17,8 C 12,8 C 11,7 C 11,1 C 42 % 0 lf 0 lf 17 cb 12 cb 9 cb 1001,3 hPa 0,0 mm 0,0 km/h (0 Bft) E 95 0 min 0,000 mm 0,0 UV-I 16 W/m 6,5 C 19,8 C 0,0 km/h (0 Bft)
22/04/2019 20:28 19,9 C 17,8 C 12,8 C 11,7 C 11,1 C 40 % 0 lf 0 lf 17 cb 12 cb 9 cb 1001,3 hPa 0,0 mm 0,0 km/h (0 Bft) E 94 0 min 0,000 mm 0,0 UV-I 18 W/m 5,9 C 19,9 C 0,0 km/h (0 Bft)
22/04/2019 20:26 20,1 C 18,3 C 12,8 C 11,7 C 11,1 C 40 % 0 lf 0 lf 17 cb 12 cb 9 cb 1001,2 hPa 0,0 mm 0,0 km/h (0 Bft) E 94 0 min 0,000 mm 0,0 UV-I 19 W/m 6,1 C 20,1 C 0,0 km/h (0 Bft)
22/04/2019 20:24 20,2 C 18,3 C 12,8 C 11,7 C 11,1 C 40 % 0 lf 0 lf 17 cb 12 cb 9 cb 1001,3 hPa 0,0 mm 0,0 km/h (0 Bft) E 94 0 min 0,000 mm 0,0 UV-I 21 W/m 6,2 C 20,2 C 0,0 km/h (0 Bft)
22/04/2019 20:22 20,2 C 18,3 C 12,8 C 11,7 C 11,1 C 40 % 0 lf 0 lf 17 cb 12 cb 9 cb 1001,3 hPa 0,0 mm 0,0 km/h (0 Bft) E 95 0 min 0,000 mm 0,0 UV-I 21 W/m 6,2 C 20,2 C 0,0 km/h (0 Bft)
22/04/2019 20:20 20,3 C 18,3 C 12,8 C 11,7 C 11,1 C 39 % 0 lf 0 lf 17 cb 12 cb 9 cb 1001,3 hPa 0,0 mm 0,0 km/h (0 Bft) E 94 0 min 0,000 mm 0,0 UV-I 23 W/m 5,9 C 20,3 C 0,0 km/h (0 Bft)
22/04/2019 20:18 20,3 C 18,9 C 12,8 C 11,7 C 11,1 C 39 % 0 lf 0 lf 17 cb 12 cb 9 cb 1001,3 hPa 0,0 mm 0,0 km/h (0 Bft) E 95 0 min 0,000 mm 0,0 UV-I 23 W/m 5,9 C 20,3 C 0,0 km/h (0 Bft)
22/04/2019 20:16 20,4 C 18,9 C 12,8 C 11,7 C 11,1 C 38 % 0 lf 0 lf 17 cb 12 cb 9 cb 1001,3 hPa 0,0 mm 0,0 km/h (0 Bft) E 94 0 min 0,000 mm 0,0 UV-I 25 W/m 5,6 C 20,4 C 0,0 km/h (0 Bft)
22/04/2019 20:14 20,4 C 18,9 C 12,8 C 11,7 C 11,1 C 38 % 0 lf 0 lf 17 cb 12 cb 9 cb 1001,3 hPa 0,0 mm 0,0 km/h (0 Bft) E 95 0 min 0,000 mm 0,0 UV-I 26 W/m 5,6 C 20,4 C 0,0 km/h (0 Bft)
22/04/2019 20:12 20,6 C 19,4 C 12,8 C 11,7 C 11,1 C 37 % 0 lf 0 lf 17 cb 12 cb 9 cb 1001,3 hPa 0,0 mm 0,0 km/h (0 Bft) E 94 0 min 0,000 mm 0,0 UV-I 28 W/m 5,4 C 20,6 C 0,0 km/h (0 Bft)
22/04/2019 20:10 20,6 C 19,4 C 12,8 C 11,7 C 11,1 C 36 % 0 lf 0 lf 17 cb 12 cb 9 cb 1001,3 hPa 0,0 mm 0,0 km/h (0 Bft) E 95 0 min 0,000 mm 0,0 UV-I 30 W/m 5,0 C 20,6 C 0,0 km/h (0 Bft)
22/04/2019 20:08 20,7 C 19,4 C 12,8 C 11,7 C 11,1 C 37 % 0 lf 0 lf 17 cb 12 cb 9 cb 1001,3 hPa 0,0 mm 0,0 km/h (0 Bft) E 94 0 min 0,000 mm 0,0 UV-I 32 W/m 5,5 C 20,7 C 0,0 km/h (0 Bft)
22/04/2019 20:06 20,7 C 20,0 C 12,8 C 11,7 C 11,1 C 36 % 0 lf 0 lf 17 cb 12 cb 9 cb 1001,3 hPa 0,0 mm 0,0 km/h (0 Bft) E 94 0 min 0,000 mm 0,0 UV-I 33 W/m 5,1 C 20,7 C 0,0 km/h (0 Bft)
22/04/2019 20:04 20,8 C 20,0 C 12,8 C 11,7 C 11,1 C 37 % 0 lf 0 lf 17 cb 12 cb 9 cb 1001,3 hPa 0,0 mm 0,0 km/h (0 Bft) E 95 0 min 0,000 mm 0,0 UV-I 35 W/m 5,6 C 20,8 C 0,0 km/h (0 Bft)
22/04/2019 20:02 20,8 C 20,0 C 12,8 C 11,7 C 11,1 C 37 % 0 lf 0 lf 17 cb 12 cb 9 cb 1001,3 hPa 0,0 mm 0,7 km/h (0 Bft) E 95 0 min 0,000 mm 0,0 UV-I 37 W/m 5,6 C 20,8 C 3,2 km/h (1 Bft)
22/04/2019 20:00 20,9 C 20,0 C 12,8 C 11,7 C 11,1 C 37 % 0 lf 0 lf 17 cb 12 cb 9 cb 1001,3 hPa 0,0 mm 2,9 km/h (1 Bft) E 94 0 min 0,101 mm 0,0 UV-I 39 W/m 5,7 C 20,9 C 4,8 km/h (1 Bft)
22/04/2019 19:58 21,1 C 20,6 C 12,8 C 11,7 C 11,1 C 36 % 0 lf 0 lf 17 cb 12 cb 9 cb 1001,3 hPa 0,0 mm 3,4 km/h (1 Bft) E 94 0 min 0,000 mm 0,0 UV-I 40 W/m 5,4 C 21,1 C 4,8 km/h (1 Bft)
22/04/2019 19:56 21,2 C 20,6 C 12,8 C 11,7 C 10,6 C 37 % 0 lf 0 lf 17 cb 12 cb 9 cb 1001,3 hPa 0,0 mm 3,2 km/h (1 Bft) E 94 0 min 0,000 mm 0,0 UV-I 42 W/m 5,9 C 21,2 C 4,8 km/h (1 Bft)
22/04/2019 19:54 21,3 C 20,6 C 12,8 C 11,7 C 10,6 C 36 % 0 lf 0 lf 17 cb 12 cb 9 cb 1001,4 hPa 0,0 mm 1,7 km/h (1 Bft) E 95 0 min 0,000 mm 0,0 UV-I 46 W/m 5,6 C 21,3 C 3,2 km/h (1 Bft)
22/04/2019 19:52 21,5 C 20,6 C 12,8 C 11,7 C 10,6 C 36 % 0 lf 0 lf 17 cb 12 cb 9 cb 1001,4 hPa 0,0 mm 3,4 km/h (1 Bft) E 95 0 min 0,000 mm 0,0 UV-I 49 W/m 5,8 C 21,5 C 6,4 km/h (2 Bft)
22/04/2019 19:50 21,7 C 21,1 C 12,8 C 11,7 C 10,6 C 35 % 0 lf 0 lf 17 cb 12 cb 9 cb 1001,4 hPa 0,0 mm 3,7 km/h (1 Bft) E 93 0 min 0,000 mm 0,0 UV-I 53 W/m 5,6 C 21,7 C 6,4 km/h (2 Bft)
22/04/2019 19:48 21,8 C 21,1 C 12,8 C 11,7 C 10,6 C 34 % 0 lf 0 lf 17 cb 12 cb 9 cb 1001,4 hPa 0,0 mm 5,0 km/h (1 Bft) E 94 0 min 0,000 mm 0,0 UV-I 56 W/m 5,2 C 21,8 C 8,0 km/h (2 Bft)
22/04/2019 19:46 21,8 C 21,1 C 12,8 C 11,7 C 10,6 C 34 % 0 lf 0 lf 17 cb 12 cb 9 cb 1001,4 hPa 0,0 mm 4,8 km/h (1 Bft) E 89 0 min 0,000 mm 0,0 UV-I 62 W/m 5,2 C 21,8 C 8,0 km/h (2 Bft)
22/04/2019 19:44 21,8 C 21,1 C 12,8 C 11,7 C 10,6 C 33 % 0 lf 0 lf 17 cb 12 cb 9 cb 1001,4 hPa 0,0 mm 5,2 km/h (1 Bft) E 90 0 min 0,000 mm 0,0 UV-I 67 W/m 4,8 C 21,8 C 8,0 km/h (2 Bft)
22/04/2019 19:42 21,9 C 21,1 C 12,8 C 11,7 C 10,6 C 34 % 0 lf 0 lf 17 cb 12 cb 9 cb 1001,4 hPa 0,0 mm 5,4 km/h (1 Bft) E 87 0 min 0,000 mm 0,0 UV-I 70 W/m 5,3 C 21,9 C 8,0 km/h (2 Bft)
22/04/2019 19:40 22,1 C 21,7 C 12,8 C 11,7 C 10,6 C 34 % 0 lf 0 lf 17 cb 12 cb 9 cb 1001,4 hPa 0,0 mm 3,2 km/h (1 Bft) E-NE 77 0 min 0,000 mm 0,0 UV-I 74 W/m 5,5 C 22,1 C 4,8 km/h (1 Bft)
22/04/2019 19:38 22,2 C 21,7 C 12,8 C 11,7 C 10,6 C 33 % 0 lf 0 lf 17 cb 12 cb 9 cb 1001,4 hPa 0,0 mm 3,7 km/h (1 Bft) E-NE 77 0 min 0,000 mm 0,0 UV-I 77 W/m 5,2 C 22,2 C 6,4 km/h (2 Bft)
22/04/2019 19:36 22,3 C 21,7 C 12,8 C 11,7 C 10,6 C 33 % 0 lf 0 lf 17 cb 12 cb 9 cb 1001,4 hPa 0,0 mm 3,1 km/h (1 Bft) E-NE 75 0 min 0,000 mm 0,0 UV-I 79 W/m 5,2 C 22,3 C 6,4 km/h (2 Bft)
22/04/2019 19:34 22,4 C 21,7 C 12,8 C 11,7 C 10,6 C 31 % 0 lf 0 lf 17 cb 12 cb 9 cb 1001,4 hPa 0,0 mm 4,9 km/h (1 Bft) E-SE 102 0 min 0,000 mm 0,0 UV-I 84 W/m 4,4 C 22,4 C 8,0 km/h (2 Bft)
22/04/2019 19:32 22,5 C 21,7 C 12,8 C 11,7 C 10,6 C 31 % 0 lf 0 lf 17 cb 12 cb 9 cb 1001,5 hPa 0,0 mm 3,6 km/h (1 Bft) E 88 0 min 0,000 mm 0,0 UV-I 86 W/m 4,5 C 22,5 C 8,0 km/h (2 Bft)
22/04/2019 19:30 22,6 C 21,7 C 12,8 C 11,7 C 10,6 C 31 % 0 lf 0 lf 17 cb 12 cb 9 cb 1001,5 hPa 0,0 mm 3,6 km/h (1 Bft) E-SE 112 0 min 0,000 mm 0,0 UV-I 88 W/m 4,6 C 22,6 C 8,0 km/h (2 Bft)
22/04/2019 19:28 22,7 C 22,2 C 12,8 C 11,7 C 10,6 C 30 % 0 lf 0 lf 17 cb 12 cb 9 cb 1001,4 hPa 0,0 mm 4,3 km/h (1 Bft) SE 126 0 min 0,000 mm 0,0 UV-I 93 W/m 4,2 C 22,7 C 6,4 km/h (2 Bft)
22/04/2019 19:26 22,8 C 22,2 C 12,8 C 11,7 C 10,6 C 31 % 0 lf 0 lf 17 cb 12 cb 9 cb 1001,5 hPa 0,0 mm 2,9 km/h (1 Bft) E 101 0 min 0,000 mm 0,0 UV-I 95 W/m 4,8 C 22,8 C 4,8 km/h (1 Bft)
22/04/2019 19:24 22,9 C 22,2 C 12,8 C 11,7 C 10,6 C 31 % 0 lf 0 lf 17 cb 12 cb 9 cb 1001,5 hPa 0,0 mm 4,0 km/h (1 Bft) E 101 0 min 0,000 mm 0,0 UV-I 98 W/m 4,9 C 22,9 C 6,4 km/h (2 Bft)
22/04/2019 19:22 23,0 C 22,2 C 12,8 C 11,7 C 10,6 C 31 % 0 lf 0 lf 17 cb 12 cb 9 cb 1001,5 hPa 0,0 mm 4,3 km/h (1 Bft) E 101 0 min 0,000 mm 0,0 UV-I 111 W/m 5,0 C 23,0 C 6,4 km/h (2 Bft)
22/04/2019 19:20 23,1 C 22,2 C 12,8 C 11,7 C 10,6 C 31 % 0 lf 0 lf 17 cb 12 cb 9 cb 1001,5 hPa 0,0 mm 3,1 km/h (1 Bft) E 95 0 min 0,000 mm 0,0 UV-I 125 W/m 5,0 C 23,1 C 6,4 km/h (2 Bft)
22/04/2019 19:18 23,3 C 22,8 C 12,8 C 11,7 C 10,6 C 31 % 0 lf 0 lf 17 cb 12 cb 9 cb 1001,6 hPa 0,0 mm 4,2 km/h (1 Bft) E-SE 103 0 min 0,000 mm 0,0 UV-I 127 W/m 5,2 C 23,3 C 6,4 km/h (2 Bft)
22/04/2019 19:16 23,4 C 22,8 C 12,8 C 11,7 C 10,6 C 30 % 0 lf 0 lf 17 cb 12 cb 9 cb 1001,5 hPa 0,0 mm 3,2 km/h (1 Bft) E-SE 104 0 min 0,000 mm 0,0 UV-I 128 W/m 4,8 C 23,4 C 4,8 km/h (1 Bft)
22/04/2019 19:14 23,4 C 22,8 C 12,8 C 11,7 C 10,6 C 28 % 0 lf 0 lf 17 cb 12 cb 9 cb 1001,5 hPa 0,0 mm 3,4 km/h (1 Bft) E-SE 103 0 min 0,000 mm 0,0 UV-I 134 W/m 3,8 C 23,4 C 6,4 km/h (2 Bft)
22/04/2019 19:12 23,5 C 22,8 C 12,8 C 11,7 C 10,6 C 30 % 0 lf 0 lf 17 cb 12 cb 9 cb 1001,5 hPa 0,0 mm 3,3 km/h (1 Bft) E-SE 102 2 min 0,000 mm 0,0 UV-I 144 W/m 4,9 C 23,5 C 8,0 km/h (2 Bft)
22/04/2019 19:10 23,6 C 22,8 C 12,8 C 11,7 C 10,6 C 30 % 0 lf 0 lf 17 cb 12 cb 9 cb 1001,5 hPa 0,0 mm 4,2 km/h (1 Bft) E-SE 108 2 min 0,000 mm 0,0 UV-I 153 W/m 5,0 C 23,6 C 8,0 km/h (2 Bft)
22/04/2019 19:08 23,7 C 23,3 C 12,8 C 11,7 C 10,6 C 29 % 0 lf 0 lf 17 cb 12 cb 9 cb 1001,6 hPa 0,0 mm 3,3 km/h (1 Bft) E 83 2 min 0,000 mm 0,0 UV-I 155 W/m 4,6 C 23,7 C 6,4 km/h (2 Bft)
22/04/2019 19:06 23,8 C 23,3 C 12,8 C 11,7 C 10,6 C 30 % 0 lf 0 lf 17 cb 12 cb 9 cb 1001,6 hPa 0,0 mm 4,5 km/h (1 Bft) E-SE 104 2 min 0,000 mm 0,0 UV-I 163 W/m 5,2 C 23,8 C 9,7 km/h (2 Bft)
22/04/2019 19:04 23,9 C 23,3 C 12,8 C 11,7 C 10,6 C 28 % 0 lf 0 lf 17 cb 12 cb 9 cb 1001,6 hPa 0,0 mm 4,4 km/h (1 Bft) E 91 2 min 0,000 mm 0,0 UV-I 176 W/m 4,3 C 23,9 C 8,0 km/h (2 Bft)
22/04/2019 19:02 23,9 C 23,3 C 12,8 C 11,7 C 10,6 C 29 % 0 lf 0 lf 17 cb 12 cb 9 cb 1001,6 hPa 0,0 mm 4,1 km/h (1 Bft) E 101 2 min 0,000 mm 0,0 UV-I 178 W/m 4,8 C 23,9 C 8,0 km/h (2 Bft)
22/04/2019 19:00 23,9 C 23,3 C 12,8 C 11,7 C 10,6 C 31 % 0 lf 0 lf 17 cb 12 cb 9 cb 1001,6 hPa 0,0 mm 3,4 km/h (1 Bft) E 79 2 min 0,254 mm 0,0 UV-I 185 W/m 5,7 C 23,9 C 6,4 km/h (2 Bft)
22/04/2019 18:58 24,0 C 23,3 C 12,8 C 11,7 C 10,6 C 29 % 0 lf 0 lf 17 cb 12 cb 9 cb 1001,6 hPa 0,0 mm 2,4 km/h (1 Bft) E 90 2 min 0,000 mm 0,0 UV-I 188 W/m 4,9 C 24,0 C 4,8 km/h (1 Bft)
22/04/2019 18:56 24,1 C 23,9 C 12,8 C 11,7 C 10,6 C 28 % 0 lf 0 lf 17 cb 12 cb 9 cb 1001,6 hPa 0,0 mm 4,5 km/h (1 Bft) E 89 2 min 0,000 mm 0,0 UV-I 171 W/m 4,4 C 24,1 C 8,0 km/h (2 Bft)
22/04/2019 18:54 24,2 C 23,9 C 12,8 C 11,7 C 10,6 C 27 % 0 lf 0 lf 17 cb 12 cb 9 cb 1001,6 hPa 0,0 mm 4,8 km/h (1 Bft) E 91 2 min 0,000 mm 0,0 UV-I 171 W/m 4,0 C 24,2 C 8,0 km/h (2 Bft)
22/04/2019 18:52 24,3 C 23,9 C 12,8 C 11,7 C 10,6 C 29 % 0 lf 0 lf 17 cb 12 cb 9 cb 1001,6 hPa 0,0 mm 6,8 km/h (2 Bft) E 94 2 min 0,000 mm 0,0 UV-I 181 W/m 5,1 C 24,2 C 9,7 km/h (2 Bft)
22/04/2019 18:50 24,4 C 24,4 C 12,8 C 11,7 C 10,6 C 28 % 0 lf 0 lf 17 cb 12 cb 9 cb 1001,7 hPa 0,0 mm 4,8 km/h (1 Bft) E 99 2 min 0,000 mm 0,0 UV-I 195 W/m 4,7 C 24,4 C 8,0 km/h (2 Bft)
22/04/2019 18:48 24,6 C 24,4 C 12,8 C 11,7 C 10,6 C 27 % 0 lf 0 lf 17 cb 12 cb 9 cb 1001,7 hPa 0,0 mm 5,1 km/h (1 Bft) E-SE 111 2 min 0,000 mm 0,0 UV-I 229 W/m 4,4 C 24,6 C 8,0 km/h (2 Bft)
22/04/2019 18:46 24,7 C 24,4 C 12,8 C 11,7 C 10,6 C 26 % 0 lf 0 lf 17 cb 12 cb 9 cb 1001,7 hPa 0,0 mm 5,5 km/h (1 Bft) E-SE 106 2 min 0,000 mm 0,0 UV-I 241 W/m 3,9 C 24,7 C 11,3 km/h (2 Bft)
22/04/2019 18:44 24,8 C 25,0 C 12,8 C 11,7 C 10,6 C 26 % 0 lf 0 lf 17 cb 12 cb 9 cb 1001,7 hPa 0,0 mm 5,7 km/h (1 Bft) E-SE 119 2 min 0,000 mm 0,0 UV-I 251 W/m 4,0 C 24,8 C 9,7 km/h (2 Bft)
22/04/2019 18:42 24,8 C 25,0 C 12,8 C 11,7 C 10,6 C 27 % 0 lf 0 lf 17 cb 12 cb 9 cb 1001,7 hPa 0,0 mm 4,9 km/h (1 Bft) E 101 2 min 0,000 mm 0,0 UV-I 264 W/m 4,5 C 24,8 C 9,7 km/h (2 Bft)
22/04/2019 18:40 24,8 C 25,0 C 12,8 C 11,7 C 10,6 C 28 % 0 lf 0 lf 17 cb 12 cb 9 cb 1001,8 hPa 0,0 mm 5,5 km/h (1 Bft) E 90 2 min 0,000 mm 0,0 UV-I 271 W/m 5,0 C 24,8 C 11,3 km/h (2 Bft)
22/04/2019 18:38 24,9 C 25,0 C 12,8 C 11,7 C 10,6 C 28 % 0 lf 0 lf 17 cb 12 cb 9 cb 1001,8 hPa 0,0 mm 6,5 km/h (2 Bft) E 86 2 min 0,000 mm 0,0 UV-I 278 W/m 5,1 C 24,9 C 11,3 km/h (2 Bft)
22/04/2019 18:36 24,9 C 25,0 C 12,8 C 11,7 C 10,6 C 29 % 0 lf 0 lf 17 cb 12 cb 9 cb 1001,8 hPa 0,0 mm 6,1 km/h (2 Bft) E 84 2 min 0,000 mm 0,5 UV-I 294 W/m 5,6 C 24,9 C 9,7 km/h (2 Bft)
22/04/2019 18:34 25,1 C 25,0 C 12,8 C 11,7 C 10,6 C 28 % 0 lf 0 lf 17 cb 12 cb 9 cb 1001,8 hPa 0,0 mm 5,6 km/h (1 Bft) E-SE 113 2 min 0,000 mm 0,5 UV-I 301 W/m 5,3 C 25,1 C 11,3 km/h (2 Bft)
22/04/2019 18:32 25,1 C 25,0 C 12,8 C 11,7 C 10,6 C 28 % 0 lf 0 lf 17 cb 12 cb 9 cb 1001,8 hPa 0,0 mm 4,9 km/h (1 Bft) E-SE 114 2 min 0,000 mm 0,5 UV-I 309 W/m 5,3 C 25,1 C 8,0 km/h (2 Bft)
22/04/2019 18:30 25,1 C 25,0 C 12,8 C 11,7 C 10,6 C 28 % 0 lf 0 lf 17 cb 12 cb 9 cb 1001,8 hPa 0,0 mm 5,3 km/h (1 Bft) E 100 2 min 0,000 mm 0,5 UV-I 288 W/m 5,3 C 25,1 C 9,7 km/h (2 Bft)
22/04/2019 18:28 25,1 C 25,0 C 12,8 C 11,7 C 10,6 C 29 % 0 lf 0 lf 17 cb 12 cb 9 cb 1001,8 hPa 0,0 mm 3,9 km/h (1 Bft) E-SE 103 2 min 0,000 mm 0,5 UV-I 315 W/m 5,8 C 25,1 C 6,4 km/h (2 Bft)
22/04/2019 18:26 25,1 C 25,0 C 12,8 C 11,7 C 10,6 C 28 % 0 lf 0 lf 17 cb 12 cb 9 cb 1001,9 hPa 0,0 mm 5,7 km/h (1 Bft) E-SE 104 2 min 0,000 mm 0,5 UV-I 330 W/m 5,3 C 25,1 C 8,0 km/h (2 Bft)
22/04/2019 18:24 25,2 C 25,0 C 12,8 C 11,7 C 10,6 C 27 % 0 lf 0 lf 17 cb 12 cb 9 cb 1001,9 hPa 0,0 mm 6,2 km/h (2 Bft) E 98 2 min 0,000 mm 0,6 UV-I 338 W/m 4,9 C 25,2 C 12,9 km/h (3 Bft)
22/04/2019 18:22 25,2 C 25,0 C 12,8 C 11,7 C 10,6 C 28 % 0 lf 0 lf 17 cb 12 cb 9 cb 1001,9 hPa 0,0 mm 4,2 km/h (1 Bft) NE 51 2 min 0,000 mm 0,6 UV-I 339 W/m 5,4 C 25,2 C 6,4 km/h (2 Bft)
22/04/2019 18:20 25,2 C 25,6 C 12,8 C 11,7 C 10,6 C 26 % 0 lf 0 lf 17 cb 12 cb 9 cb 1001,9 hPa 0,0 mm 5,6 km/h (1 Bft) E-SE 121 2 min 0,000 mm 0,6 UV-I 336 W/m 4,3 C 25,2 C 9,7 km/h (2 Bft)
22/04/2019 18:18 25,2 C 25,6 C 12,8 C 11,7 C 10,6 C 28 % 0 lf 0 lf 17 cb 12 cb 9 cb 1001,9 hPa 0,0 mm 5,3 km/h (1 Bft) E-SE 115 2 min 0,000 mm 0,6 UV-I 352 W/m 5,4 C 25,2 C 11,3 km/h (2 Bft)
22/04/2019 18:16 25,2 C 25,6 C 12,8 C 11,7 C 10,6 C 27 % 0 lf 0 lf 17 cb 12 cb 9 cb 1002,0 hPa 0,0 mm 6,2 km/h (2 Bft) E 96 2 min 0,000 mm 0,6 UV-I 360 W/m 4,9 C 25,2 C 9,7 km/h (2 Bft)
22/04/2019 18:14 25,2 C 25,6 C 12,8 C 11,7 C 10,6 C 27 % 0 lf 0 lf 17 cb 12 cb 9 cb 1001,9 hPa 0,0 mm 5,2 km/h (1 Bft) E-SE 110 2 min 0,000 mm 0,6 UV-I 364 W/m 4,9 C 25,2 C 9,7 km/h (2 Bft)
22/04/2019 18:12 25,2 C 25,6 C 12,8 C 11,7 C 10,6 C 28 % 0 lf 0 lf 17 cb 12 cb 9 cb 1002,0 hPa 0,0 mm 5,5 km/h (1 Bft) E-SE 113 2 min 0,000 mm 0,7 UV-I 369 W/m 5,4 C 25,2 C 9,7 km/h (2 Bft)
22/04/2019 18:10 25,2 C 25,0 C 12,8 C 11,7 C 10,6 C 27 % 0 lf 0 lf 17 cb 12 cb 9 cb 1002,0 hPa 0,0 mm 6,0 km/h (2 Bft) E 85 2 min 0,000 mm 0,7 UV-I 378 W/m 4,9 C 25,2 C 9,7 km/h (2 Bft)
22/04/2019 18:08 25,1 C 25,0 C 12,8 C 11,7 C 10,6 C 28 % 0 lf 0 lf 17 cb 12 cb 9 cb 1002,0 hPa 0,0 mm 6,5 km/h (2 Bft) E 94 2 min 0,000 mm 0,7 UV-I 381 W/m 5,3 C 25,1 C 11,3 km/h (2 Bft)
22/04/2019 18:06 24,9 C 25,0 C 12,8 C 11,7 C 10,6 C 28 % 0 lf 0 lf 17 cb 12 cb 9 cb 1002,0 hPa 0,0 mm 6,1 km/h (2 Bft) E 94 2 min 0,000 mm 0,7 UV-I 390 W/m 5,1 C 24,9 C 11,3 km/h (2 Bft)
22/04/2019 18:04 24,9 C 25,0 C 12,8 C 11,7 C 10,6 C 30 % 0 lf 0 lf 17 cb 12 cb 9 cb 1002,0 hPa 0,0 mm 5,8 km/h (2 Bft) E-NE 65 2 min 0,000 mm 0,7 UV-I 392 W/m 6,1 C 24,9 C 9,7 km/h (2 Bft)
22/04/2019 18:02 24,9 C 24,4 C 12,8 C 11,7 C 10,6 C 29 % 0 lf 0 lf 17 cb 12 cb 9 cb 1002,1 hPa 0,0 mm 5,8 km/h (2 Bft) E 84 2 min 0,000 mm 0,7 UV-I 369 W/m 5,6 C 24,9 C 11,3 km/h (2 Bft)
22/04/2019 18:00 24,8 C 24,4 C 12,8 C 11,7 C 10,6 C 30 % 0 lf 0 lf 17 cb 12 cb 9 cb 1002,0 hPa 0,0 mm 6,1 km/h (2 Bft) E-SE 106 2 min 0,330 mm 0,7 UV-I 348 W/m 6,0 C 24,8 C 11,3 km/h (2 Bft)
22/04/2019 17:58 24,6 C 24,4 C 12,8 C 11,7 C 10,6 C 29 % 0 lf 0 lf 17 cb 12 cb 9 cb 1002,1 hPa 0,0 mm 6,1 km/h (2 Bft) S-SE 149 2 min 0,000 mm 0,7 UV-I 346 W/m 5,4 C 24,6 C 9,7 km/h (2 Bft)
22/04/2019 17:56 24,6 C 24,4 C 12,8 C 11,7 C 10,6 C 29 % 0 lf 0 lf 17 cb 12 cb 9 cb 1002,1 hPa 0,0 mm 5,1 km/h (1 Bft) E-SE 102 2 min 0,000 mm 0,7 UV-I 345 W/m 5,4 C 24,6 C 9,7 km/h (2 Bft)
22/04/2019 17:54 24,6 C 24,4 C 12,8 C 11,7 C 10,6 C 30 % 0 lf 0 lf 17 cb 12 cb 9 cb 1002,1 hPa 0,0 mm 5,4 km/h (1 Bft) E 100 0 min 0,000 mm 0,6 UV-I 236 W/m 5,9 C 24,6 C 9,7 km/h (2 Bft)
22/04/2019 17:52 24,7 C 25,0 C 12,8 C 11,7 C 10,6 C 28 % 0 lf 0 lf 17 cb 12 cb 9 cb 1002,1 hPa 0,0 mm 6,7 km/h (2 Bft) E-SE 107 0 min 0,000 mm 0,6 UV-I 188 W/m 5,0 C 24,6 C 12,9 km/h (3 Bft)
22/04/2019 17:50 24,9 C 25,0 C 12,8 C 11,7 C 10,6 C 28 % 0 lf 0 lf 17 cb 12 cb 9 cb 1002,1 hPa 0,0 mm 5,1 km/h (1 Bft) E 100 0 min 0,000 mm 0,6 UV-I 192 W/m 5,1 C 24,9 C 9,7 km/h (2 Bft)
22/04/2019 17:48 25,1 C 25,0 C 12,8 C 11,7 C 10,6 C 30 % 0 lf 0 lf 17 cb 12 cb 9 cb 1002,1 hPa 0,0 mm 3,8 km/h (1 Bft) E-SE 104 0 min 0,000 mm 0,7 UV-I 234 W/m 6,3 C 25,1 C 8,0 km/h (2 Bft)
22/04/2019 17:46 25,2 C 25,6 C 12,8 C 11,7 C 10,6 C 29 % 0 lf 0 lf 17 cb 12 cb 9 cb 1002,2 hPa 0,0 mm 5,8 km/h (2 Bft) E-NE 76 0 min 0,000 mm 0,7 UV-I 257 W/m 5,9 C 25,2 C 9,7 km/h (2 Bft)
22/04/2019 17:44 25,3 C 25,6 C 12,8 C 11,7 C 10,6 C 30 % 0 lf 0 lf 17 cb 12 cb 9 cb 1002,2 hPa 0,0 mm 3,6 km/h (1 Bft) E-SE 120 2 min 0,000 mm 0,8 UV-I 318 W/m 6,5 C 25,3 C 8,0 km/h (2 Bft)
22/04/2019 17:42 25,3 C 25,6 C 12,8 C 11,7 C 10,6 C 29 % 0 lf 0 lf 17 cb 12 cb 9 cb 1002,2 hPa 0,0 mm 5,6 km/h (1 Bft) E-SE 103 2 min 0,000 mm 0,8 UV-I 359 W/m 6,0 C 25,3 C 11,3 km/h (2 Bft)
22/04/2019 17:40 25,2 C 25,6 C 12,8 C 11,7 C 10,6 C 29 % 0 lf 0 lf 17 cb 12 cb 9 cb 1002,2 hPa 0,0 mm 5,9 km/h (2 Bft) E-SE 119 2 min 0,000 mm 0,9 UV-I 424 W/m 5,9 C 25,2 C 11,3 km/h (2 Bft)
22/04/2019 17:38 25,1 C 25,6 C 12,8 C 11,7 C 10,6 C 28 % 0 lf 0 lf 17 cb 12 cb 9 cb 1002,2 hPa 0,0 mm 6,0 km/h (2 Bft) E 93 2 min 0,000 mm 0,9 UV-I 445 W/m 5,3 C 25,1 C 12,9 km/h (3 Bft)
22/04/2019 17:36 25,2 C 25,6 C 12,8 C 11,7 C 10,6 C 28 % 0 lf 0 lf 17 cb 12 cb 9 cb 1002,3 hPa 0,0 mm 6,9 km/h (2 Bft) E-SE 115 2 min 0,000 mm 0,9 UV-I 374 W/m 5,4 C 25,1 C 11,3 km/h (2 Bft)
22/04/2019 17:34 25,3 C 25,6 C 12,8 C 11,7 C 10,6 C 28 % 0 lf 0 lf 17 cb 12 cb 9 cb 1002,3 hPa 0,0 mm 7,9 km/h (2 Bft) E-SE 103 2 min 0,000 mm 0,8 UV-I 330 W/m 5,5 C 24,9 C 16,1 km/h (3 Bft)
22/04/2019 17:32 25,4 C 25,6 C 12,8 C 11,7 C 10,6 C 31 % 0 lf 0 lf 17 cb 12 cb 9 cb 1002,3 hPa 0,0 mm 3,8 km/h (1 Bft) E-SE 117 2 min 0,000 mm 0,8 UV-I 287 W/m 7,0 C 25,4 C 8,0 km/h (2 Bft)
22/04/2019 17:30 25,6 C 26,1 C 12,8 C 11,7 C 10,6 C 28 % 0 lf 0 lf 17 cb 12 cb 9 cb 1002,3 hPa 0,0 mm 1,3 km/h (1 Bft) E-SE 109 2 min 0,000 mm 0,9 UV-I 366 W/m 5,7 C 25,6 C 6,4 km/h (2 Bft)
22/04/2019 17:28 25,7 C 26,1 C 12,8 C 11,7 C 10,6 C 26 % 0 lf 0 lf 17 cb 12 cb 9 cb 1002,4 hPa 0,0 mm 4,9 km/h (1 Bft) E-SE 109 2 min 0,000 mm 1,0 UV-I 425 W/m 4,7 C 25,7 C 11,3 km/h (2 Bft)
22/04/2019 17:26 25,7 C 26,1 C 12,8 C 11,7 C 10,6 C 26 % 0 lf 0 lf 17 cb 12 cb 9 cb 1002,4 hPa 0,0 mm 5,0 km/h (1 Bft) E-SE 123 2 min 0,000 mm 1,0 UV-I 450 W/m 4,7 C 25,7 C 8,0 km/h (2 Bft)
22/04/2019 17:24 25,8 C 26,1 C 12,8 C 11,7 C 10,6 C 30 % 0 lf 0 lf 17 cb 12 cb 9 cb 1002,4 hPa 0,0 mm 4,5 km/h (1 Bft) SE 128 2 min 0,000 mm 1,0 UV-I 462 W/m 6,9 C 25,8 C 6,4 km/h (2 Bft)
22/04/2019 17:22 25,7 C 26,7 C 12,8 C 11,7 C 10,6 C 29 % 0 lf 0 lf 17 cb 12 cb 9 cb 1002,4 hPa 0,0 mm 5,1 km/h (1 Bft) SE 136 2 min 0,000 mm 1,1 UV-I 469 W/m 6,3 C 25,7 C 9,7 km/h (2 Bft)
22/04/2019 17:20 25,8 C 26,7 C 12,8 C 11,7 C 10,6 C 27 % 0 lf 0 lf 17 cb 12 cb 9 cb 1002,5 hPa 0,0 mm 5,8 km/h (2 Bft) E 82 2 min 0,000 mm 1,1 UV-I 485 W/m 5,4 C 25,8 C 11,3 km/h (2 Bft)
22/04/2019 17:18 25,8 C 26,7 C 12,8 C 11,7 C 10,6 C 30 % 0 lf 0 lf 17 cb 12 cb 9 cb 1002,5 hPa 0,0 mm 6,9 km/h (2 Bft) E-SE 109 2 min 0,000 mm 1,1 UV-I 499 W/m 6,9 C 25,7 C 9,7 km/h (2 Bft)
22/04/2019 17:16 25,7 C 26,7 C 12,8 C 11,7 C 10,6 C 29 % 0 lf 0 lf 17 cb 12 cb 9 cb 1002,4 hPa 0,0 mm 8,0 km/h (2 Bft) S-SE 151 2 min 0,000 mm 1,1 UV-I 471 W/m 6,3 C 25,3 C 14,5 km/h (3 Bft)
22/04/2019 17:14 25,6 C 26,1 C 12,8 C 11,7 C 10,6 C 27 % 0 lf 0 lf 17 cb 12 cb 9 cb 1002,5 hPa 0,0 mm 4,9 km/h (1 Bft) E-SE 112 2 min 0,000 mm 1,2 UV-I 494 W/m 5,2 C 25,6 C 11,3 km/h (2 Bft)
22/04/2019 17:12 25,6 C 26,1 C 12,8 C 11,7 C 10,6 C 27 % 0 lf 0 lf 17 cb 12 cb 9 cb 1002,5 hPa 0,0 mm 4,2 km/h (1 Bft) E-SE 111 2 min 0,000 mm 1,2 UV-I 473 W/m 5,2 C 25,6 C 8,0 km/h (2 Bft)
22/04/2019 17:10 25,7 C 26,1 C 12,8 C 11,7 C 10,6 C 28 % 0 lf 0 lf 17 cb 12 cb 9 cb 1002,5 hPa 0,0 mm 2,6 km/h (1 Bft) E 99 2 min 0,000 mm 1,1 UV-I 390 W/m 5,8 C 25,7 C 6,4 km/h (2 Bft)
22/04/2019 17:08 25,7 C 26,1 C 12,8 C 11,7 C 10,6 C 29 % 0 lf 0 lf 17 cb 12 cb 9 cb 1002,5 hPa 0,0 mm 5,8 km/h (2 Bft) E 99 2 min 0,000 mm 1,2 UV-I 499 W/m 6,3 C 25,7 C 9,7 km/h (2 Bft)
22/04/2019 17:06 25,6 C 26,7 C 12,8 C 11,7 C 10,6 C 28 % 0 lf 0 lf 17 cb 12 cb 9 cb 1002,6 hPa 0,0 mm 10,7 km/h (2 Bft) E 84 2 min 0,000 mm 1,3 UV-I 503 W/m 5,7 C 24,7 C 17,7 km/h (3 Bft)
22/04/2019 17:04 25,7 C 26,7 C 12,8 C 11,7 C 10,6 C 27 % 0 lf 0 lf 17 cb 12 cb 9 cb 1002,6 hPa 0,0 mm 6,8 km/h (2 Bft) E 98 2 min 0,000 mm 1,3 UV-I 520 W/m 5,3 C 25,6 C 12,9 km/h (3 Bft)
22/04/2019 17:02 25,7 C 26,7 C 12,8 C 11,7 C 10,6 C 31 % 0 lf 0 lf 17 cb 12 cb 9 cb 1002,6 hPa 0,0 mm 3,3 km/h (1 Bft) SE 140 2 min 0,000 mm 1,3 UV-I 506 W/m 7,3 C 25,7 C 6,4 km/h (2 Bft)
22/04/2019 17:00 25,5 C 26,7 C 12,8 C 11,7 C 10,6 C 29 % 0 lf 0 lf 17 cb 12 cb 9 cb 1002,7 hPa 0,0 mm 3,1 km/h (1 Bft) SE 129 2 min 0,458 mm 1,3 UV-I 519 W/m 6,1 C 25,5 C 8,0 km/h (2 Bft)
22/04/2019 16:58 25,6 C 26,7 C 12,8 C 11,7 C 10,6 C 28 % 0 lf 0 lf 17 cb 12 cb 9 cb 1002,7 hPa 0,0 mm 5,5 km/h (1 Bft) E-SE 123 2 min 0,000 mm 1,3 UV-I 513 W/m 5,7 C 25,6 C 12,9 km/h (3 Bft)
22/04/2019 16:56 25,6 C 26,7 C 12,8 C 11,7 C 10,6 C 28 % 0 lf 0 lf 17 cb 12 cb 9 cb 1002,7 hPa 0,0 mm 6,4 km/h (2 Bft) E-SE 117 2 min 0,000 mm 1,4 UV-I 527 W/m 5,7 C 25,6 C 11,3 km/h (2 Bft)
22/04/2019 16:54 25,6 C 26,7 C 12,8 C 11,7 C 10,6 C 28 % 0 lf 0 lf 17 cb 12 cb 9 cb 1002,7 hPa 0,0 mm 8,0 km/h (2 Bft) E 96 2 min 0,000 mm 1,4 UV-I 545 W/m 5,7 C 25,2 C 12,9 km/h (3 Bft)
22/04/2019 16:52 25,7 C 26,7 C 12,8 C 11,7 C 10,6 C 29 % 0 lf 0 lf 17 cb 12 cb 9 cb 1002,7 hPa 0,0 mm 4,6 km/h (1 Bft) E-SE 110 2 min 0,000 mm 1,4 UV-I 531 W/m 6,3 C 25,7 C 9,7 km/h (2 Bft)
22/04/2019 16:50 25,6 C 26,7 C 12,8 C 11,7 C 10,6 C 28 % 0 lf 0 lf 17 cb 12 cb 9 cb 1002,8 hPa 0,0 mm 5,8 km/h (2 Bft) E-SE 123 2 min 0,000 mm 1,4 UV-I 526 W/m 5,7 C 25,6 C 9,7 km/h (2 Bft)
22/04/2019 16:48 25,6 C 26,7 C 12,8 C 11,7 C 10,6 C 28 % 0 lf 0 lf 17 cb 12 cb 9 cb 1002,8 hPa 0,0 mm 4,1 km/h (1 Bft) E-SE 121 2 min 0,000 mm 1,4 UV-I 520 W/m 5,7 C 25,6 C 11,3 km/h (2 Bft)
22/04/2019 16:46 25,6 C 26,7 C 12,8 C 11,7 C 10,6 C 29 % 0 lf 0 lf 17 cb 12 cb 9 cb 1002,9 hPa 0,0 mm 4,9 km/h (1 Bft) E 87 2 min 0,000 mm 1,4 UV-I 503 W/m 6,2 C 25,6 C 9,7 km/h (2 Bft)
22/04/2019 16:44 25,7 C 27,2 C 12,8 C 11,7 C 10,6 C 30 % 0 lf 0 lf 17 cb 12 cb 9 cb 1002,9 hPa 0,0 mm 5,7 km/h (1 Bft) E-SE 109 2 min 0,000 mm 1,5 UV-I 538 W/m 6,8 C 25,7 C 11,3 km/h (2 Bft)
22/04/2019 16:42 25,7 C 27,2 C 12,8 C 11,7 C 10,6 C 30 % 0 lf 0 lf 17 cb 12 cb 9 cb 1003,0 hPa 0,0 mm 6,0 km/h (2 Bft) E-SE 113 2 min 0,000 mm 1,5 UV-I 529 W/m 6,8 C 25,7 C 11,3 km/h (2 Bft)
22/04/2019 16:40 25,7 C 27,2 C 12,8 C 11,7 C 10,6 C 31 % 0 lf 0 lf 17 cb 12 cb 9 cb 1002,9 hPa 0,0 mm 7,1 km/h (2 Bft) SE 135 2 min 0,000 mm 1,5 UV-I 557 W/m 7,3 C 25,5 C 12,9 km/h (3 Bft)
22/04/2019 16:38 25,6 C 27,2 C 12,8 C 11,7 C 10,6 C 32 % 0 lf 0 lf 17 cb 12 cb 9 cb 1003,0 hPa 0,0 mm 7,7 km/h (2 Bft) E-SE 118 2 min 0,000 mm 1,6 UV-I 578 W/m 7,7 C 25,3 C 14,5 km/h (3 Bft)
22/04/2019 16:36 25,6 C 27,8 C 12,8 C 11,7 C 10,6 C 28 % 0 lf 0 lf 17 cb 12 cb 9 cb 1003,0 hPa 0,0 mm 6,3 km/h (2 Bft) SE 127 2 min 0,000 mm 1,6 UV-I 582 W/m 5,7 C 25,6 C 11,3 km/h (2 Bft)
22/04/2019 16:34 25,6 C 27,2 C 12,8 C 11,7 C 10,6 C 29 % 0 lf 0 lf 17 cb 12 cb 9 cb 1003,0 hPa 0,0 mm 5,0 km/h (1 Bft) S-SO 198 2 min 0,000 mm 1,6 UV-I 566 W/m 6,2 C 25,6 C 9,7 km/h (2 Bft)
22/04/2019 16:32 25,6 C 27,2 C 12,8 C 11,7 C 10,6 C 29 % 0 lf 0 lf 17 cb 12 cb 9 cb 1003,1 hPa 0,0 mm 4,8 km/h (1 Bft) SE 131 2 min 0,000 mm 1,6 UV-I 577 W/m 6,2 C 25,6 C 11,3 km/h (2 Bft)
22/04/2019 16:30 25,6 C 27,2 C 12,8 C 11,7 C 10,6 C 30 % 0 lf 0 lf 17 cb 12 cb 9 cb 1003,1 hPa 0,0 mm 7,0 km/h (2 Bft) SE 142 2 min 0,000 mm 1,7 UV-I 580 W/m 6,7 C 25,5 C 12,9 km/h (3 Bft)
22/04/2019 16:28 25,7 C 27,8 C 12,8 C 11,7 C 10,6 C 29 % 0 lf 0 lf 17 cb 12 cb 9 cb 1003,1 hPa 0,0 mm 6,2 km/h (2 Bft) SE 133 2 min 0,000 mm 1,7 UV-I 601 W/m 6,3 C 25,7 C 14,5 km/h (3 Bft)
22/04/2019 16:26 25,7 C 27,8 C 12,8 C 11,7 C 10,6 C 31 % 0 lf 0 lf 17 cb 12 cb 9 cb 1003,1 hPa 0,0 mm 6,1 km/h (2 Bft) S-SE 164 2 min 0,000 mm 1,7 UV-I 605 W/m 7,3 C 25,7 C 12,9 km/h (3 Bft)
22/04/2019 16:24 25,7 C 27,8 C 12,8 C 11,7 C 10,6 C 31 % 0 lf 0 lf 17 cb 12 cb 9 cb 1003,1 hPa 0,0 mm 6,2 km/h (2 Bft) SE 145 2 min 0,000 mm 1,7 UV-I 610 W/m 7,3 C 25,7 C 11,3 km/h (2 Bft)
22/04/2019 16:22 25,7 C 27,8 C 12,8 C 11,7 C 10,6 C 32 % 0 lf 0 lf 17 cb 12 cb 9 cb 1003,1 hPa 0,0 mm 7,2 km/h (2 Bft) S 190 2 min 0,000 mm 1,8 UV-I 615 W/m 7,8 C 25,5 C 16,1 km/h (3 Bft)
22/04/2019 16:20 25,7 C 27,8 C 12,8 C 11,7 C 10,6 C 31 % 0 lf 0 lf 17 cb 12 cb 9 cb 1003,1 hPa 0,0 mm 5,4 km/h (1 Bft) S 185 2 min 0,000 mm 1,8 UV-I 619 W/m 7,3 C 25,7 C 9,7 km/h (2 Bft)
22/04/2019 16:18 25,6 C 27,8 C 12,8 C 11,7 C 10,6 C 31 % 0 lf 0 lf 17 cb 12 cb 9 cb 1003,1 hPa 0,0 mm 5,4 km/h (1 Bft) S-SE 147 2 min 0,000 mm 1,8 UV-I 628 W/m 7,2 C 25,6 C 12,9 km/h (3 Bft)
22/04/2019 16:16 25,6 C 27,8 C 12,8 C 11,7 C 10,6 C 29 % 0 lf 0 lf 17 cb 12 cb 9 cb 1003,2 hPa 0,0 mm 9,1 km/h (2 Bft) E-SE 115 2 min 0,000 mm 1,9 UV-I 636 W/m 6,2 C 25,0 C 17,7 km/h (3 Bft)
22/04/2019 16:14 25,6 C 27,8 C 12,8 C 11,7 C 10,6 C 30 % 0 lf 0 lf 17 cb 12 cb 9 cb 1003,3 hPa 0,0 mm 7,9 km/h (2 Bft) SE 133 2 min 0,000 mm 1,9 UV-I 645 W/m 6,7 C 25,3 C 16,1 km/h (3 Bft)
22/04/2019 16:12 25,6 C 28,3 C 12,8 C 11,7 C 10,6 C 32 % 0 lf 0 lf 17 cb 12 cb 9 cb 1003,3 hPa 0,0 mm 7,0 km/h (2 Bft) E-SE 119 2 min 0,000 mm 1,9 UV-I 645 W/m 7,7 C 25,5 C 12,9 km/h (3 Bft)
22/04/2019 16:10 25,6 C 27,8 C 12,8 C 11,7 C 10,6 C 30 % 0 lf 0 lf 17 cb 12 cb 9 cb 1003,3 hPa 0,0 mm 7,3 km/h (2 Bft) S 190 2 min 0,000 mm 1,9 UV-I 635 W/m 6,7 C 25,4 C 11,3 km/h (2 Bft)
22/04/2019 16:08 25,7 C 27,8 C 12,8 C 11,7 C 10,6 C 28 % 0 lf 0 lf 17 cb 12 cb 9 cb 1003,3 hPa 0,0 mm 9,5 km/h (2 Bft) SO 219 2 min 0,000 mm 1,9 UV-I 640 W/m 5,8 C 25,0 C 19,3 km/h (3 Bft)
22/04/2019 16:06 25,8 C 27,8 C 12,8 C 11,7 C 10,6 C 30 % 0 lf 0 lf 17 cb 12 cb 9 cb 1003,4 hPa 0,0 mm 7,4 km/h (2 Bft) S 190 2 min 0,000 mm 1,9 UV-I 650 W/m 6,9 C 25,6 C 12,9 km/h (3 Bft)
22/04/2019 16:04 25,7 C 27,8 C 12,8 C 11,7 C 10,6 C 30 % 0 lf 0 lf 17 cb 12 cb 9 cb 1003,4 hPa 0,0 mm 6,5 km/h (2 Bft) S-SE 147 2 min 0,000 mm 2,0 UV-I 654 W/m 6,8 C 25,7 C 11,3 km/h (2 Bft)
22/04/2019 16:02 25,6 C 27,8 C 12,8 C 11,7 C 10,6 C 30 % 0 lf 0 lf 17 cb 12 cb 9 cb 1003,4 hPa 0,0 mm 9,4 km/h (2 Bft) SE 124 2 min 0,000 mm 2,0 UV-I 657 W/m 6,7 C 24,9 C 16,1 km/h (3 Bft)
22/04/2019 16:00 25,7 C 27,8 C 12,8 C 11,7 C 10,6 C 31 % 0 lf 0 lf 17 cb 12 cb 9 cb 1003,4 hPa 0,0 mm 8,0 km/h (2 Bft) S-SE 148 2 min 0,533 mm 2,0 UV-I 657 W/m 7,3 C 25,3 C 14,5 km/h (3 Bft)
22/04/2019 15:58 25,7 C 27,8 C 12,8 C 11,7 C 10,6 C 29 % 0 lf 0 lf 17 cb 12 cb 9 cb 1003,5 hPa 0,0 mm 11,9 km/h (2 Bft) SE 125 2 min 0,000 mm 2,0 UV-I 659 W/m 6,3 C 24,6 C 19,3 km/h (3 Bft)
22/04/2019 15:56 25,6 C 27,8 C 12,8 C 11,7 C 10,6 C 32 % 0 lf 0 lf 17 cb 12 cb 9 cb 1003,4 hPa 0,0 mm 8,8 km/h (2 Bft) S-SE 150 2 min 0,000 mm 2,0 UV-I 661 W/m 7,7 C 25,1 C 17,7 km/h (3 Bft)
22/04/2019 15:54 25,5 C 27,8 C 12,8 C 11,7 C 10,6 C 31 % 0 lf 0 lf 17 cb 12 cb 9 cb 1003,5 hPa 0,0 mm 10,3 km/h (2 Bft) E 83 2 min 0,000 mm 2,1 UV-I 668 W/m 7,1 C 24,7 C 17,7 km/h (3 Bft)
22/04/2019 15:52 25,4 C 27,8 C 12,8 C 11,7 C 10,6 C 30 % 0 lf 0 lf 17 cb 12 cb 9 cb 1003,5 hPa 0,0 mm 9,0 km/h (2 Bft) E-SE 107 2 min 0,000 mm 2,1 UV-I 673 W/m 6,6 C 24,8 C 14,5 km/h (3 Bft)
22/04/2019 15:50 25,5 C 27,8 C 12,8 C 11,7 C 10,6 C 30 % 0 lf 0 lf 17 cb 12 cb 9 cb 1003,5 hPa 0,0 mm 10,3 km/h (2 Bft) E-SE 104 2 min 0,000 mm 2,1 UV-I 679 W/m 6,6 C 24,7 C 16,1 km/h (3 Bft)
22/04/2019 15:48 25,4 C 27,8 C 12,8 C 11,7 C 10,6 C 30 % 0 lf 0 lf 17 cb 12 cb 9 cb 1003,5 hPa 0,0 mm 8,7 km/h (2 Bft) E 98 2 min 0,000 mm 2,1 UV-I 682 W/m 6,6 C 24,9 C 16,1 km/h (3 Bft)
22/04/2019 15:46 25,4 C 27,8 C 12,8 C 11,7 C 10,6 C 30 % 0 lf 0 lf 17 cb 12 cb 9 cb 1003,6 hPa 0,0 mm 10,5 km/h (2 Bft) E-SE 102 2 min 0,000 mm 2,2 UV-I 686 W/m 6,6 C 24,5 C 16,1 km/h (3 Bft)
22/04/2019 15:44 25,4 C 27,8 C 12,8 C 11,7 C 10,6 C 31 % 0 lf 0 lf 17 cb 12 cb 9 cb 1003,7 hPa 0,0 mm 7,9 km/h (2 Bft) E-SE 113 2 min 0,000 mm 2,2 UV-I 686 W/m 7,0 C 25,0 C 12,9 km/h (3 Bft)
22/04/2019 15:42 25,3 C 27,8 C 12,8 C 11,7 C 10,6 C 31 % 0 lf 0 lf 17 cb 12 cb 9 cb 1003,7 hPa 0,0 mm 5,9 km/h (2 Bft) E 87 2 min 0,000 mm 2,2 UV-I 691 W/m 6,9 C 25,3 C 9,7 km/h (2 Bft)
22/04/2019 15:40 25,2 C 27,8 C 12,8 C 11,7 C 10,6 C 32 % 0 lf 0 lf 17 cb 12 cb 9 cb 1003,8 hPa 0,0 mm 7,1 km/h (2 Bft) E 92 2 min 0,000 mm 2,2 UV-I 682 W/m 7,3 C 25,0 C 11,3 km/h (2 Bft)
22/04/2019 15:38 25,2 C 27,8 C 12,8 C 11,7 C 10,6 C 30 % 0 lf 0 lf 17 cb 12 cb 9 cb 1003,8 hPa 0,0 mm 10,5 km/h (2 Bft) SE 124 2 min 0,000 mm 2,2 UV-I 684 W/m 6,4 C 24,3 C 17,7 km/h (3 Bft)
22/04/2019 15:36 25,3 C 28,3 C 12,8 C 11,7 C 10,6 C 32 % 0 lf 0 lf 17 cb 12 cb 9 cb 1003,8 hPa 0,0 mm 11,2 km/h (2 Bft) E-SE 102 2 min 0,000 mm 2,2 UV-I 694 W/m 7,4 C 24,3 C 20,9 km/h (4 Bft)
22/04/2019 15:34 25,2 C 28,9 C 12,8 C 11,7 C 10,6 C 33 % 0 lf 0 lf 17 cb 12 cb 9 cb 1003,8 hPa 0,0 mm 6,4 km/h (2 Bft) S-SO 202 2 min 0,000 mm 2,2 UV-I 694 W/m 7,8 C 25,2 C 11,3 km/h (2 Bft)
22/04/2019 15:32 25,3 C 28,3 C 12,8 C 11,7 C 10,6 C 33 % 0 lf 0 lf 17 cb 12 cb 9 cb 1003,9 hPa 0,0 mm 5,5 km/h (1 Bft) S-SO 202 2 min 0,000 mm 2,3 UV-I 707 W/m 7,9 C 25,3 C 8,0 km/h (2 Bft)
22/04/2019 15:30 25,2 C 28,3 C 12,8 C 11,7 C 10,6 C 35 % 0 lf 0 lf 17 cb 12 cb 9 cb 1003,9 hPa 0,0 mm 4,7 km/h (1 Bft) S-SO 196 2 min 0,000 mm 2,3 UV-I 710 W/m 8,6 C 25,2 C 8,0 km/h (2 Bft)
22/04/2019 15:28 25,2 C 28,3 C 12,8 C 11,7 C 10,6 C 29 % 0 lf 0 lf 17 cb 12 cb 9 cb 1003,9 hPa 0,0 mm 6,3 km/h (2 Bft) S 190 2 min 0,000 mm 2,3 UV-I 719 W/m 5,9 C 25,2 C 11,3 km/h (2 Bft)
22/04/2019 15:26 25,3 C 28,3 C 12,8 C 11,7 C 10,6 C 34 % 0 lf 0 lf 17 cb 12 cb 9 cb 1003,9 hPa 0,0 mm 8,6 km/h (2 Bft) S-SO 194 2 min 0,000 mm 2,3 UV-I 729 W/m 8,3 C 24,8 C 16,1 km/h (3 Bft)
22/04/2019 15:24 25,2 C 28,3 C 12,8 C 11,7 C 10,6 C 34 % 0 lf 0 lf 17 cb 12 cb 9 cb 1003,9 hPa 0,0 mm 7,0 km/h (2 Bft) S 190 2 min 0,000 mm 2,3 UV-I 729 W/m 8,2 C 25,1 C 11,3 km/h (2 Bft)
22/04/2019 15:22 25,2 C 28,3 C 12,8 C 11,7 C 10,6 C 33 % 0 lf 0 lf 17 cb 12 cb 9 cb 1004,0 hPa 0,0 mm 7,9 km/h (2 Bft) S-SO 199 2 min 0,000 mm 2,3 UV-I 733 W/m 7,8 C 24,8 C 14,5 km/h (3 Bft)
22/04/2019 15:20 25,2 C 28,3 C 12,8 C 11,7 C 10,6 C 31 % 0 lf 0 lf 17 cb 12 cb 9 cb 1004,0 hPa 0,0 mm 10,0 km/h (2 Bft) S-SO 199 2 min 0,000 mm 2,3 UV-I 731 W/m 6,9 C 24,4 C 16,1 km/h (3 Bft)
22/04/2019 15:18 25,2 C 28,3 C 12,8 C 11,7 C 10,6 C 35 % 0 lf 0 lf 17 cb 12 cb 9 cb 1004,0 hPa 0,0 mm 5,1 km/h (1 Bft) S-SO 194 2 min 0,000 mm 2,3 UV-I 738 W/m 8,6 C 25,2 C 8,0 km/h (2 Bft)
22/04/2019 15:16 25,2 C 28,3 C 12,8 C 11,7 C 10,6 C 31 % 0 lf 0 lf 17 cb 12 cb 9 cb 1004,1 hPa 0,0 mm 7,8 km/h (2 Bft) S 175 2 min 0,000 mm 2,3 UV-I 751 W/m 6,9 C 24,9 C 16,1 km/h (3 Bft)
22/04/2019 15:14 25,2 C 28,3 C 12,8 C 11,7 C 10,6 C 35 % 0 lf 0 lf 17 cb 12 cb 9 cb 1004,1 hPa 0,0 mm 7,0 km/h (2 Bft) S-SO 204 2 min 0,000 mm 2,3 UV-I 752 W/m 8,6 C 25,1 C 14,5 km/h (3 Bft)
22/04/2019 15:12 25,2 C 28,3 C 12,8 C 11,7 C 10,6 C 35 % 0 lf 0 lf 17 cb 12 cb 9 cb 1004,1 hPa 0,0 mm 6,1 km/h (2 Bft) S-SO 208 2 min 0,000 mm 2,3 UV-I 761 W/m 8,6 C 25,2 C 9,7 km/h (2 Bft)
22/04/2019 15:10 25,3 C 28,3 C 12,8 C 11,7 C 10,6 C 32 % 0 lf 0 lf 17 cb 12 cb 9 cb 1004,1 hPa 0,0 mm 4,5 km/h (1 Bft) SO 229 2 min 0,000 mm 2,3 UV-I 777 W/m 7,4 C 25,3 C 12,9 km/h (3 Bft)
22/04/2019 15:08 25,1 C 28,3 C 12,8 C 11,7 C 10,6 C 35 % 0 lf 0 lf 17 cb 12 cb 9 cb 1004,2 hPa 0,0 mm 5,7 km/h (1 Bft) S 180 2 min 0,000 mm 2,3 UV-I 779 W/m 8,6 C 25,1 C 9,7 km/h (2 Bft)
22/04/2019 15:06 24,9 C 27,8 C 12,8 C 11,7 C 10,6 C 34 % 0 lf 0 lf 17 cb 12 cb 9 cb 1004,2 hPa 0,0 mm 6,6 km/h (2 Bft) SO 219 2 min 0,000 mm 2,3 UV-I 786 W/m 7,9 C 24,9 C 9,7 km/h (2 Bft)
22/04/2019 15:04 24,9 C 27,8 C 12,8 C 11,7 C 10,6 C 34 % 0 lf 0 lf 17 cb 12 cb 9 cb 1004,2 hPa 0,0 mm 4,4 km/h (1 Bft) S-SO 205 2 min 0,000 mm 2,3 UV-I 777 W/m 7,9 C 24,9 C 11,3 km/h (2 Bft)
22/04/2019 15:02 25,0 C 27,8 C 12,8 C 11,7 C 10,6 C 35 % 0 lf 0 lf 17 cb 12 cb 9 cb 1004,3 hPa 0,0 mm 6,8 km/h (2 Bft) SO 217 2 min 0,000 mm 2,4 UV-I 788 W/m 8,5 C 24,9 C 12,9 km/h (3 Bft)
22/04/2019 15:00 25,0 C 27,8 C 12,8 C 11,7 C 10,6 C 36 % 0 lf 0 lf 17 cb 12 cb 9 cb 1004,2 hPa 0,0 mm 5,5 km/h (1 Bft) S-SO 212 2 min 0,432 mm 2,3 UV-I 703 W/m 8,9 C 25,0 C 9,7 km/h (2 Bft)
22/04/2019 14:58 24,8 C 27,2 C 12,8 C 11,7 C 10,6 C 36 % 0 lf 0 lf 17 cb 12 cb 9 cb 1004,3 hPa 0,0 mm 5,0 km/h (1 Bft) S-SE 154 2 min 0,000 mm 2,5 UV-I 823 W/m 8,7 C 24,8 C 11,3 km/h (2 Bft)
22/04/2019 14:56 24,4 C 27,2 C 12,8 C 11,7 C 10,6 C 40 % 0 lf 0 lf 17 cb 12 cb 9 cb 1004,3 hPa 0,0 mm 5,0 km/h (1 Bft) S 185 2 min 0,000 mm 2,5 UV-I 837 W/m 9,9 C 24,4 C 9,7 km/h (2 Bft)
22/04/2019 14:54 24,1 C 26,1 C 12,8 C 11,7 C 10,6 C 38 % 0 lf 0 lf 17 cb 12 cb 9 cb 1004,4 hPa 0,0 mm 3,8 km/h (1 Bft) S-SO 205 2 min 0,000 mm 2,4 UV-I 823 W/m 8,9 C 24,1 C 8,0 km/h (2 Bft)
22/04/2019 14:52 23,8 C 25,6 C 12,8 C 11,7 C 10,6 C 35 % 0 lf 0 lf 17 cb 12 cb 9 cb 1004,4 hPa 0,0 mm 6,9 km/h (2 Bft) S-SO 204 2 min 0,000 mm 2,2 UV-I 635 W/m 7,4 C 23,7 C 14,5 km/h (3 Bft)
22/04/2019 14:50 23,6 C 25,0 C 12,8 C 11,7 C 10,6 C 35 % 0 lf 0 lf 17 cb 12 cb 9 cb 1004,4 hPa 0,0 mm 6,3 km/h (2 Bft) S-SO 195 2 min 0,000 mm 2,2 UV-I 638 W/m 7,2 C 23,6 C 12,9 km/h (3 Bft)
22/04/2019 14:48 23,4 C 25,0 C 12,8 C 11,7 C 10,6 C 38 % 0 lf 0 lf 17 cb 12 cb 9 cb 1004,4 hPa 0,0 mm 6,9 km/h (2 Bft) S 185 2 min 0,000 mm 2,1 UV-I 599 W/m 8,3 C 23,3 C 12,9 km/h (3 Bft)
22/04/2019 14:46 23,4 C 25,0 C 12,8 C 11,7 C 10,6 C 36 % 0 lf 0 lf 17 cb 12 cb 9 cb 1004,4 hPa 0,0 mm 6,8 km/h (2 Bft) S-SO 203 2 min 0,000 mm 1,9 UV-I 508 W/m 7,5 C 23,3 C 11,3 km/h (2 Bft)
22/04/2019 14:44 23,6 C 25,0 C 12,8 C 11,7 C 10,6 C 35 % 0 lf 0 lf 17 cb 12 cb 9 cb 1004,5 hPa 0,0 mm 8,9 km/h (2 Bft) SO 227 2 min 0,000 mm 1,9 UV-I 517 W/m 7,2 C 22,9 C 14,5 km/h (3 Bft)
22/04/2019 14:42 23,8 C 25,0 C 12,8 C 11,7 C 10,6 C 33 % 0 lf 0 lf 17 cb 12 cb 9 cb 1004,5 hPa 0,0 mm 7,1 km/h (2 Bft) S-SE 161 0 min 0,000 mm 1,5 UV-I 316 W/m 6,6 C 23,6 C 12,9 km/h (3 Bft)
22/04/2019 14:40 24,2 C 25,6 C 12,8 C 11,7 C 10,6 C 35 % 0 lf 0 lf 17 cb 12 cb 9 cb 1004,5 hPa 0,0 mm 7,3 km/h (2 Bft) S-SO 207 0 min 0,000 mm 1,6 UV-I 329 W/m 7,8 C 23,9 C 11,3 km/h (2 Bft)
22/04/2019 14:38 24,4 C 26,1 C 12,8 C 11,7 C 10,6 C 35 % 0 lf 0 lf 17 cb 12 cb 9 cb 1004,5 hPa 0,0 mm 6,7 km/h (2 Bft) S 180 2 min 0,000 mm 1,8 UV-I 633 W/m 7,9 C 24,3 C 12,9 km/h (3 Bft)
22/04/2019 14:36 24,2 C 26,1 C 12,8 C 11,7 C 10,6 C 36 % 0 lf 0 lf 17 cb 12 cb 9 cb 1004,4 hPa 0,0 mm 10,3 km/h (2 Bft) S-SE 154 2 min 0,000 mm 2,4 UV-I 684 W/m 8,2 C 23,2 C 19,3 km/h (3 Bft)
22/04/2019 14:34 24,2 C 26,1 C 12,8 C 11,7 C 10,6 C 35 % 0 lf 0 lf 17 cb 12 cb 9 cb 1004,5 hPa 0,0 mm 6,8 km/h (2 Bft) S-SE 151 2 min 0,000 mm 2,4 UV-I 684 W/m 7,8 C 24,1 C 11,3 km/h (2 Bft)
22/04/2019 14:32 24,1 C 25,6 C 12,8 C 11,7 C 10,6 C 37 % 0 lf 0 lf 17 cb 12 cb 9 cb 1004,5 hPa 0,0 mm 6,0 km/h (2 Bft) S 190 2 min 0,000 mm 2,4 UV-I 670 W/m 8,5 C 24,1 C 11,3 km/h (2 Bft)
22/04/2019 14:30 23,8 C 25,0 C 12,8 C 11,7 C 10,6 C 38 % 0 lf 0 lf 17 cb 12 cb 9 cb 1004,5 hPa 0,0 mm 6,8 km/h (2 Bft) SO 221 2 min 0,000 mm 2,4 UV-I 696 W/m 8,6 C 23,7 C 12,9 km/h (3 Bft)
22/04/2019 14:28 23,7 C 25,0 C 12,8 C 11,7 C 10,6 C 36 % 0 lf 0 lf 17 cb 12 cb 9 cb 1004,5 hPa 0,0 mm 7,9 km/h (2 Bft) SO 217 2 min 0,000 mm 2,3 UV-I 624 W/m 7,7 C 23,3 C 14,5 km/h (3 Bft)
22/04/2019 14:26 23,6 C 24,4 C 12,8 C 11,7 C 10,6 C 38 % 0 lf 0 lf 17 cb 12 cb 9 cb 1004,6 hPa 0,0 mm 5,4 km/h (1 Bft) S 174 2 min 0,000 mm 2,2 UV-I 589 W/m 8,4 C 23,6 C 9,7 km/h (2 Bft)
22/04/2019 14:24 23,6 C 24,4 C 12,8 C 11,7 C 10,6 C 37 % 0 lf 0 lf 17 cb 12 cb 9 cb 1004,6 hPa 0,0 mm 4,5 km/h (1 Bft) E-SE 113 2 min 0,000 mm 1,9 UV-I 476 W/m 8,0 C 23,6 C 11,3 km/h (2 Bft)
22/04/2019 14:22 23,5 C 25,0 C 12,8 C 11,7 C 10,6 C 38 % 0 lf 0 lf 17 cb 12 cb 9 cb 1004,6 hPa 0,0 mm 3,9 km/h (1 Bft) S-SE 153 0 min 0,000 mm 1,8 UV-I 404 W/m 8,4 C 23,5 C 9,7 km/h (2 Bft)
22/04/2019 14:20 23,6 C 25,0 C 12,8 C 11,7 C 10,6 C 38 % 0 lf 0 lf 17 cb 12 cb 9 cb 1004,6 hPa 0,0 mm 5,2 km/h (1 Bft) S 190 0 min 0,000 mm 1,8 UV-I 392 W/m 8,4 C 23,6 C 11,3 km/h (2 Bft)
22/04/2019 14:18 23,6 C 25,0 C 12,8 C 11,7 C 10,6 C 38 % 0 lf 0 lf 17 cb 12 cb 9 cb 1004,7 hPa 0,0 mm 6,8 km/h (2 Bft) S 185 2 min 0,000 mm 2,0 UV-I 501 W/m 8,4 C 23,5 C 16,1 km/h (3 Bft)
22/04/2019 14:16 23,6 C 25,0 C 12,8 C 11,7 C 10,6 C 37 % 0 lf 0 lf 17 cb 12 cb 9 cb 1004,7 hPa 0,0 mm 9,3 km/h (2 Bft) S-SO 194 2 min 0,000 mm 2,1 UV-I 519 W/m 8,0 C 22,8 C 17,7 km/h (3 Bft)
22/04/2019 14:14 23,7 C 25,6 C 12,8 C 11,7 C 10,6 C 37 % 0 lf 0 lf 17 cb 12 cb 9 cb 1004,8 hPa 0,0 mm 7,6 km/h (2 Bft) O-SO 238 2 min 0,000 mm 2,2 UV-I 575 W/m 8,1 C 23,3 C 16,1 km/h (3 Bft)
22/04/2019 14:12 23,8 C 25,6 C 12,8 C 11,7 C 10,6 C 39 % 0 lf 0 lf 17 cb 12 cb 9 cb 1004,7 hPa 0,0 mm 8,2 km/h (2 Bft) S 190 2 min 0,000 mm 2,1 UV-I 485 W/m 9,0 C 23,3 C 16,1 km/h (3 Bft)
22/04/2019 14:10 23,8 C 25,6 C 12,8 C 11,7 C 10,6 C 38 % 0 lf 0 lf 17 cb 12 cb 9 cb 1004,8 hPa 0,0 mm 4,3 km/h (1 Bft) S-SO 198 2 min 0,000 mm 2,1 UV-I 643 W/m 8,6 C 23,8 C 8,0 km/h (2 Bft)
22/04/2019 14:08 23,7 C 25,6 C 12,8 C 11,7 C 10,6 C 39 % 0 lf 0 lf 17 cb 12 cb 9 cb 1004,8 hPa 0,0 mm 2,6 km/h (1 Bft) S-SE 163 2 min 0,000 mm 2,5 UV-I 622 W/m 8,9 C 23,7 C 8,0 km/h (2 Bft)
22/04/2019 14:06 23,6 C 25,0 C 12,8 C 11,7 C 10,6 C 38 % 0 lf 0 lf 17 cb 12 cb 9 cb 1004,9 hPa 0,0 mm 5,7 km/h (1 Bft) S 180 2 min 0,000 mm 2,4 UV-I 633 W/m 8,4 C 23,6 C 12,9 km/h (3 Bft)
22/04/2019 14:04 23,6 C 25,0 C 12,8 C 11,7 C 10,6 C 39 % 0 lf 0 lf 17 cb 12 cb 9 cb 1004,9 hPa 0,0 mm 7,1 km/h (2 Bft) S 172 2 min 0,000 mm 2,5 UV-I 693 W/m 8,8 C 23,4 C 16,1 km/h (3 Bft)
22/04/2019 14:02 23,6 C 25,0 C 12,8 C 11,7 C 10,6 C 38 % 0 lf 0 lf 17 cb 12 cb 9 cb 1004,9 hPa 0,0 mm 7,9 km/h (2 Bft) S 169 2 min 0,000 mm 2,1 UV-I 520 W/m 8,4 C 23,2 C 12,9 km/h (3 Bft)
22/04/2019 14:00 23,7 C 25,0 C 12,8 C 11,7 C 10,6 C 38 % 0 lf 0 lf 17 cb 12 cb 9 cb 1005,0 hPa 0,0 mm 6,1 km/h (2 Bft) S 190 2 min 0,533 mm 2,5 UV-I 738 W/m 8,5 C 23,7 C 11,3 km/h (2 Bft)
22/04/2019 13:58 23,8 C 25,0 C 12,8 C 11,7 C 10,6 C 37 % 0 lf 0 lf 17 cb 12 cb 9 cb 1005,0 hPa 0,0 mm 8,0 km/h (2 Bft) S-SO 196 2 min 0,000 mm 2,3 UV-I 598 W/m 8,2 C 23,3 C 14,5 km/h (3 Bft)
22/04/2019 13:56 23,9 C 25,0 C 12,8 C 11,7 C 10,6 C 37 % 0 lf 0 lf 17 cb 12 cb 9 cb 1004,9 hPa 0,0 mm 7,5 km/h (2 Bft) S 185 2 min 0,000 mm 2,2 UV-I 492 W/m 8,3 C 23,6 C 14,5 km/h (3 Bft)
22/04/2019 13:54 23,9 C 25,6 C 12,8 C 11,7 C 10,6 C 37 % 0 lf 0 lf 17 cb 12 cb 9 cb 1005,0 hPa 0,0 mm 7,4 km/h (2 Bft) SE 145 2 min 0,000 mm 2,2 UV-I 506 W/m 8,3 C 23,6 C 14,5 km/h (3 Bft)
22/04/2019 13:52 23,9 C 25,6 C 12,8 C 11,7 C 10,6 C 36 % 0 lf 0 lf 17 cb 12 cb 9 cb 1005,0 hPa 0,0 mm 9,8 km/h (2 Bft) SE 136 2 min 0,000 mm 2,5 UV-I 696 W/m 7,9 C 23,0 C 16,1 km/h (3 Bft)
22/04/2019 13:50 23,8 C 25,0 C 12,8 C 11,7 C 10,6 C 37 % 0 lf 0 lf 17 cb 12 cb 9 cb 1005,0 hPa 0,0 mm 9,0 km/h (2 Bft) SE 131 2 min 0,000 mm 2,8 UV-I 786 W/m 8,2 C 23,1 C 16,1 km/h (3 Bft)
22/04/2019 13:48 23,7 C 25,0 C 12,8 C 11,7 C 10,6 C 37 % 0 lf 0 lf 17 cb 12 cb 9 cb 1005,0 hPa 0,0 mm 9,7 km/h (2 Bft) SE 145 2 min 0,000 mm 2,8 UV-I 775 W/m 8,1 C 22,8 C 17,7 km/h (3 Bft)
22/04/2019 13:46 23,6 C 24,4 C 12,8 C 11,7 C 10,6 C 37 % 0 lf 0 lf 17 cb 12 cb 9 cb 1005,1 hPa 0,0 mm 5,8 km/h (2 Bft) SE 140 2 min 0,000 mm 2,8 UV-I 766 W/m 8,0 C 23,6 C 14,5 km/h (3 Bft)
22/04/2019 13:44 23,6 C 24,4 C 12,8 C 11,7 C 10,6 C 37 % 0 lf 0 lf 17 cb 12 cb 9 cb 1005,1 hPa 0,0 mm 6,4 km/h (2 Bft) S-SO 202 2 min 0,000 mm 2,7 UV-I 733 W/m 8,0 C 23,6 C 12,9 km/h (3 Bft)
22/04/2019 13:42 23,6 C 24,4 C 12,8 C 11,7 C 10,6 C 36 % 0 lf 0 lf 17 cb 12 cb 9 cb 1005,1 hPa 0,0 mm 9,5 km/h (2 Bft) S 190 2 min 0,000 mm 2,6 UV-I 705 W/m 7,6 C 22,7 C 19,3 km/h (3 Bft)
22/04/2019 13:40 23,7 C 23,9 C 12,8 C 11,7 C 10,6 C 37 % 0 lf 0 lf 17 cb 12 cb 9 cb 1005,1 hPa 0,0 mm 6,7 km/h (2 Bft) S-SE 152 2 min 0,000 mm 2,6 UV-I 682 W/m 8,1 C 23,6 C 12,9 km/h (3 Bft)
22/04/2019 13:38 23,8 C 23,9 C 12,8 C 11,7 C 10,6 C 37 % 0 lf 0 lf 17 cb 12 cb 9 cb 1005,1 hPa 0,0 mm 8,4 km/h (2 Bft) S 180 2 min 0,000 mm 2,8 UV-I 751 W/m 8,2 C 23,2 C 14,5 km/h (3 Bft)
22/04/2019 13:36 23,9 C 23,9 C 12,8 C 11,7 C 10,6 C 39 % 0 lf 0 lf 17 cb 12 cb 9 cb 1005,2 hPa 0,0 mm 3,9 km/h (1 Bft) S-SE 161 2 min 0,000 mm 2,8 UV-I 793 W/m 9,1 C 23,9 C 16,1 km/h (3 Bft)
22/04/2019 13:34 23,8 C 23,3 C 12,8 C 11,7 C 10,6 C 39 % 0 lf 0 lf 17 cb 12 cb 9 cb 1005,2 hPa 0,0 mm 5,3 km/h (1 Bft) S-SE 161 2 min 0,000 mm 2,8 UV-I 791 W/m 9,0 C 23,8 C 9,7 km/h (2 Bft)
22/04/2019 13:32 23,7 C 23,3 C 12,8 C 11,7 C 10,6 C 38 % 0 lf 0 lf 17 cb 12 cb 9 cb 1005,3 hPa 0,0 mm 6,4 km/h (2 Bft) E-SE 102 2 min 0,000 mm 2,8 UV-I 784 W/m 8,5 C 23,7 C 14,5 km/h (3 Bft)
22/04/2019 13:30 23,6 C 22,8 C 12,8 C 11,7 C 10,6 C 37 % 0 lf 0 lf 17 cb 12 cb 9 cb 1005,3 hPa 0,0 mm 10,2 km/h (2 Bft) S-SO 211 2 min 0,000 mm 2,8 UV-I 789 W/m 8,0 C 22,6 C 17,7 km/h (3 Bft)
22/04/2019 13:28 23,4 C 22,8 C 12,8 C 11,7 C 10,6 C 39 % 0 lf 0 lf 17 cb 12 cb 9 cb 1005,4 hPa 0,0 mm 8,7 km/h (2 Bft) SE 136 2 min 0,000 mm 2,8 UV-I 786 W/m 8,6 C 22,7 C 22,5 km/h (4 Bft)
22/04/2019 13:26 23,4 C 22,8 C 12,8 C 11,7 C 10,6 C 37 % 0 lf 0 lf 17 cb 12 cb 9 cb 1005,4 hPa 0,0 mm 8,7 km/h (2 Bft) E-SE 123 2 min 0,000 mm 2,8 UV-I 784 W/m 7,9 C 22,7 C 16,1 km/h (3 Bft)
22/04/2019 13:24 23,2 C 22,2 C 12,8 C 11,7 C 10,6 C 41 % 0 lf 0 lf 17 cb 12 cb 9 cb 1005,4 hPa 0,0 mm 4,1 km/h (1 Bft) S-SE 158 2 min 0,000 mm 2,8 UV-I 775 W/m 9,2 C 23,2 C 12,9 km/h (3 Bft)
22/04/2019 13:22 23,2 C 22,2 C 12,8 C 11,7 C 10,6 C 38 % 0 lf 0 lf 17 cb 12 cb 9 cb 1005,4 hPa 0,0 mm 7,3 km/h (2 Bft) S-SE 167 2 min 0,000 mm 2,8 UV-I 777 W/m 8,1 C 22,9 C 14,5 km/h (3 Bft)
22/04/2019 13:20 23,2 C 22,2 C 12,8 C 11,7 C 10,6 C 36 % 0 lf 0 lf 17 cb 12 cb 9 cb 1005,4 hPa 0,0 mm 8,8 km/h (2 Bft) E-SE 120 2 min 0,000 mm 2,8 UV-I 777 W/m 7,3 C 22,5 C 16,1 km/h (3 Bft)
22/04/2019 13:18 23,2 C 21,7 C 12,8 C 11,7 C 10,6 C 38 % 0 lf 0 lf 17 cb 12 cb 9 cb 1005,4 hPa 0,0 mm 11,1 km/h (2 Bft) SE 146 2 min 0,000 mm 2,8 UV-I 777 W/m 8,1 C 21,9 C 14,5 km/h (3 Bft)
22/04/2019 13:16 23,2 C 21,7 C 12,8 C 11,7 C 10,6 C 37 % 0 lf 0 lf 17 cb 12 cb 9 cb 1005,5 hPa 0,0 mm 10,6 km/h (2 Bft) SE 135 2 min 0,000 mm 2,8 UV-I 777 W/m 7,7 C 22,0 C 16,1 km/h (3 Bft)
22/04/2019 13:14 23,3 C 21,7 C 12,8 C 11,7 C 10,6 C 37 % 0 lf 0 lf 17 cb 12 cb 9 cb 1005,5 hPa 0,0 mm 11,2 km/h (2 Bft) E-SE 122 2 min 0,000 mm 2,7 UV-I 772 W/m 7,8 C 22,0 C 16,1 km/h (3 Bft)
22/04/2019 13:12 23,2 C 21,1 C 12,8 C 11,7 C 10,6 C 38 % 0 lf 0 lf 17 cb 12 cb 9 cb 1005,5 hPa 0,0 mm 9,1 km/h (2 Bft) S-SE 155 2 min 0,000 mm 2,7 UV-I 777 W/m 8,1 C 22,4 C 17,7 km/h (3 Bft)
22/04/2019 13:10 23,1 C 21,1 C 12,8 C 11,7 C 10,6 C 38 % 0 lf 0 lf 17 cb 12 cb 9 cb 1005,6 hPa 0,0 mm 10,4 km/h (2 Bft) S-SE 156 2 min 0,000 mm 2,8 UV-I 782 W/m 8,0 C 22,0 C 16,1 km/h (3 Bft)
22/04/2019 13:08 23,0 C 21,1 C 12,8 C 11,7 C 10,6 C 37 % 0 lf 0 lf 17 cb 12 cb 9 cb 1005,5 hPa 0,0 mm 8,1 km/h (2 Bft) E-SE 115 2 min 0,000 mm 2,8 UV-I 782 W/m 7,5 C 22,5 C 16,1 km/h (3 Bft)
22/04/2019 13:06 22,9 C 21,1 C 12,8 C 11,7 C 10,6 C 40 % 0 lf 0 lf 17 cb 11 cb 9 cb 1005,6 hPa 0,0 mm 9,6 km/h (2 Bft) E-SE 117 2 min 0,000 mm 2,7 UV-I 773 W/m 8,6 C 21,9 C 17,7 km/h (3 Bft)
22/04/2019 13:04 22,9 C 21,1 C 12,8 C 11,7 C 10,6 C 38 % 0 lf 0 lf 17 cb 11 cb 9 cb 1005,7 hPa 0,0 mm 7,7 km/h (2 Bft) S-SE 156 2 min 0,000 mm 2,7 UV-I 789 W/m 7,8 C 22,5 C 19,3 km/h (3 Bft)
22/04/2019 13:02 23,0 C 20,6 C 12,8 C 11,7 C 10,6 C 38 % 0 lf 0 lf 17 cb 11 cb 9 cb 1005,6 hPa 0,0 mm 8,9 km/h (2 Bft) S-SE 161 2 min 0,000 mm 2,4 UV-I 714 W/m 7,9 C 22,2 C 20,9 km/h (4 Bft)
22/04/2019 13:00 22,9 C 20,6 C 12,8 C 11,7 C 10,6 C 38 % 0 lf 0 lf 17 cb 11 cb 9 cb 1005,6 hPa 0,0 mm 8,0 km/h (2 Bft) S-SE 161 2 min 0,483 mm 2,6 UV-I 689 W/m 7,8 C 22,4 C 16,1 km/h (3 Bft)
_ Min-Heure 05:52 06:10 13:00 13:00 13:00 17:26 13:00 13:00 13:00 13:00 13:00 12:24 - 20:04 - - - - - - 19:14 05:52 20:04
Minimum _ 10,7 C 8,3 C 12,8 C 11,7 C 10,6 C 26 % 0 lf 0 lf 17 cb 11 cb 9 cb 996,2 hPa - 0,0 km/h (0 Bft) - - - - - - 3,8 C 10,7 C 0,0 km/h (0 Bft)
_ Max-Heure 16:06 15:34 01:14 13:00 19:58 08:32 04:44 13:00 01:44 13:08 21:42 13:04 13:00 15:58 - - 13:00 14:00 13:08 14:56 14:56 17:20 13:28
Maximum _ 25,8 C 28,9 C 13,3 C 11,7 C 11,1 C 75 % 15 lf 0 lf 18 cb 12 cb 10 cb 1005,7 hPa 0,0 mm 11,9 km/h
SE (2 Bft)
- - 2 min 0,533 mm 2,8 UV-I 837 W/m 9,9 C 25,8 C 22,5 km/h
E-SE (4 Bft)
Moyenne _ 17,7 C 16,5 C 12,9 C 11,7 C 10,9 C 52 % 2 lf 0 lf 17 cb 12 cb 10 cb 1000,6 hPa #0,0 mm 3,2 km/h (1 Bft) E - #2:16 h #0,991 mm 1,3 UV-I 284 W/m 6,8 C 17,6 C 6,2 km/h (2 Bft)